     2              OBSERVATION DATA    GPS                 RINEX VERSION / TYPE
teqc 2000Jul20 Karen Wendt 20030613 20:59:42UTC             PGM / RUN BY / DATE
                                                            COMMENT
L2: 1 -> 1; 150 -> 5; 250 -> 9                              COMMENT
L2: 1 -> 1; 150 -> 5; 250 -> 9                              COMMENT
L2: 1 -> 1; 150 -> 5; 250 -> 9                              COMMENT
L2: 1 -> 1; 150 -> 5; 250 -> 9                              COMMENT
L2: 1 -> 1; 150 -> 5; 250 -> 9                              COMMENT
L2: 1 -> 1; 150 -> 5; 250 -> 9                              COMMENT
L2: 1 -> 1; 150 -> 5; 250 -> 9                              COMMENT
L2: 1 -> 1; 150 -> 5; 250 -> 9                              COMMENT
L2: 1 -> 1; 150 -> 5; 250 -> 9                              COMMENT
L2: 1 -> 1; 150 -> 5; 250 -> 9                              COMMENT
L2: 1 -> 1; 150 -> 5; 250 -> 9                              COMMENT
L2: 1 -> 1; 150 -> 5; 250 -> 9                              COMMENT
L2: 1 -> 1; 150 -> 5; 250 -> 9                              COMMENT
L2: 1 -> 1; 150 -> 5; 250 -> 9                              COMMENT
Original Marker Name: mo93 Mon93_offset_1899_1949_USCGS     COMMENT
Campaign Name: USGS Death Valley 2003                       COMMENT
4-Character Station Name: MO93                              COMMENT
6-Character Antenna Code: DMRCHT                            COMMENT
Vertical Measurement Point: BCR                             COMMENT
Vertical Offset to Rinex Ref. Point: 0.0348                 COMMENT
Radial Measurement Point: ECF                               COMMENT
Radial Offset to Rinex Ref. Point: 0.1897                   COMMENT
Antenna Height from Field Measurement: 1.1920 m             COMMENT
Additional Antenna Identification Info.:                    COMMENT
Turborogue and Ashtech Choke Ring                           COMMENT
Original XYZ: -2316443.9772 -4560245.3275 3799713.5943      COMMENT
New XYZ position is based on association with SCEC monument COMMENT
E1G0F4L2+0011. Position of that monument is believed to be  COMMENT
valid to within 1 m horizontally; vertical accuracy         COMMENT
should be no worse than 3-times this value.                 COMMENT
                                                            COMMENT
Revised Rinex header created by UCSD GPS archive for        COMMENT
GSAC on 20-Apr-2005 (2005:110) 16:32:56 GMT                 COMMENT
For assistance contact dagnew@ucsd.edu                      COMMENT
or anderson@python.ucsd.edu                                 COMMENT
                                                            COMMENT
MON93 1899 1949                                             MARKER NAME
GDH US GEOLOGICAL SURVEY                                    OBSERVER / AGENCY
ZE120023208 ASHTECH UZ-12 ZE00                              REC # / TYPE / VERS
CR519993703 DORNE-MARGOL. TYPE T                            ANT # / TYPE
 -2316463.0000 -4560228.0000  3799706.0000                  APPROX POSITION XYZ
        1.1420        0.0000        0.0000                  ANTENNA: DELTA H/E/N
     1     1     0                                          WAVELENGTH FACT L1/2
     5    C1    L1    L2    P1    P2                        # / TYPES OF OBSERV
    30                                                      INTERVAL
  2003     6     8    15    25   30.000000                  TIME OF FIRST OBS
  2003     6     8    23    59   30.000000                  TIME OF LAST OBS
                                                            END OF HEADER
 03  6  8 15 25 30.0000000  0  7G24G21G17G30G29G 6G10
  24136812.112     4628976.84953   3595755.72552  24136814.020    24136809.314
  22593740.529     4283825.49353   3345597.67152  22593742.726    22593735.746
  21605909.954     4336758.46553   3382738.61252  21605911.188    21605905.607
  21074125.200     4593310.46654   3570446.80552  21074127.600    21074120.600
  24278797.172     4272456.29453   3336674.26652  24278798.903    24278795.534
  21015688.454     4323447.12653   3374709.77352  21015690.376    21015683.690
  20951958.295     -209138.76053   -171831.78352  20951959.489    20951953.336
 03  6  8 15 26  0.0000000  0  7G24G21G17G30G29G 6G10
  24152305.019     4710391.24143   3659195.44242  24152306.832    24152302.171
  22580862.412     4216149.30843   3292862.99342  22580864.421    22580857.366
  21597266.471     4291336.91943   3347345.20042  21597267.714    21597262.131
  21085519.609     4653188.66344   3617105.10542  21085522.062    21085515.024
  24264881.278     4199329.20043   3279692.20742  24264883.358    24264879.844
  21006127.826     4273206.19043   3335560.98742  21006129.842    21006123.201
  20958992.582     -172173.05143   -143027.35342  20958993.827    20958987.755
 03  6  8 15 26 30.0000000  0  7G24G21G17G30G29G 6G10
  24167793.685     4791785.53043   3722619.49742  24167795.481    24167791.021
  22568023.273     4148678.57143   3240288.41142  22568025.167    22568018.127
  21588670.228     4246163.39943   3312145.06142  21588671.509    21588665.889
  21097007.079     4713556.00744   3664144.55242  21097009.564    21097002.571
  24250991.061     4126335.52643   3222814.09642  24250993.254    24250989.602
  20996612.053     4223200.69143   3296595.65642  20996614.121    20996607.492
  20966137.694     -134625.21843   -113769.32642  20966138.980    20966132.883
 03  6  8 15 27  0.0000000  0  7G24G21G17G30G29G 6G10
  24183278.358     4873158.02343   3786026.56842  24183280.126    24183275.638
  22555222.893     4081412.17243   3187873.05042  22555224.809    22555217.705
  21580120.789     4201236.05943   3277136.75442  21580122.102    21580116.498
  21108587.078     4774409.12544   3711562.53542  21108589.573    21108582.545
  24237126.254     4053477.13643   3166041.45742  24237128.603    24237125.154
  20987141.225     4173431.22943   3257814.24842  20987143.335    20987136.681
  20973393.004      -96498.08243    -84059.89442  20973394.323    20973388.244
 03  6  8 15 27 30.0000000  0  7G24G21G17G30G29G 6G10
  24198761.484     4954522.35143   3849427.22042  24198763.240    24198758.859
  22542464.192     4014364.78843   3135628.35942  22542466.045    22542458.999
  21571620.835     4156568.62343   3242330.96742  21571622.170    21571616.547
  21120261.810     4835760.17344   3759368.50142  21120264.332    21120257.287
  24223291.484     -745488.85753   -573412.40952  24223293.251    24223290.126
  20977718.312     4123913.56443   3219229.04142  20977720.444    20977713.812
  20980761.004      -57778.93743    -53889.15142  20980762.352    20980756.272
 03  6  8 15 28  0.0000000  0  7G24G21G17G30G29G 6G10
  24214237.065     5035846.49443   3912796.62842  24214238.757    24214234.393
  22529741.288     3947505.14143   3083529.93342  22529743.010    22529736.008
  21563164.543     4112130.37343   3207703.75842  21563165.865    21563160.250
  21132024.945     4897575.73144   3807536.43342  21132027.487    21132020.453
  24209478.893     -818070.10843   -629969.06242  24209481.254    24209477.951
  20968337.691     4074618.17443   3180817.04442  20968339.862    20968333.221
  20988235.333      -18501.01243    -23283.00042  20988236.718    20988230.632
 03  6  8 15 28 30.0000000  0  7G24G21G17G30G29G 6G10
  24229709.279     5117152.76343   3976152.09142  24229710.811    24229706.545
  22517058.451     3880856.24343   3031595.74442  22517060.135    22517053.133
  21554756.097     4067943.61843   3173272.53042  21554757.427    21554751.797
  21143880.385     4959876.35244   3856082.32342  21143882.940    21143875.911
  24195695.415     -890501.33443   -686408.83342  24195698.055    24195694.560
  20959004.012     4025569.37343   3142597.19342  20959006.173    20958999.572
  20995819.957       21356.55743      7774.81642  20995821.349    20995815.301
 03  6  8 15 29  0.0000000  0  7G24G21G17G30G29G 6G10
  24245175.622     5198428.29643   4039483.59742  24245177.156    24245172.939
  22504413.352     3814406.07243   2979816.41242  22504415.085    22504408.084
  21546393.100     4023996.00643   3139027.64842  21546394.444    21546388.842
  21155825.435     5022647.75443   3904995.06442  21155827.986    21155820.970
  24181939.076     -962791.43443   -742738.69742  24181941.381    24181937.949
  20949715.319     3976756.89243   3104561.48942  20949717.494    20949710.882
  21003512.309       61780.12443     39273.67642  21003513.696    21003507.705
 03  6  8 15 29 30.0000000  0  8G24G21G17G30G29G 6G10G 5
  24260638.873     5279688.33243   4102803.01342  24260640.409    24260636.322
  22491809.157     3748170.66843   2928204.42642  22491810.973    22491803.895
  21538078.669     3980303.26043   3104981.35642  21538080.012    21538074.423
  21167862.654     5085903.67244   3954285.34642  21167865.214    21167858.234
  24168213.054    -1034921.59443   -798943.93542  24168215.389    24168211.721
  20940474.959     3928198.35743   3066723.66342  20940477.136    20940470.530
  21011315.053      102783.77143     71224.54942  21011316.461    21011310.488
  22768804.978     -226467.41753   -190234.28052  22768806.511    22768801.460
 03  6  8 15 30  0.0000000  0  8G24G21G17G30G29G 6G10G 5
  24276096.589     5360918.54843   4166099.22842  24276097.998    24276094.057
  22479243.250     3682136.63143   2876749.33742  22479245.027    22479238.073
  21529810.055     3936851.41643   3071122.78042  21529811.395    21529805.808
  21179989.080     5149628.23643   4003940.81342  21179991.652    21179984.652
  24154515.199    -1106902.20043   -855032.50342  24154517.676    24154514.216
  20931280.617     3879881.77644   3029074.36842  20931282.811    20931276.216
  21019225.223      144351.86743    103615.25242  21019226.638    21019220.662
  22787749.046     -126915.74943   -112661.68542  22787750.602    22787745.517
 03  6  8 15 30 30.0000000  0  8G24G21G17G30G29G 6G10G 5
  24291550.117     5442127.66143   4229378.94442  24291551.653    24291547.724
  22466717.533     3616313.81543   2825458.85642  22466719.381    22466712.394
  21521589.063     3893649.79143   3037459.18342  21521590.393    21521584.839
  21192206.123     5213828.86743   4053967.23242  21192208.688    21192201.657
  24140848.432    -1178720.80643   -910994.90542  24140851.082    24140847.705
  20922134.411     3831818.27843   2991622.28542  20922136.635    20922130.039
  21027244.302      186492.24443    136451.89442  21027245.732    21027239.762
  22806731.414      -27162.36943    -34931.84642  22806733.027    22806728.043
 03  6  8 15 31  0.0000000  0  8G24G21G17G30G29G 6G10G 5
  24306998.278     5523307.74543   4292636.08542  24306999.804    24306995.780
  22454230.593     3550694.38743   2774326.84742  22454232.422    22454225.395
  21513414.124     3850690.31343   3003984.26742  21513415.478    21513409.939
  21204511.803     5278495.55443   4104356.80142  21204514.376    21204507.385
  24127211.822    -1250382.18543   -966834.87542  24127214.477    24127210.762
  20913035.301     3784001.96143   2954362.81142  20913037.501    20913030.930
  21035370.469      229195.39043    169727.04842  21035371.904    21035365.938
  22825750.295       72782.38443     42947.07942  22825751.861    22825746.980
 03  6  8 15 31 30.0000000  0  8G24G21G17G30G29G 6G10G 5
  24322441.518     5604461.26643   4355872.53642  24322442.956    24322438.802
  22441782.960     3485281.66243   2723355.90742  22441784.816    22441777.775
  21505285.883     3807976.08643   2970700.46742  21505287.256    21505281.696
  21216906.327     5343628.89044   4155110.00142  21216908.862    21216901.911
  24113606.192    -1321879.96343  -1022547.36042  24113608.908    24113604.984
  20903984.128     3736437.58543   2917299.65542  20903986.345    20903979.728
  21043603.941      272462.50143    203441.66042  21043605.384    21043599.415
  22844805.817      172918.95743    120975.49442  22844807.326    22844802.396
 03  6  8 15 32  0.0000000  0  8G24G21G17G30G29G 6G10G 5
  24337879.360     5685587.88943   4419087.97442  24337880.985    24337876.779
  22429374.786     3420076.15743   2672546.43342  22429376.603    22429369.607
  21497204.381     3765507.54143   2937608.09242  21497205.765    21497200.193
  21229389.308     5409227.13843   4206225.46642  21229391.837    21229384.907
  24100031.795    -1393211.24843  -1078129.91942  24100034.577    24100031.169
  20894981.250     3689127.12443   2880434.35442  20894983.470    20894976.882
  21051944.377      316291.96143    237594.46442  21051945.861    21051939.924
  22863897.245      273244.64343    199151.25642  22863898.766    22863893.828
 03  6  8 15 32 30.0000000  0  8G24G21G17G30G29G 6G10G 5
  24353311.999     5766686.05143   4482281.28742  24353313.479    24353309.197
  22417005.720     3355076.23443   2621897.14942  22417007.617    22417000.529
  21489169.318     3723282.87043   2904705.75442  21489170.696    21489165.083
  21241960.105     5475287.01743   4257700.64942  21241962.632    21241955.742
  24086490.061    -1464373.32343  -1133580.75242  24086492.928    24086489.349
  20886026.843     3642071.18243   2843767.37842  20886029.050    20886022.468
  21060391.345      360680.89443    272183.21642  21060392.813    21060386.904
  22883024.003      373756.07543    277471.76542  22883025.545    22883020.614
 03  6  8 15 33  0.0000000  0  8G24G21G17G30G29G 6G10G 5
  24368738.631     5847753.60443   4545450.72142  24368740.191    24368735.955
  22404675.672     3290281.54343   2571407.80542  22404677.555    22404670.523
  21481180.409     3681300.89343   2871992.52642  21481181.824    21481176.175
  21254618.077     5541804.78743   4309532.62842  21254620.592    21254613.717
  24072980.975    -1535364.91543  -1188898.85742  24072983.689    24072979.704
  20877120.910     3595270.06743   2807298.97142  20877123.112    20877116.525
  21068944.095      405625.83243    307205.21942  21068945.581    21068939.679
  22902185.329      474448.98643    355933.68442  22902186.873    22902181.927
 03  6  8 15 33 30.0000000  0  8G24G21G17G30G29G 6G10G 5
  24384160.182     5928794.24743   4608599.15642  24384161.757    24384157.576
  22392385.441     3225696.14643   2521081.52642  22392387.348    22392380.334
  21473238.461     3639565.57743   2839471.50442  21473239.884    21473234.223
  21267363.559     5608782.29843   4361722.85342  21267366.089    21267359.168
  24059505.470    -1606178.74243  -1244078.39742  24059508.149    24059504.121
  20868264.595     3548729.71243   2771033.75442  20868266.804    20868260.213
  21077603.156      451129.15943    342662.33542  21077604.627    21077598.706
  22921381.485      575324.97943    434538.27542  22921383.050    22921378.088
 03  6  8 15 34  0.0000000  0  8G24G21G17G30G29G 6G10G 5
  24399575.793     6009803.59243   4671723.26642  24399577.481    24399573.265
  22380134.439     3161316.36543   2470915.47542  22380136.313    22380129.275
  21465342.561     3598072.55443   2807139.28242  21465344.007    21465338.376
  21280195.299     5676213.39343   4414266.51742  21280197.837    21280190.943
  24046063.369    -1676815.70443  -1299119.97242  24046066.046    24046062.362
  20859457.532     3502448.10543   2734970.16342  20859459.729    20859453.122
  21086367.280      497184.88243    378549.88542  21086368.746    21086362.848
  22940611.225      676377.62143    513280.51842  22940612.844    22940607.818
 03  6  8 15 34 30.0000000  0  8G24G21G17G30G29G 6G10G 5
  24414985.684     6090782.02543   4734823.28342  24414987.368    24414983.024
  22367922.638     3097142.74843   2420910.07242  22367924.515    22367917.458
  21457492.859     3556821.84243   2774995.86842  21457494.263    21457488.635
  21293113.065     5744096.50243   4467162.39342  21293115.594    21293108.728
  24032656.052    -1747272.01443  -1354020.87042  24032658.689    24032655.002
  20850700.070     3456427.36943   2699109.83842  20850702.295    20850695.685
  21095236.251      543791.50543    414866.70942  21095237.745    21095231.840
  22959874.160      777604.68443    592158.64742  22959875.799    22959870.778
 03  6  8 15 35  0.0000000  0  8G24G21G17G30G29G 6G10G 5
  24430389.461     6171729.98943   4797899.48042  24430391.181    24430387.163
  22355750.323     3033176.89843   2371066.56342  22355752.230    22355745.145
  21449689.676     3515815.78343   2743043.09642  21449691.085    21449685.457
  21306116.627     5812430.48643   4520409.60442  21306119.168    21306112.329
  24019283.680    -1817543.11443  -1408777.45742  24019286.475    24019282.919
  20841992.933     3410670.91943   2663455.45742  20841995.148    20841988.564
  21104210.059      590948.97543    451612.76442  21104211.531    21104205.656
  22979170.053      879004.92643    671171.72442  22979171.656    22979166.633
 03  6  8 15 35 30.0000000  0  8G24G21G17G30G29G 6G10G 5
  24445787.436     6252645.99743   4860950.84142  24445789.119    24445785.129
  22343617.405     2969418.02743   2321384.33442  22343619.309    22343612.178
  21441932.659     3475052.21343   2711279.27942  21441934.049    21441928.441
  21319205.341     5881211.89643   4574005.45442  21319207.893    21319201.046
  24005946.921    -1887627.17743  -1463388.24442  24005949.602    24005946.402
  20833336.207     3365179.33043   2628007.45942  20833338.397    20833331.814
  21113288.006      638653.73343    488785.27842  21113289.509    21113283.599
  22998498.220      980574.58743    750316.80342  22998499.704    22998494.800
 03  6  8 15 36  0.0000000  0  8G24G21G17G30G29G 6G10G 5
  24461179.194     6333529.79043   4923977.09042  24461180.845    24461176.813
  22331523.860     2905865.97243   2271863.26442  22331525.754    22331518.676
  21434221.724     3434530.83043   2679704.17442  21434223.091    21434217.505
  21332378.796     5950438.45743   4627948.18342  21332381.327    21332374.484
  23992646.796    -1957521.30243  -1517851.15842  23992649.304    23992645.868
  20824730.172     3319954.15343   2592767.05142  20824732.378    20824725.758
  21122469.739      686903.86043    526382.75442  21122471.222    21122465.344
  23017858.123     1082310.88243    829591.74842  23017859.613    23017854.721
 03  6  8 15 36 30.0000000  0  8G24G21G17G30G29G 6G10G 5
  24476564.753     6414380.90243   4986977.88342  24476566.353    24476562.248
  22319469.740     2842521.28743   2222503.79142  22319471.626    22319464.615
  21426556.864     3394251.78543   2648317.91042  21426558.259    21426552.671
  21345636.500     6020108.03343   4682236.11442  21345639.036    21345632.223
  23979383.318    -2027222.01743  -1572163.37942  23979385.840    23979382.055
  20816175.190     3274997.36543   2557735.77542  20816177.413    20816170.799
  21131754.937      735697.77943    564403.96242  21131756.423    21131750.531
  23037249.196     1184211.45443    908994.69542  23037250.684    23037245.830
 03  6  8 15 37  0.0000000  0  8G24G21G17G30G29G 6G10G 5
  24491943.298     6495195.69343   5049950.33842  24491944.866    24491940.991
  22307454.581     2779380.92843   2173303.52942  22307456.456    22307449.433
  21418937.562     3354211.94543   2617118.03342  21418938.953    21418933.342
  21358977.439     6090215.06143   4736864.91242  21358980.006    21358973.191
  23966156.434    -2096729.59343  -1626325.00642  23966158.972    23966155.195
  20807671.029     3230307.62443   2522912.59442  20807673.258    20807666.634
  21141142.611      785030.03543    602844.65342  21141144.062    21141138.175
  23056670.449     1286270.47643    988521.09342  23056671.933    23056667.155
 03  6  8 15 37 30.0000000  0  8G24G21G17G30G29G 6G10G 5
  24507316.301     6575980.95343   5112899.78042  24507317.795    24507313.948
  22295479.571     2716451.93243   2124267.94642  22295481.486    22295474.432
  21411364.987     3314417.76643   2586109.58742  21411366.378    21411360.779
  21372402.463     6160763.85443   4791837.94842  21372405.020    21372398.220
  23952968.163    -2166033.74243  -1680328.12842  23952970.747    23952966.892
  20799219.301     3185893.69743   2488304.32942  20799221.561    20799214.955
  21150633.543      834905.31543    641708.48342  21150635.034    21150629.146
  23076122.701     1388492.15443   1068174.28242  23076124.230    23076119.312
 03  6  8 15 38  0.0000000  0  8G24G21G17G30G29G 6G10G 5
  24522682.484     6656729.80343   5175820.87242  24522683.854    24522680.092
  22283543.583     2653728.17743   2075392.32042  22283545.555    22283538.471
  21403838.044     3274863.35143   2555287.96542  21403839.439    21403833.811
  21385910.019     6231746.44143   4847148.99442  21385912.571    21385905.800
  23939817.926    -2235137.43843  -1734175.06042  23939820.651    23939816.753
  20790819.313     3141751.36743   2453907.70842  20790821.550    20790814.973
  21160226.384      885315.95543    680989.47542  21160227.890    21160221.993
  23095604.156     1490868.05443   1147947.57942  23095605.757    23095600.928
 03  6  8 15 38 30.0000000  0  8G24G21G17G30G29G 6G10G 5
  24538042.199     6737445.00043   5238715.72042  24538043.618    24538039.922
  22271647.350     2591212.98943   2026679.18442  22271649.248    22271642.212
  21396357.233     3235551.39943   2524655.27642  21396358.624    21396353.000
  21399500.227     6303163.07944   4902798.25542  21399502.774    21399496.028
  23926707.081    -2304034.75143  -1787861.18242  23926709.769    23926706.072
  20782471.919     3097885.44143   2419726.46142  20782474.159    20782467.570
  21169921.260      936262.72943    720688.23442  21169922.734    21169916.879
  23115115.072     1593398.31343   1227841.19942  23115116.697    23115111.763
 03  6  8 15 39  0.0000000  0  8G24G21G17G30G29G 6G10G 5
  24553394.655     6818121.71143   5301580.58842  24553395.851    24553392.352
  22259790.044     2528902.14543   1978125.29242  22259791.874    22259784.842
  21388921.693     3196477.31343   2494207.93942  21388923.078    21388917.471
  21413171.713     6375006.89143   4958780.37942  21413174.236    21413167.521
  23913635.476    -2372727.24043  -1841387.70942  23913638.081    23913634.291
  20774176.551     3054292.95143   2385758.28642  20774178.789    20774172.210
  21179716.876      987738.96543    760799.56042  21179718.369    21179712.535
  23134654.059     1696075.60043   1307849.34342  23134655.580    23134650.777
 03  6  8 15 39 30.0000000  0  8G24G21G17G30G29G 6G10G 5
  24568740.832     6898765.78643   5364420.02442  24568741.981    24568738.338
  22247972.877     2466802.22043   1929735.76342  22247974.625    22247967.578
  21381532.582     3157647.12443   2463950.64242  21381533.965    21381528.338
  21426925.310     6447282.08843   5015098.65642  21426927.821    21426921.091
  23900604.497    -2441205.21343  -1894747.11042  23900607.148    23900603.217
  20765934.826     3010982.31843   2352009.73042  20765937.061    20765930.486
  21189614.103     1039749.04643    801326.86442  21189615.572    21189609.777
  23154221.655     1798904.14643   1387975.39342  23154223.222    23154218.396
 03  6  8 15 40  0.0000000  0  9G24G21G17G30G29G 6G26G10G 5
  24584077.087     6979357.95743   5427219.02142  24584078.289    24584074.558
  22236192.138     2404894.37543   1881495.90442  22236193.967    22236186.928
  21374186.182     3119041.48543   2433868.33342  21374187.575    21374181.934
  21440756.919     6519967.30043   5071736.42442  21440759.433    21440752.679
  23887611.207    -2509484.49643  -1947951.67242  23887613.859    23887609.990
  20757743.502     2967936.40643   2318467.46042  20757745.708    20757739.117
  24280456.988    -1875722.25053  -1455742.52552  24280459.828    24280458.808
  21199608.956     1092272.14243    842253.92642  21199610.447    21199604.621
  23173814.048     1901862.24943   1468202.36942  23173815.660    23173810.818
 03  6  8 15 40 30.0000000  0  9G24G21G17G30G29G 6G26G10G 5
  24599409.558     7059930.24943   5490002.53042  24599410.822    24599407.007
  22224454.157     2343211.23543   1833431.13142  22224456.017    22224449.009
  21366888.737     3080693.19443   2403986.54342  21366890.125    21366884.510
  21454672.263     6593092.60943   5128717.12542  21454674.808    21454668.021
  23874662.695    -2577529.31543  -2000973.56242  23874665.341    23874661.417
  20749609.056     2925189.58143   2285158.23842  20749611.273    20749604.677
  24262350.048    -1970874.15853  -1529886.69252  24262352.891    24262351.829
  21209707.170     1145338.57143    883604.36042  21209708.662    21209702.855
  23193436.839     2004979.79343   1548553.61242  23193438.451    23193433.480
 03  6  8 15 41  0.0000000  0  9G24G21G17G30G29G 6G26G10G 5
  24614734.927     7140465.56743   5552757.20942  24614736.182    24614732.458
  22212755.800     2281736.01443   1785528.37042  22212757.721    22212750.621
  21359636.921     3042584.56343   2374291.50042  21359638.303    21359632.662
  21468667.627     6666638.45243   5186025.51542  21468670.161    21468663.383
  23861756.144    -2645353.85143  -2053823.76342  23861758.763    23861754.698
  20741528.671     2882726.58244   2252070.18042  20741530.867    20741524.252
  24244244.561    -2066017.78843  -1604024.40042  24244247.630    24244246.524
  21219905.146     1198929.01043    925363.11542  21219906.633    21219900.793
  23213086.223     2108237.14943   1629013.79342  23213087.828    23213082.939
 03  6  8 15 41 30.0000000  0  9G24G21G17G30G29G 6G26G10G 5
  24630052.282     7220958.31843   5615478.71442  24630053.551    24630050.067
  22201096.031     2220463.52043   1737783.58742  22201097.950    22201090.857
  21352429.722     3004710.55443   2344779.28442  21352431.128    21352425.507
  21482741.558     6740597.24543   5243655.68842  21482744.081    21482737.340
  23848890.978    -2712959.92443  -2106503.77042  23848893.525    23848889.685
  20733501.609     2840544.14844   2219200.75042  20733503.835    20733497.235
  24226140.455    -2161155.04443  -1678157.13542  24226143.530    24226142.240
  21230201.434     1253036.26743    967524.59042  21230202.935    21230197.095
  23232760.665     2211626.47243   1709576.81042  23232762.274    23232757.434
 03  6  8 15 42  0.0000000  0  9G24G21G17G30G29G 6G26G10G 5
  24645363.303     7301417.73543   5678174.25842  24645364.621    24645360.975
  22189476.759     2159403.77443   1690204.57742  22189478.655    22189471.593
  21345268.990     2967080.60443   2315457.24842  21345270.393    21345264.782
  21496895.447     6814976.11343   5301613.19142  21496897.983    21496891.255
  23836069.951    -2780335.21043  -2159003.92742  23836072.451    23836068.577
  20725530.109     2798653.59943   2186558.75842  20725532.308    20725525.738
  24208040.214    -2256272.73243  -1752274.65142  24208043.283    24208041.807
  21240597.494     1307667.84043   1010094.61942  21240599.022    21240593.151
  23252461.542     2315154.77943   1790248.10442  23252463.179    23252458.468
 03  6  8 15 42 30.0000000  0  9G24G21G17G30G29G 6G26G10G 5
  24660666.370     7381835.60243   5740837.43842  24660667.945    24660664.030
  22177896.462     2098548.97243   1642785.27142  22177898.374    22177891.333
  21338153.145     2929686.31843   2286318.83642  21338154.507    21338148.886
  21511127.291     6889764.75443   5359889.99642  21511129.839    21511123.126
  23823291.803    -2847484.32543  -2211327.82142  23823294.403    23823290.438
  20717613.003     2757048.78944   2154139.42142  20717615.205    20717608.618
  24189942.557    -2351375.46043  -1826380.49442  24189945.707    24189943.937
  21251091.402     1362813.52843   1053065.25242  21251092.931    21251087.076
  23272186.883     2418811.59043   1871019.53742  23272188.474    23272183.882
 03  6  8 15 43  0.0000000  0  9G24G21G17G30G29G 6G26G10G 5
  24675962.299     7462215.62943   5803471.13242  24675963.827    24675959.828
  22166355.944     2037903.22543   1595528.86242  22166357.835    22166350.840
  21331082.878     2892531.67643   2257367.16642  21331084.231    21331078.627
  21525437.442     6964964.82143   5418487.39242  21525440.006    21525433.305
  23810557.943    -2914400.02843  -2263469.89642  23810560.391    23810556.554
  20709751.420     2715735.72643   2121947.41542  20709753.608    20709747.016
  24171849.227    -2446455.55143  -1900468.73242  24171852.200    24171850.878
  21261683.555     1418475.37443   1096438.08942  21261685.067    21261679.199
  23291936.996     2522598.38143   1951892.24342  23291938.573    23291933.985
 03  6  8 15 43 30.0000000  0  9G24G21G17G30G29G 6G26G10G 5
  24691249.595     7542550.76943   5866069.81842  24691251.097    24691247.210
  22154854.044     1977460.29043   1548430.48242  22154855.954    22154848.928
  21324056.937     2855610.22643   2228597.20042  21324058.337    21324052.724
  21539824.188     7040567.36643   5477398.40242  21539826.772    21539820.081
  23797868.171    -2981085.67943  -2315432.70142  23797870.687    23797866.663
  20701944.438     2674709.81443   2089979.16542  20701946.630    20701940.061
  24153759.533    -2541516.14543  -1974541.74442  24153762.670    24153761.114
  21272372.283     1474644.66843   1140206.34242  21272373.762    21272367.909
  23311710.006     2626506.10243   2032859.17842  23311711.645    23311707.121
 03  6  8 15 44  0.0000000  0  9G24G21G17G30G29G 6G26G10G 5
  24706530.164     7622850.71643   5928641.10742  24706531.757    24706528.012
  22143392.540     1917229.86343   1501497.70242  22143394.447    22143387.404
  21317077.203     2818931.34543   2200016.25342  21317078.575    21317072.969
  21554288.789     7116579.41743   5536628.50542  21554291.401    21554284.762
  23785224.551    -3047528.79943  -2367206.50842  23785227.111    23785223.011
  20694194.278     2633982.44244   2058243.54242  20694196.486    20694189.915
  24135676.367    -2636544.08243  -2048589.31542  24135679.386    24135677.678
  21283158.954     1531328.85243   1184375.80242  21283160.429    21283154.605
  23331507.451     2730541.95443   2113925.92842  23331509.005    23331504.665
 03  6  8 15 44 30.0000000  0  9G24G21G17G30G29G 6G26G10G 5
  24721802.866     7703108.54143   5991179.57142  24721804.342    24721800.618
  22131970.279     1857205.23843   1454725.27742  22131972.135    22131965.106
  21310142.300     2782488.23843   2171619.02542  21310143.696    21310138.081
  21568829.632     7192991.74743   5596170.51742  21568832.223    21568825.635
  23772626.113    -3113732.94043  -2418794.11842  23772628.761    23772624.675
  20686499.976     2593548.53643   2026736.59542  20686502.163    20686495.617
  24117598.527    -2731542.92243  -2122614.20842  24117601.877    24117599.880
  21294041.864     1588518.85043   1228939.40342  21294043.345    21294037.533
  23351327.301     2834696.33943   2195085.02242  23351328.830    23351324.722
 03  6  8 15 45  0.0000000  0  9G24G21G17G30G29G 6G26G10G 5
  24737067.414     7783324.02243   6053685.00042  24737068.828    24737065.216
  22120587.256     1797387.12743   1408113.77042  22120589.102    22120582.113
  21303252.313     2746280.96943   2143405.56642  21303253.710    21303248.088
  21583446.227     7269802.18943   5656022.74542  21583448.823    21583442.255
  23760073.970    -3179694.63343  -2470192.77642  23760076.585    23760072.548
  20678861.964     2553410.57844   1995460.25642  20678864.178    20678857.637
  24099527.066    -2826508.57043  -2196613.26242  24099530.349    24099528.441
  21305020.687     1646212.75543   1273895.65742  21305022.180    21305016.365
  23371169.376     2938967.09043   2276334.78342  23371170.787    23371166.852
 03  6  8 15 45 30.0000000  0  9G24G21G17G30G29G 6G26G10G 5
  24752324.584     7863500.08743   6116159.71842  24752325.777    24752322.501
  22109244.147     1737778.74743   1361665.69942  22109246.001    22109239.054
  21296407.724     2710312.40043   2115378.10942  21296409.094    21296403.497
  21598138.691     7347011.45243   5716185.74442  21598141.310    21598134.761
  23747569.322    -3245407.67143  -2521397.74742  23747571.842    23747567.489
  20671281.221     2513573.33044   1964418.24342  20671283.448    20671276.885
  24081463.280    -2921434.53443  -2270581.42742  24081466.473    24081464.318
  21316095.526     1704411.48343   1319245.28342  21316097.042    21316091.257
  23391033.927     3043354.68643   2357675.63742  23391035.181    23391031.251
 03  6  8 15 46  0.0000000  0  9G24G21G17G30G29G 6G26G10G 5
  24767573.610     7943633.40443   6178601.14342  24767574.784    24767571.401
  22097940.429     1678377.27343   1315378.85042  22097942.321    22097935.336
  21289607.951     2674579.29743   2087534.13242  21289609.326    21289603.730
  21612906.029     7424613.97843   5776655.19242  21612908.642    21612902.086
  23735111.803    -3310871.95743  -2572408.84142  23735114.328    23735109.921
  20663757.436     2474035.61143   1933609.62842  20663759.680    20663753.116
  24063407.114    -3016320.28543  -2344518.23342  24063410.033    24063407.945
  21327265.545     1763109.95643   1364984.32242  21327267.024    21327261.236
  23410919.501     3147853.61443   2439103.24842  23410920.792    23410916.810
 03  6  8 15 46 30.0000000  0  9G24G21G17G30G29G 6G26G10G 5
  24782815.089     8023727.71743   6241012.17942  24782816.400    24782812.798
  22086676.865     1619186.81243   1269256.42142  22086678.809    22086671.771
  21282853.683     2639085.38443   2059876.53942  21282855.040    21282849.453
  21627748.434     7502611.04043   5837432.07042  21627751.024    21627744.488
  23722702.920    -3376080.65343  -2623220.74342  23722705.528    23722701.179
  20656291.781     2434803.30443   1903038.99342  20656294.025    20656287.470
  24045359.789    -3111158.45243  -2418417.90542  24045362.933    24045360.761
  21338530.919     1822309.89843   1411114.11542  21338532.436    21338526.663
  23430826.526     3252465.13243   2520618.60842  23430827.871    23430823.798
 03  6  8 15 47  0.0000000  0  9G24G21G17G30G29G 6G26G10G 5
  24798047.851     8103776.08343   6303387.43742  24798049.429    24798045.375
  22075452.175     1560200.79143   1223293.28942  22075454.137    22075447.066
  21276143.642     2603823.87243   2032400.03542  21276145.015    21276139.429
  21642664.215     7580993.69243   5898509.39942  21642666.773    21642660.285
  23710342.194    -3441037.14643  -2673836.17342  23710344.781    23710340.260
  20648883.339     2395871.66743   1872702.64342  20648885.589    20648879.032
  24027321.020    -3205952.13143  -2492282.94042  24027324.147    24027321.899
  21349890.052     1882002.31543   1457627.65142  21349891.525    21349885.801
  23450753.238     3357180.35843   2602214.78842  23450754.657    23450750.519
 03  6  8 15 47 30.0000000  0  9G24G21G17G30G29G 6G26G10G 5
  24813273.079     8183784.28443   6365731.31742  24813274.567    24813270.684
  22064267.482     1501424.90443   1177493.90942  22064269.424    22064262.384
  21269478.973     2568800.72243   2005109.26642  21269480.325    21269474.754
  21657653.942     7659764.95743   5959889.53142  21657656.512    21657650.010
  23698031.175    -3505732.67043  -2724248.25342  23698033.755    23698029.066
  20641533.569     2357248.38243   1842606.56442  20641535.804    20641529.278
  24009292.617    -3300691.85943  -2566105.94242  24009295.698    24009293.439
  21361343.509     1942190.60343   1504527.58242  21361344.997    21361339.295
  23470700.296     3462002.20443   2683894.06042  23470701.763    23470697.554
 03  6  8 15 48  0.0000000  0  9G24G21G17G30G29G 6G26G10G 5
  24828489.371     8263745.67143   6428038.78142  24828491.007    24828487.159
  22053121.716     1442853.45443   1131853.83742  22053123.638    22053116.606
  21262858.301     2534008.71243   1977998.60742  21262859.626    21262854.052
  21672715.965     7738916.11143   6021565.69442  21672718.535    21672712.025
  23685768.956    -3570170.37343  -2774459.39742  23685771.601    23685767.123
  20634241.673     2318929.08043   1812747.35642  20634243.882    20634237.359
  23991273.780    -3395380.55143  -2639889.15742  23991276.944    23991274.609
  21372889.673     2002866.07843   1551807.13542  21372891.158    21372885.497
  23490665.993     3566921.93643   2765649.61142  23490667.482    23490663.187
 03  6  8 15 48 30.0000000  0  9G24G21G17G30G29G 6G26G10G 5
  24843697.741     8343666.37643   6490314.55042  24843699.330    24843695.784
  22042016.088     1384493.03543   1086378.20042  22042017.990    22042011.012
  21256282.889     2499454.79843   1951073.47242  21256284.228    21256278.671
  21687851.035     7818451.14343   6083540.96742  21687853.606    21687847.138
  23673557.694    -3634340.76343  -2824462.27542  23673560.260    23673555.833
  20627009.128     2280921.75344   1783131.24942  20627011.349    20627004.830
  23973266.600    -3490008.15643  -2713624.76342  23973269.567    23973267.474
  21384529.449     2064033.24943   1599469.82942  21384530.928    21384525.283
  23510650.961     3671943.40943   2847484.43742  23510652.511    23510648.262
 03  6  8 15 49  0.0000000  0  9G24G21G17G30G29G 6G26G10G 5
  24858898.097     8423544.33843   6552556.99842  24858899.575    24858896.165
  22030950.222     1326341.46243   1041065.30042  22030952.123    22030945.150
  21249752.330     2465136.34643   1924331.82342  21249753.661    21249748.125
  21703058.242     7898365.19543   6145811.58442  21703060.801    21703054.370
  23661397.453    -3698242.99043  -2874256.15842  23661400.050    23661395.665
  20619835.907     2243226.15043   1753758.04342  20619838.139    20619831.618
  23955271.322    -3584573.25743  -2787311.67342  23955274.239    23955272.111
  21396261.917     2125687.48243   1647512.05242  21396263.377    21396257.746
  23530654.485     3777062.02143   2929394.92242  23530655.978    23530651.846
 03  6  8 15 49 30.0000000  0  9G24G21G17G30G29G 6G26G10G 5
  24874089.325     8503373.78043   6614761.62642  24874090.657    24874087.273
  22019923.126     1268393.52643    995911.07542  22019925.008    22019918.031
  21243265.463     2431047.55843   1897769.12642  21243266.821    21243261.247
  21718336.062     7978650.39243   6208371.40642  21718338.624    21718332.234
  23649287.841    -3761879.37343  -2923842.91842  23649290.422    23649286.095
  20612721.390     2205838.92144   1724625.12942  20612723.593    20612717.093
  23937287.576    -3679077.72143  -2860951.43042  23937290.561    23937288.170
  21408085.652     2187821.29043   1695927.96942  21408087.115    21408081.454
  23550674.906     3882269.78043   3011374.87542  23550676.470    23550672.358
 03  6  8 15 50  0.0000000  0  8G21G17G30G29G 6G26G10G 5
  22008937.827     1210665.57643    950928.26042  22008939.720    22008932.726
  21236825.382     2397204.70243   1871398.06742  21236826.744    21236821.156
  21733687.100     8059320.25343   6271230.95742  21733689.652    21733683.296
  23637232.544    -3825230.62343  -2973207.47742  23637235.158    23637230.813
  20605668.967     2168777.96543   1695746.45442  20605671.154    20605664.646
  23919319.285    -3773501.77743  -2934528.51242  23919322.060    23919319.765
  21420003.205     2250448.24043   1744728.15042  21420004.674    21419998.985
  23570714.934     3987580.19543   3093434.78942  23570716.421    23570712.433
 03  6  8 15 50 30.0000000  0  8G21G17G30G29G 6G26G10G 5
  21997990.539     1153137.32743    906101.06542  21997992.458    21997985.433
  21230428.253     2363587.53043   1845202.86842  21230429.598    21230424.043
  21749107.018     8140351.84643   6334372.38842  21749109.520    21749103.168
  23625228.246    -3888314.07143  -3022363.38942  23625230.783    23625226.379
  20598675.082     2132024.74944   1667107.57742  20598677.277    20598670.761
  23901362.993    -3867862.30443  -3008056.08742  23901365.812    23901363.376
  21432010.282     2313545.79843   1793895.03842  21432011.744    21432006.096
  23590770.188     4092970.51143   3175556.97842  23590771.664    23590767.731
 03  6  8 15 51  0.0000000  0  8G21G17G30G29G 6G26G10G 5
  21987082.239     1095813.77843    861433.37442  21987084.153    21987077.145
  21224074.834     2330200.16743   1819186.73942  21224076.184    21224070.664
  21764596.133     8221747.33343   6397797.37242  21764598.649    21764592.236
  23613276.199    -3951121.93243  -3071304.48742  23613278.706    23613274.415
  20591741.031     2095586.04043   1638713.76842  20591743.230    20591736.710
  23883420.102    -3962150.79643  -3081527.41042  23883423.089    23883420.912
  21444107.385     2377116.26943   1843430.43142  21444108.825    21444103.176
  23610840.960     4198443.08443   3257743.24242  23610842.519    23610838.656
 03  6  8 15 51 30.0000000  0  8G21G17G30G29G 6G26G10G 5
  21976214.258     1038702.19843    816930.85442  21976216.183    21976209.199
  21217766.571     2297049.96843   1793355.40842  21217767.927    21217762.398
  21780155.419     8303511.54343   6461509.67342  21780157.915    21780151.522
  23601378.787    -4013643.92243  -3120022.89142  23601381.264    23601376.771
  20584868.627     2059471.24544   1610572.36042  20584870.806    20584864.304
  23865492.963    -4056356.41443  -3154934.12442  23865496.069    23865494.146
  21456295.409     2441164.61043   1893338.19042  21456296.863    21456291.226
  23630928.438     4304002.48843   3339997.15442  23630929.919    23630926.102
 03  6  8 15 52  0.0000000  0  8G21G17G30G29G 6G26G10G 5
  21965385.739      981797.65343    772589.66442  21965387.610    21965380.640
  21211502.346     2264131.44343   1767704.60442  21211503.731    21211498.220
  21795783.283     8385636.39243   6525502.97942  21795785.778    21795779.422
  23589534.912    -4075882.18043  -3168520.14742  23589537.550    23589533.204
  20578057.170     2023676.74644   1582680.53342  20578059.360    20578052.859
  23847581.620    -4150480.92443  -3228277.74442  23847584.757    23847582.631
  21468572.937     2505683.10843   1943612.29942  21468574.382    21468568.716
  23651030.857     4409640.88743   3422312.61942  23651032.320    23651028.546
 03  6  8 15 52 30.0000000  0  8G21G17G30G29G 6G26G10G 5
  21954596.297      925098.88543    728408.81342  21954598.165    21954591.224
  21205281.925     2231442.72443   1742232.86942  21205283.311    21205277.766
  21811479.098     8468118.07043   6589774.34142  21811481.559    21811475.233
  23577745.594    -4137835.08943  -3216795.09242  23577748.137    23577743.963
  20571306.729     1988203.10743   1555038.72942  20571308.949    20571302.474
  23829686.255    -4244522.09843  -3301556.46142  23829689.229    23829686.750
  21480939.265     2570668.25043   1994250.03642  21480940.699    21480935.046
  23671147.500     4515354.44143   3504686.64542  23671148.962    23671145.272
 03  6  8 15 53  0.0000000  0  8G21G17G30G29G 6G26G10G 5
  21943846.485      868608.27343    684390.16142  21943848.338    21943841.417
  21199105.710     2198986.46343   1716942.27342  21199107.108    21199101.569
  21827242.686     8550955.99143   6654323.30142  21827245.159    21827238.853
  23566011.644    -4199497.43943  -3264843.63242  23566014.143    23566010.077
  20564618.077     1953053.95544   1527649.77342  20564620.275    20564613.811
  23811807.776    -4338473.85443  -3374765.50642  23811810.653    23811808.412
  21493394.290     2636119.62643   2045251.06742  21493395.727    21493390.099
  23691278.493     4621142.86243   3587119.03542  23691279.912    23691276.306
 03  6  8 15 53 30.0000000  0  8G21G17G30G29G 6G26G10G 5
  21933136.708      812328.01743    640535.43342  21933138.535    21933131.632
  21192974.082     2166764.45743   1691834.20842  21192975.461    21192969.926
  21843073.994     8634149.72243   6719149.51042  21843076.463    21843070.148
  23554333.919    -4260864.07443  -3312661.72542  23554336.415    23554332.256
  20557991.995     1918233.52244   1500516.96742  20557994.199    20557987.721
  23793947.364    -4432330.78743  -3447900.59742  23793950.173    23793947.985
  21505937.987     2702036.99043   2096615.20142  21505939.410    21505933.816
  23711423.617     4727005.75943   3669609.40942  23711424.921    23711421.444
 03  6  8 15 54  0.0000000  0  8G21G17G30G29G 6G26G10G 5
  21922466.007      756253.09243    596840.69542  21922467.860    21922460.950
  21186885.938     2134770.96943   1666904.21142  21186887.319    21186881.799
  21858971.488     8717691.35243   6784246.80542  21858973.978    21858967.667
  23542711.721    -4321937.58343  -3360251.37342  23542714.264    23542710.442
  20551427.774     1883738.29643   1473637.56742  20551429.981    20551423.489
  23776104.551    -4526094.37543  -3520962.93342  23776107.405    23776105.253
  21518568.889     2768412.79443   2148336.56242  21518570.336    21518564.786
  23731581.487     4832935.31243   3752151.77142  23731582.774    23731579.361
 03  6  8 15 54 30.0000000  0  8G21G17G30G29G 6G26G10G 5
  21911834.964      700386.72043    553308.46842  21911836.812    21911829.913
  21180841.860     2103009.02743   1642154.64042  21180843.228    21180837.700
  21874935.327     8801581.74443   6849615.85842  21874937.805    21874931.581
  23531146.962    -4382711.08643  -3407607.29242  23531149.456    23531145.625
  20544926.466     1849573.66943   1447015.77742  20544928.664    20544922.189
  23758280.637    -4619757.58443  -3593946.95442  23758283.635    23758281.638
  21531287.213     2835248.08643   2200415.96442  21531288.655    21531283.151
  23751752.205     4938932.32843   3834746.70042  23751753.521    23751750.078
 03  6  8 15 55  0.0000000  0  8G21G17G30G29G 6G26G10G 5
  21901243.147      644726.30743    509936.72542  21901244.982    21901238.081
  21174841.358     2071476.14043   1617583.55642  21174842.734    21174837.216
  21890964.532     8885815.19543   6915252.24342  21890966.991    21890960.796
  23519639.295    -4443184.74543  -3454729.57642  23519641.783    23519637.765
  20538487.884     1815738.72744   1420650.87642  20538490.089    20538483.637
  23740476.529    -4713319.59743  -3666852.28042  23740479.417    23740477.225
  21544092.021     2902537.58343   2252849.29042  21544093.436    21544087.956
  23771934.796     5044991.65043   3917390.14142  23771936.024    23771932.663
 03  6  8 15 55 30.0000000  0  8G21G17G30G29G 6G26G10G 5
  21890691.397      589276.16843    466728.83042  21890693.177    21890686.258
  21168885.113     2040175.83243   1593193.69642  21168886.463    21168880.950
  21907059.269     8970393.20043   6981157.10742  21907061.741    21907055.558
  23508189.938    -4503351.25143  -3501612.53642  23508192.512    23508188.297
  20532113.174     1782239.34944   1394547.45642  20532115.368    20532108.939
  23722692.887    -4806772.87943  -3739672.86742  23722695.876    23722693.485
  21556983.601     2970282.89943   2305637.80542  21556985.018    21556979.494
  23792129.481     5151114.65343   4000083.22642  23792130.794    23792127.323
 03  6  8 15 56  0.0000000  0  8G21G17G30G29G 6G26G10G 5
  21880178.492      534030.35443    423680.13942  21880180.314    21880173.303
  21162971.936     2009101.95443   1568980.27742  21162973.283    21162967.808
  21923217.853     9055306.91943   7047323.56342  21923220.321    21923214.179
  23496798.394    -4563213.94843  -3548258.72142  23496800.963    23496796.806
  20525801.489     1749071.08544   1368702.04442  20525803.654    20525797.227
  23704929.502    -4900119.69443  -3812410.48842  23704932.444    23704930.064
  21569960.229     3038475.28843   2358774.67742  21569961.640    21569956.124
  23812334.677     5257292.79443   4082819.30742  23812336.084    23812332.480
 03  6  8 15 56 30.0000000  0  8G21G17G30G29G 6G26G10G 5
  21869705.468      478994.49643    380795.06042  21869707.314    21869700.280
  21157102.830     1978259.31443   1544947.04142  21157104.155    21157098.664
  21939440.842     9140559.11043   7113753.77642  21939443.329    21939437.197
  23485466.103    -4622764.64743  -3594661.82042  23485468.674    23485464.570
  20519554.159     1716241.09144   1343120.22542  20519556.324    20519549.902
  23687187.929    -4993351.34043  -3885058.36942  23687190.844    23687188.469
  21583022.459     3107117.72243   2412262.24042  21583023.885    21583018.374
  23832550.943     5363528.90543   4165600.52442  23832552.261    23832548.638
 03  6  8 15 57  0.0000000  0  8G21G17G30G29G 6G26G10G 5
  21859271.789      424165.12843    338070.87942  21859273.605    21859266.588
  21151277.102     1947644.95643   1521091.68542  21151278.451    21151272.945
  21955727.093     9226143.84543   7180443.09442  21955729.601    21955723.531
  23474193.356    -4682003.24643  -3640821.69542  23474195.998    23474191.884
  20513370.947     1683748.13944   1317801.03142  20513373.118    20513366.708
  23669468.336    -5086467.08843  -3957615.89942  23669471.226    23669469.053
  21596169.281     3176204.50443   2466096.04542  21596170.663    21596165.219
  23852777.070     5469817.40243   4248422.57442  23852778.468    23852774.819
 03  6  8 15 57 30.0000000  0  8G21G17G30G29G 6G26G10G 5
  21848878.363      369547.12543    295511.39542  21848880.163    21848873.130
  21145495.646     1917263.06843   1497417.47542  21145496.986    21145491.485
  21972077.005     9312062.98743   7247392.97742  21972079.507    21972073.497
  23462981.429    -4740922.47343  -3686732.77142  23462984.034    23462979.665
  20507253.092     1651598.56944   1292749.40842  20507255.269    20507248.870
  23651772.514    -5179458.74343  -4030076.78142  23651775.457    23651773.106
  21609401.049     3245737.78243   2520277.76942  21609402.440    21609397.007
  23873013.533     5576160.13643   4331286.89842  23873014.924    23873011.430
 03  6  8 15 58  0.0000000  0  8G21G17G30G29G 6G26G10G 5
  21838522.800      315128.08743    253106.95342  21838524.631    21838517.531
  21139756.041     1887101.17543   1473914.68742  21139757.378    21139751.894
  21988487.674     9398301.28343   7314591.57142  21988490.174    21988484.174
  23451828.409    -4799531.82743  -3732402.34142  23451831.014    23451826.608
  20501198.574     1619781.71343   1267957.03942  20501200.762    20501194.347
  23634098.674    -5272335.32343  -4102447.97042  23634101.600    23634099.234
  21622714.973     3315702.59943   2574795.75742  21622716.351    21622710.920
  23893257.473     5682542.18243   4414181.83642  23893258.765    23893255.426
 03  6  8 15 58 30.0000000  0  9G21G17G30G29G 6G26G10G 5G18
  21828206.715      260916.85143    210864.43642  21828208.548    21828201.494
  21134059.805     1857167.38143   1450589.64542  21134061.164    21134055.689
  22004960.240     9484864.68543   7382043.50042  22004962.716    22004956.703
  23440736.573    -4857819.86643  -3777821.55442  23440739.155    23440734.793
  20495209.333     1588307.94144   1243432.01342  20495211.498    20495205.093
  23616449.074    -5365084.50243  -4174719.86442  23616451.992    23616449.574
  21636112.155     3386105.07843   2629654.78042  21636113.569    21636108.130
  23913510.069     5788969.63343   4497112.16942  23913511.453    23913508.058
  24341115.934    -1756172.93353  -1362328.56152  24341117.425    24341113.039
 03  6  8 15 59  0.0000000  0  9G21G17G30G29G 6G26G10G 5G18
  21817930.368      206914.32143    168784.54442  21817932.224    21817925.153
  21128407.192     1827462.49543   1427442.97142  21128408.528    21128403.052
  22021494.266     9571751.28243   7449747.26342  22021496.764    22021490.735
  23429706.639    -4915782.87343  -3822987.47242  23429709.146    23429704.706
  20489285.921     1557180.07444   1219176.51842  20489288.098    20489281.665
  23598824.504    -5457701.68343  -4246888.96342  23598827.451    23598824.936
  21649592.303     3456943.52743   2684853.52242  21649593.710    21649588.280
  23933770.978     5895440.94743   4580076.64742  23933772.296    23933768.992
  24320277.432    -1865677.97043  -1447657.06742  24320279.456    24320274.758
 03  6  8 15 59 30.0000000  0  9G21G17G30G29G 6G26G10G 5G18
  21807693.716      153120.67743    126867.42742  21807695.625    21807688.551
  21122798.055     1797986.24643   1404474.45642  21122799.412    21122793.906
  22038089.318     9658958.50243   7517700.86142  22038091.815    22038085.830
  23418739.106    -4973417.68343  -3867897.65942  23418741.604    23418737.163
  20483428.682     1526399.98944   1195192.02642  20483430.854    20483424.441
  23581225.780    -5550183.08643  -4318952.34842  23581228.525    23581225.845
  21663154.894     3528215.46543   2740390.04342  21663156.339    21663150.928
  23954039.979     6001953.62143   4663073.32442  23954041.123    23954037.949
  24299458.700    -1975080.70943  -1532905.86242  24299460.728    24299456.230
 03  6  8 16  0  0.0000000  0  9G21G17G30G29G 6G26G10G 5G18
  21797496.866       99535.64743     85112.86242  21797498.729    21797491.685
  21117232.315     1768738.09743   1381683.67542  21117233.668    21117228.191
  22054744.805     9746483.37143   7585901.97742  22054747.313    22054741.347
  23407834.696    -5030721.50343  -3912549.99142  23407837.169    23407832.419
  20477637.934     1495969.23844   1171479.74342  20477640.087    20477633.667
  23563653.386    -5642525.43743  -4390907.23142  23563656.140    23563653.581
  21676799.539     3599918.23243   2796262.27742  21676800.957    21676795.575
  23974316.080     6108505.02343   4746100.21542  23974317.417    23974314.057
  24278659.737    -2084379.17243  -1618073.39542  24278661.741    24278657.439
 03  6  8 16  0 30.0000000  0  9G21G17G30G29G 6G26G10G 5G18
  21787339.008       46155.87843     43518.25042  21787340.876    21787333.866
  21111709.368     1739714.51143   1359067.88142  21111710.661    21111705.194
  22071459.493     9834319.49943   7654345.63442  22071462.031    22071456.076
  23396992.942    -5087695.33943  -3956945.12342  23396995.396    23396990.605
  20471913.300     1465886.03144   1148038.27242  20471915.468    20471909.042
  23546107.733    -5734728.46343  -4462753.59842  23546110.453    23546107.868
  21690524.971     3672045.62643   2852465.38742  21690526.390    21690521.055
  23994598.429     6215088.96143   4829152.47442  23994599.687    23994596.573
  24257880.413    -2193574.49143  -1703160.58342  24257882.445    24257878.170
 03  6  8 16  1  0.0000000  0  9G21G17G30G29G 6G26G10G 5G18
  21777221.031       -7014.52543      2086.78042  21777222.860    21777215.855
  21106229.874     1710919.49643   1336630.19342  21106231.183    21106225.699
  22088233.662     9922468.03243   7723032.71242  22088236.176    22088230.238
  23386215.237    -5144332.28943  -4001077.77042  23386217.761    23386213.001
  20466255.888     1436156.13744   1124872.10842  20466258.051    20466251.642
  23528589.988    -5826784.51643  -4534485.48242  23528592.794    23528589.945
  21704331.503     3744599.09743   2909000.50742  21704332.931    21704327.559
  24014887.276     6321707.10243   4912231.35442  24014888.558    24014885.552
  24237121.966    -2302660.13043  -1788162.29642  24237124.120    24237119.875
 03  6  8 16  1 30.0000000  0  9G21G17G30G29G 6G26G10G 5G18
  21767142.681      -59976.56743    -39182.32942  21767144.529    21767137.524
  21100793.533     1682351.19243   1314369.16342  21100794.845    21100789.363
  22105066.595    10010925.23843   7791960.32142  22105069.109    22105063.155
  23375501.842    -5200630.66143  -4044946.55942  23375504.402    23375499.893
  20460665.834     1406780.22144   1101981.77442  20460668.021    20460661.612
  23511100.612    -5918691.37743  -4606101.08742  23511103.325    23511100.659
  21718218.375     3817574.98643   2965864.78342  21718219.834    21718214.442
  24035181.937     6428355.71243   4995333.97542  24035183.296    24035180.311
  24216384.619    -2411635.22943  -1873077.86642  24216386.783    24216382.588
 03  6  8 16  2  0.0000000  0  9G21G17G30G29G 6G26G10G 5G18
  21757103.586     -112732.42943    -80290.78242  21757105.438    21757098.447
  21095399.894     1654007.23843   1292282.95442  21095401.175    21095395.709
  22121957.339    10099686.29643   7861124.70242  22121959.860    22121953.936
  23364853.402    -5256589.65343  -4088550.94742  23364855.881    23364851.258
  20455143.102     1377758.02344   1079367.06242  20455145.292    20455138.882
  23493639.900    -6010447.18843  -4677598.94542  23493642.686    23493639.996
  21732184.737     3890968.71843   3023054.65542  21732186.222    21732180.870
  24055481.610     6535030.12443   5078456.68342  24055482.883    24055479.979
  24195668.404    -2520499.47143  -1957907.06742  24195670.575    24195666.390
 03  6  8 16  2 30.0000000  0  9G21G17G30G29G 6G26G10G 5G18
  21747103.742     -165282.05043   -121238.52942  21747105.566    21747098.601
  21090048.909     1625887.53943   1270371.48842  21090050.195    21090044.729
  22138905.377    10188748.26043   7930523.55442  22138907.872    22138901.981
  23354269.857    -5312206.28043  -4131888.54642  23354272.329    23354267.642
  20449688.010     1349091.35044   1057029.38142  20449690.192    20449683.805
  23476208.643    -6102048.31843  -4748976.33142  23476211.388    23476208.631
  21746230.213     3964777.76643   3080568.13942  21746231.635    21746226.332
  24075785.682     6641727.91843   5161597.62942  24075786.992    24075784.067
  24174973.676    -2629250.58943  -2042648.11842  24174975.857    24174971.683
 03  6  8 16  3  0.0000000  0  9G21G17G30G29G 6G26G10G 5G18
  21737143.475     -217623.35443   -162023.94642  21737145.310    21737138.396
  21084740.916     1597993.73843   1248636.04642  21084742.195    21084736.728
  22155910.513    10278110.32243   8000156.24842  22155913.004    22155907.110
  23343752.148    -5367476.08943  -4174955.89442  23343754.611    23343749.828
  20444301.293     1320783.77144   1034971.51342  20444303.467    20444297.078
  23458808.043    -6193489.22043  -4820228.94642  23458810.585    23458807.698
  21760354.586     4039001.28543   3138404.59542  21760355.963    21760350.639
  24096094.046     6748448.56843   5244756.38742  24096095.393    24096092.465
  24154301.289    -2737884.54343  -2127297.88542  24154303.460    24154299.232
 03  6  8 16  3 30.0000000  0  9G21G17G30G29G 6G26G10G 5G18
  21727222.323     -269759.25343   -202649.30942  21727224.173    21727217.244
  21079475.334     1570322.84343   1227074.29842  21079476.610    21079471.141
  22172971.529    10367766.57143   8070018.17142  22172974.049    22172968.191
  23333300.658    -5422399.20343  -4217753.09242  23333303.144    23333298.396
  20438982.610     1292833.89744   1013192.37842  20438984.793    20438978.414
  23441437.913    -6284769.33543  -4891356.20142  23441440.577    23441437.620
  21774556.709     4113633.67543   3196559.64842  21774558.090    21774552.768
  24116405.726     6855186.39243   5327928.54242  24116407.056    24116404.122
  24133650.951    -2846401.91543  -2211856.81242  24133653.196    24133649.018
 03  6  8 16  4  0.0000000  0  9G21G17G30G29G 6G26G10G 5G18
  21717340.873     -321686.55243   -243112.13042  21717342.720    21717335.814
  21074252.612     1542877.29643   1205688.14542  21074253.918    21074248.437
  22190088.660    10457717.30443   8140109.56442  22190091.162    22190085.333
  23322916.071    -5476969.95643  -4260275.70842  23322918.518    23322913.786
  20433732.908     1265246.50244    991695.69242  20433735.094    20433728.726
  23424099.593    -6375881.87043  -4962352.86142  23424102.218    23424099.507
  21788836.695     4188675.48243   3255033.73342  21788838.109    21788832.819
  24136720.845     6961941.99043   5411114.53942  24136722.097    24136719.180
  24113023.972    -2954797.50343  -2296320.83042  24113026.178    24113021.941
 03  6  8 16  4 30.0000000  0  9G21G17G30G29G 6G26G10G 5G18
  21707498.772     -373407.12243   -283413.86642  21707500.605    21707493.724
  21069072.525     1515655.66843   1184476.47642  21069073.825    21069068.352
  22207260.965    10547957.93543   8210426.85242  22207263.455    22207257.627
  23312598.867    -5531187.12743  -4302522.79942  23312601.349    23312596.744
  20428552.229     1238021.60844    970481.47742  20428554.402    20428548.010
  23406793.425    -6466824.93443  -5033217.46442  23406796.139    23406793.449
  21803193.827     4264122.47743   3313823.53942  21803195.190    21803189.954
  24157038.407     7068711.29543   5494311.20742  24157039.812    24157036.862
  24092420.220    -3063070.63243  -2380689.43442  24092422.377    24092418.193
 03  6  8 16  5  0.0000000  0  9G21G17G30G29G 6G26G10G 5G18
  21697695.248     -424924.95243   -323557.61642  21697697.079    21697690.207
  21063934.160     1488653.40143   1163435.73342  21063935.448    21063929.995
  22224487.090    10638481.64343   8280964.72342  22224489.586    22224483.808
  23302348.695    -5585052.18443  -4344495.56142  23302351.173    23302346.449
  20423440.086     1211157.00344    949548.00442  20423442.246    20423435.869
  23389519.795    -6557598.84343  -5103950.34242  23389522.414    23389519.498
  21817626.784     4339967.84143   3372923.76842  21817628.133    21817622.891
  24177357.470     7175487.63843   5577513.35942  24177358.781    24177355.908
  24071839.441    -3171223.15043  -2464964.06042  24071841.604    24071837.369
 03  6  8 16  5 30.0000000  0  9G21G17G30G29G 6G26G10G 5G18
  21687931.949     -476231.36343   -363536.62742  21687933.791    21687926.885
  21058839.057     1461878.47643   1142572.14042  21058840.363    21058834.910
  22241768.215    10729293.91843   8351727.44242  22241770.630    22241764.902
  23292167.466    -5638553.86343  -4386185.09942  23292169.979    23292165.545
  20418398.420     1184662.79544    928903.15042  20418400.589    20418394.206
  23372280.667    -6648191.53543  -5174541.95042  23372283.192    23372280.319
  21832136.557     4416217.04943   3432338.68242  21832137.923    21832132.681
  24197678.982     7282276.98843   5660725.64242  24197680.229    24197677.424
  24051283.535    -3279244.57243  -2549136.52742  24051285.672    24051281.519
 03  6  8 16  6  0.0000000  0  9G21G17G30G29G 6G26G10G 5G18
  21678207.612     -527332.98943   -403356.05642  21678209.439    21678202.526
  21053785.935     1435324.03343   1121880.35042  21053787.226    21053781.769
  22259102.395    10820385.36643   8422707.70742  22259104.796    22259099.107
  23282054.838    -5691696.12243  -4427594.63242  23282057.330    23282052.805
  20413426.276     1158533.90344    908542.95842  20413428.438    20413422.056
  23355075.079    -6738606.16043  -5244994.76242  23355077.682    23355074.994
  21846721.446     4492860.90443   3492061.10842  21846722.824    21846717.575
  24218001.236     7389070.12543   5743940.88142  24218002.511    24217999.769
  24030751.741    -3387139.11843  -2633210.13042  24030753.996    24030749.769
 03  6  8 16  6 30.0000000  0  9G21G17G30G29G 6G26G10G 5G18
  21668522.697     -578227.52943   -443014.12242  21668524.512    21668517.607
  21048775.235     1408992.55143   1101362.30242  21048776.539    21048771.080
  22276489.599    10911755.53443   8493905.16442  22276492.002    22276486.386
  23272011.575    -5744473.69743  -4468719.96742  23272014.094    23272009.663
  20408524.450     1132774.55944    888470.72742  20408526.616    20408520.230
  23337904.715    -6828836.46043  -5315303.98942  23337907.278    23337904.681
  21861381.396     4569899.46443   3552091.09742  21861382.819    21861377.590
  24238324.208     7495867.18743   5827159.17142  24238325.542    24238322.842
  24010245.116    -3494902.11443  -2717181.22042  24010247.311    24010243.088
 03  6  8 16  7  0.0000000  0  9G21G17G30G29G 6G26G10G 5G18
  21658876.813     -628917.01443   -482512.41542  21658878.604    21658871.697
  21043806.456     1382881.34643   1081015.89542  21043807.779    21043802.301
  22293928.946    11003399.40243   8565315.88642  22293931.386    22293925.691
  23262037.710    -5796886.21743  -4509560.83342  23262040.248    23262035.852
  20403692.898     1107384.39344    868686.16842  20403695.045    20403688.649
  23320769.807    -6918880.94043  -5385468.46342  23320772.228    23320769.607
  21876115.579     4647327.75143   3612424.76442  21876117.006    21876111.739
  24258647.047     7602663.39843   5910376.79642  24258648.332    24258645.665
  23989763.634    -3602533.39843  -2801049.68042  23989765.833    23989761.437
 03  6  8 16  7 30.0000000  0 10G21G17G30G29G 6G16G26G10G 5G18
  21649266.893     -679417.80143   -521863.67142  21649268.679    21649261.708
  21038876.517     1356974.40643   1060828.65742  21038877.871    21038872.408
  22311416.841    11095298.42243   8636925.43242  22311419.295    22311413.560
  23252130.957    -5848946.72643  -4550127.42642  23252133.498    23252129.095
  20398928.879     1082349.23544    849178.24042  20398931.049    20398924.631
  24743755.148    -4199732.22753  -3239726.42552  24743756.910    24743751.916
  23303667.964    -7008751.77043  -5455497.60542  23303670.359    23303667.606
  21890920.430     4725127.60143   3673047.97042  21890921.879    21890916.602
  24278966.222     7709440.40243   5993579.45142  24278967.530    24278964.845
  23969304.453    -3710046.74843  -2884826.25042  23969306.648    23969302.282
 03  6  8 16  8  0.0000000  0 10G21G17G30G29G 6G16G26G10G 5G18
  21639699.585     -729694.01143   -561039.92842  21639701.443    21639694.472
  21033992.127     1331306.68343   1040827.82742  21033993.464    21033988.037
  22328959.334    11187484.46143   8708758.62142  22328961.789    22328956.046
  23242298.204    -5900617.79043  -4590390.55642  23242300.802    23242296.317
  20394239.376     1057705.64744    829975.43342  20394241.534    20394235.147
  24727934.206    -4282872.54243  -3304511.10042  24727935.879    24727930.869
  23286606.455    -7098410.41543  -5525361.36742  23286608.854    23286606.168
  21905802.152     4803331.09043   3733985.69842  21905803.558    21905798.285
  24299287.968     7816230.73943   6076792.49242  24299289.265    24299286.569
  23948874.844    -3817404.83043  -2968481.83242  23948877.066    23948872.653
 03  6  8 16  8 30.0000000  0 10G21G17G30G29G 6G16G26G10G 5G18
  21630171.456     -779764.56043   -600055.93642  21630173.316    21630166.357
  21029149.663     1305859.31643   1020998.69642  21029151.016    21029145.578
  22346552.450    11279936.68843   8780799.23142  22346554.916    22346549.190
  23232536.782    -5951914.74143  -4630362.16442  23232539.371    23232534.808
  20389621.250     1033437.17544    811064.92142  20389623.410    20389617.013
  24712177.026    -4365677.69443  -3369034.62842  24712178.612    24712173.658
  23269582.639    -7187871.19943  -5595071.00542  23269585.123    23269582.174
  21920756.616     4881917.31943   3795221.65942  21920758.058    21920752.810
  24319608.179     7923013.82443   6159999.90142  24319609.582    24319606.889
  23928471.747    -3924623.66343  -3052028.93242  23928473.879    23928469.411
 03  6  8 16  9  0.0000000  0 10G21G17G30G29G 6G16G26G10G 5G18
  21620683.247     -829625.77943   -638908.87242  21620685.034    21620678.086
  21024349.714     1280635.16143   1001343.45642  21024351.009    21024345.591
  22364196.266    11372655.19943   8853047.25842  22364198.722    22364193.045
  23222847.504    -6002831.99243  -4670038.00442  23222850.094    23222845.373
  20385075.434     1009548.61644    792450.40742  20385077.588    20385071.193
  24696484.707    -4448142.35543  -3433292.86642  24696486.066    24696481.209
  23252597.663    -7277127.59143  -5664621.50242  23252600.280    23252596.952
  21935784.016     4960886.62043   3856756.05942  21935785.457    21935780.210
  24339927.215     8029790.05543   6243201.85442  24339928.614    24339925.942
  23908096.205    -4031698.03043  -3135463.55342  23908098.298    23908093.681
 03  6  8 16  9 30.0000000  0 10G21G17G30G29G 6G16G26G10G 5G18
  21611233.724     -879283.64843   -677603.39042  21611235.442    21611228.529
  21019591.010     1255627.69843    981857.03842  21019592.264    21019586.848
  22381889.074    11465630.67743   8925495.47642  22381891.449    22381885.812
  23213229.952    -6053373.22743  -4709420.89142  23213232.395    23213227.676
  20380601.037      986035.34144    774128.29542  20380603.172    20380596.796
  24680856.464    -4530270.14143  -3497288.79142  24680857.821    24680852.657
  23235651.058    -7366182.32743  -5734014.87742  23235653.662    23235650.378
  21950882.707     5040230.05143   3918581.95342  21950884.086    21950878.841
  24360243.378     8136550.70243   6326391.57842  24360244.651    24360241.885
  23887747.478    -4138631.94843  -3218788.81642  23887749.506    23887744.731
 03  6  8 16 10  0.0000000  0 10G21G17G30G29G 6G16G26G10G 5G18
  21601823.718     -928733.63643   -716135.87342  21601825.460    21601818.523
  21014874.433     1230841.58343    962543.13942  21014875.655    21014870.263
  22399631.195    11558865.54143   8998145.88442  22399633.541    22399627.972
  23203685.321    -6103530.56543  -4748504.55042  23203687.765    23203683.217
  20376199.336      962904.03444    756103.85742  20376201.461    20376195.101
  24665293.596    -4612053.28843  -3561016.05042  24665294.916    24665289.756
  23218744.837    -7455026.23243  -5803243.89742  23218747.394    23218744.075
  21966052.956     5119949.99143   3980701.28542  21966054.358    21966049.178
  24380556.963     8243298.60643   6409571.39342  24380558.405    24380555.575
  23867426.839    -4245418.02043  -3301998.79542  23867428.898    23867424.142
 03  6  8 16 10 30.0000000  0 10G21G17G30G29G 6G16G26G10G 5G18
  21592452.566     -977979.24843   -754509.03642  21592454.347    21592447.404
  21010199.131     1206272.83143    943398.67142  21010200.412    21010195.001
  22417421.290    11652353.00043   9070993.18742  22417423.701    22417418.186
  23194213.379    -6153305.30643  -4787289.99042  23194215.890    23194211.319
  20371869.834      940152.37944    738375.30542  20371871.986    20371865.639
  24649795.948    -4693493.13543  -3624475.46042  24649797.575    24649792.492
  23201878.343    -7543659.76643  -5872308.84042  23201880.956    23201877.605
  21981293.672     5200040.17843   4043109.20142  21981295.071    21981289.924
  24400866.619                     6492736.70742  24400866.094
  23847133.860    -4352057.81443  -3385094.64642  23847136.008    23847131.426
 03  6  8 16 11  0.0000000  0  9G21G17G30G29G 6G16G26G10G18
  21583121.011    -1027016.80543   -792720.11142  21583122.835    21583115.859
  21005566.007     1181925.39143    924426.62742  21005567.296    21005561.863
  22435259.693    11746094.31243   9144038.26642  22435262.177    22435256.654
  23184815.690    -6202690.59443  -4825771.97942  23184818.257    23184813.764
  20367613.773      917786.35344    720947.22442  20367615.895    20367609.567
  24634365.125    -4774583.20643  -3687662.45942  24634366.588    24634361.703
  23185053.325    -7632074.98343  -5941203.74342  23185056.024    23185052.584
  21996605.108     5280501.87443   4105806.57542  21996606.483    21996601.358
  23826869.932    -4458545.20943  -3468071.80142  23826872.123    23826867.624
 03  6  8 16 11 30.0000000  0 10G21G17G30G29G 6G16G26G10G 5G18
  21573827.996    -1075851.77843   -830773.32242  21573829.860    21573822.874
  21000973.760     1157793.07943    905622.21842  21000975.109    21000969.658
  22453144.772    11840080.51943   9217274.18042  22453147.269    22453141.766
  23175491.408    -6251690.09243  -4863953.37742  23175493.954    23175489.339
  20363430.170      895801.37944    703816.06742  20363432.316    20363425.965
  24619000.214    -4855327.11443  -3750579.73942  24619001.756    24618996.640
  23168269.446    -7720274.54343  -6009930.58642  23168272.121    23168268.726
  22011985.511     5361326.42843   4168786.68242  22011986.930    22011981.842
  24441475.890
  23806634.267    -4564883.85243  -3550933.04142  23806636.515    23806631.951
 03  6  8 16 12  0.0000000  0  9G21G17G30G29G 6G16G26G10G18
  21564574.854    -1124477.24443   -868663.29442  21564576.752    21564569.764
  20996423.826     1133882.97643    886990.96242  20996425.212    20996419.723
  22471077.308    11934316.27943   9290704.55642  22471079.816    22471074.347
  23166242.357    -6300293.74643  -4901826.30442  23166244.955    23166240.320
  20359320.816      874206.65144    686988.99642  20359323.010    20359316.653
  24603702.882    -4935714.63743  -3813219.31642  24603704.560    24603699.349
  23151528.806    -7808246.84543  -6078480.32042  23151531.480    23151528.107
  22027435.914     5442518.66943   4232053.31042  22027437.331    22027432.269
  23786428.844    -4671063.95643  -3633670.74942  23786431.106    23786426.483
 03  6  8 16 12 30.0000000  0  9G21G17G30G29G 6G16G26G10G18
  21555360.439    -1172899.53443   -906394.94242  21555362.314    21555355.297
  20991914.788     1110187.89743    868527.26042  20991916.189    20991910.741
  22489055.437    12028791.45143   9364321.48342  22489057.924    22489052.461
  23157067.944    -6348506.24943  -4939394.47042  23157070.494    23157065.743
  20355284.692      852996.65044    670461.71142  20355286.913    20355280.550
  24588472.319    -5015750.72143  -3875585.06242  24588474.390    24588469.083
  23134830.728    -7895995.74143  -6146856.01342  23134833.369    23134829.943
  22042954.414     5524068.61343   4295598.67542  22042955.811    22042950.807
  23766252.674    -4777090.72743  -3716288.97842  23766254.840    23766250.183
 03  6  8 16 13  0.0000000  0  9G21G17G30G29G 6G16G26G10G18
  21546185.986    -1221111.73743   -943962.88642  21546187.872    21546180.786
  20987447.956     1086714.71243    850236.45842  20987449.375    20987443.946
  22507079.915    12123510.40943   9438128.39342  22507082.440    22507076.957
  23147969.700    -6396317.67943  -4976650.08042  23147972.306    23147967.602
  20351323.460      832180.13444    654241.04142  20351325.674    20351319.308
  24573310.641    -5095425.64343  -3937669.36242  24573312.751    24573307.320
  23118177.257    -7983510.20543  -6215049.00642  23118179.928    23118176.554
  22058541.760     5605980.76443   4359426.27742  22058543.213    22058538.233
  23746107.342    -4882954.70243  -3798780.33242  23746109.561    23746104.894
 03  6  8 16 13 30.0000000  0  9G21G17G30G29G 6G16G26G10G18
  21537049.455    -1269124.44243   -981375.37542  21537051.360    21537044.242
  20983021.368     1063452.53943    832110.08142  20983022.747    20983017.309
  22525148.266    12218459.92343   9512114.93642  22525150.798    22525145.341
  23138946.308    -6443735.90643  -5013599.33242  23138948.925    23138944.111
  20347435.418      811748.41144    638320.20642  20347437.657    20347431.284
  24558216.018    -5174747.24343  -3999478.36342  24558218.179    24558212.899
  23101566.974    -8070796.97543  -6283064.55942  23101569.782    23101566.348
  22074195.572     5688242.06743   4423525.93442  22074197.022    22074192.091
  23725991.498    -4988664.02943  -3881151.19342  23725993.659    23725989.072
 03  6  8 16 14  0.0000000  0 10G21G17G30G29G 6G16G26G15G10G18
  21527952.448    -1316929.37943  -1018625.96942  21527954.352    21527947.243
  20978636.401     1040409.37943    814154.36542  20978637.790    20978632.346
  22543261.460    12313645.08043   9586285.09842  22543264.010    22543258.585
  23129999.634    -6490750.62343  -5050234.13642  23130002.228    23129997.450
  20343622.398      791710.92844    622706.57842  20343624.654    20343618.308
  24543190.763    -5253705.07943  -4061003.88742  24543192.743    24543187.566
  23085002.342    -8157844.46343  -6350893.69542  23085005.170    23085001.706
  24480020.217     -546490.83553   -414774.48152  24480022.103    24480019.111
  22089916.888     5770857.78743   4487901.77142  22089918.330    22089913.433
  23705906.957    -5094208.67143  -3963393.72642  23705909.139    23705904.530
 03  6  8 16 14 30.0000000  0 10G21G17G30G29G 6G16G26G15G10G18
  21518894.394    -1364529.85443  -1055717.24442  21518896.296    21518889.186
  20974292.452     1017581.67243    796366.53442  20974293.826    20974288.385
  22561418.353    12409059.61143   9660633.98442  22561420.844    22561415.453
  23121129.681    -6537362.42843  -5086554.99442  23121132.273    23121127.411
  20339884.138      772066.02344    607398.84942  20339886.379    20339880.010
  24528234.627    -5332299.96643  -4122246.60442  24528236.455    24528231.439
  23068483.379    -8244652.23443  -6418536.05342  23068486.198    23068482.521
  24464352.193     -628825.77143   -478931.55242  24464354.343    24464351.304
  22105704.500     5853821.99143   4552549.15142  22105705.967    22105701.052
  23685853.576    -5199589.62943  -4045508.67942  23685855.802    23685851.207
 03  6  8 16 15  0.0000000  0 10G21G17G30G29G 6G16G26G15G10G18
  21509875.937    -1411921.97943  -1092646.16542  21509877.841    21509870.761
  20969990.206      994973.32343    778749.63142  20969991.619    20969986.167
  22579619.050    12504704.74443   9735162.56742  22579621.564    22579616.252
  23112337.593    -6583564.87843  -5122556.86442  23112340.217    23112335.427
  20336221.606      752819.34544    592401.42642  20336223.856    20336217.507
  24513348.691    -5410525.10443  -4183201.14942  24513350.621    24513345.811
  23052011.350    -8331212.53143  -6485985.51542  23052014.245    23052010.768
  24448701.802     -711069.48443   -543017.49342  24448703.837    24448700.799
  22121558.654     5937135.90643   4617469.03742  22121560.135    22121555.207
  23665832.549    -5304800.55943  -4127491.14242  23665834.747    23665830.276
 03  6  8 16 15 30.0000000  0 10G21G17G30G29G 6G16G26G15G10G18
  21500895.954    -1459112.00643  -1129417.60942  21500897.865    21500890.787
  20965728.448      972577.43343    761298.28142  20965729.843    20965724.394
  22597861.883    12600570.96743   9809863.41742  22597864.415    22597859.073
  23103622.630    -6629361.90643  -5158242.80242  23103625.174    23103620.587
  20332633.945      733966.04344    577710.52642  20332636.206    20332629.861
  24498532.424    -5488384.90643  -4243871.07142  24498534.316    24498529.712
  23035586.056    -8417528.16843  -6553244.35842  23035588.848    23035585.324
  24433067.573     -793227.77843   -607036.90742  24433069.355    24433066.580
  22137477.655     6020790.44043   4682654.33242  22137479.133    22137474.158
  23645843.019    -5409845.83443  -4209344.53342  23645845.271    23645840.730
 03  6  8 16 16  0.0000000  0 10G21G17G30G29G 6G16G26G15G10G18
  21491955.907    -1506092.39743  -1166025.70142  21491957.791    21491950.737
  20961508.411      950400.98643    744017.92442  20961509.783    20961504.378
  22616147.588    12696662.76743   9884740.04442  22616150.122    22616144.826
  23094986.678    -6674743.99743  -5193605.46342  23094989.266    23094984.501
  20329122.830      715514.91844    563333.01042  20329125.073    20329118.753
  24483787.492    -5565869.50143  -4304248.63142  24483789.421    24483784.946
  23019209.110    -8503588.33843  -6620304.14642  23019211.886    23019208.374
  24417451.054     -875293.05443   -670983.83442  24417452.819    24417450.176
  22153462.337     6104790.44543   4748108.82742  22153463.854    22153458.847
  23625886.674    -5514716.18643  -4291061.59242  23625888.995    23625884.511
 03  6  8 16 16 30.0000000  0 10G21G17G30G29G 6G16G26G15G10G18
  21483054.603    -1552869.07543  -1202475.05642  21483056.493    21483049.428
  20957329.011      928438.02443    726903.91842  20957330.396    20957324.956
  22634474.626    12792971.72743   9959785.88742  22634477.134    22634471.863
  23086429.151    -6719714.11343  -5228647.08742  23086431.745    23086426.850
  20325687.476      697461.95244    549265.75142  20325689.736    20325683.395
  24469113.364    -5642982.17743  -4364336.34442  24469115.471    24469110.879
  23002880.871    -8589394.76543  -6687166.21142  23002883.667    23002879.996
  24401851.288     -957270.64843   -734862.44642  24401852.998    24401850.375
  22169511.180     6189127.36143   4813825.86242  22169512.663    22169507.692
  23605963.047    -5619414.91343  -4372644.91342  23605965.299    23605961.004
 03  6  8 16 17  0.0000000  0 10G21G17G30G29G 6G16G26G15G10G18
  21474192.596    -1599439.22043  -1238763.47242  21474194.495    21474187.423
  20953190.799      906691.61343    709958.65642  20953192.209    20953186.780
  22652842.985    12889497.66443  10035000.81042  22652845.494    22652840.255
  23077950.934    -6764267.01443  -5263363.58542  23077953.533    23077948.832
  20322328.738      679811.59344    535512.21142  20322330.991    20322324.646
  24454511.128    -5719717.58543  -4424130.10942  24454513.230    24454508.572
  22986601.568    -8674941.20543  -6753825.62042  22986604.524    22986601.007
  24386268.661    -1039157.99943   -798670.71542  24386270.301    24386267.636
  22185624.134     6273801.16543   4879805.39742  22185625.581    22185620.631
  23586073.051    -5723937.01243  -4454090.61442  23586075.348    23586071.059
 03  6  8 16 17 30.0000000  0 10G21G17G30G29G 6G16G26G15G10G18
  21465369.178    -1645806.70343  -1274893.97342  21465371.074    21465363.974
  20949092.972      885157.31043    693178.67142  20949094.363    20949088.936
  22671251.334    12986233.56143  10110379.33442  22671253.862    22671248.574
  23069551.881    -6808404.46943  -5297756.37142  23069554.474    23069549.656
  20319046.129      662561.45344    522070.52942  20319048.399    20319042.057
  24439980.285    -5796077.61143  -4483631.42742  24439982.475    24439977.741
  22970372.075    -8760228.00243  -6820282.84342  22970374.993    22970371.073
  24370702.411    -1120958.55243   -862411.39442  24370704.079    24370701.474
  22201799.892     6358805.16143   4946042.23242  22201801.357    22201796.408
  23566216.366    -5828284.41143  -4535400.18542  23566218.645    23566214.360
 03  6  8 16 18  0.0000000  0 10G21G17G30G29G 6G16G26G15G10G18
  21456584.958    -1691968.06943  -1310863.86742  21456586.855    21456579.734
  20945036.180      863838.57743    676566.66042  20945037.584    20945032.138
  22689699.832    13083180.64043  10185922.41242  22689702.365    22689697.129
  23061233.100    -6852119.90243  -5331820.32942  23061235.706    23061230.857
  20315840.760      645717.01444    508944.97442  20315843.022    20315836.695
  24425522.290    -5872055.42743  -4542834.94442  24425524.474    24425519.459
  22954193.309    -8845247.24843  -6886531.48242  22954196.142    22954192.559
  24355153.801    -1202667.89043   -926080.97242  24355155.386    24355152.708
  22218038.782     6444140.94843   5012537.58842  22218040.259    22218035.335
  23546394.216    -5932450.78543  -4616568.73642  23546396.454    23546392.125
 03  6  8 16 18 30.0000000  0 10G21G17G30G29G 6G16G26G15G10G18
  21447839.457    -1737925.93943  -1346675.18942  21447841.359    21447834.239
  20941019.593      842731.32343    660119.44042  20941020.993    20941015.563
  22708187.237    13180332.10843  10261624.75742  22708189.769    22708184.542
  23052994.444    -6895414.61643  -5365556.45542  23052996.986    23052992.077
  20312712.165      629275.95644    496133.74442  20312714.409    20312708.091
  24411136.849    -5947652.49843  -4601741.74742  24411138.927    24411133.780
  22938065.383    -8929999.25943  -6952571.89442  22938068.188    22938064.698
  24339621.796    -1284289.85943   -989682.46042  24339623.166    24339620.470
  22234339.460     6529801.52743   5079286.05442  22234340.956    22234336.039
  23526606.147    -6036437.74543  -4697597.48042  23526608.448    23526603.990
 03  6  8 16 19  0.0000000  0 10G21G17G30G29G 6G16G26G15G10G18
  21439133.703    -1783675.03643  -1382323.83042  21439135.587    21439128.497
  20937044.434      821841.53543    643841.67942  20937045.813    20937040.380
  22726714.097    13277690.94743  10337488.69642  22726716.607    22726711.396
  23044837.263    -6938280.82043  -5398958.66342  23044839.817    23044834.876
  20309661.722      613245.71444    483642.63142  20309663.991    20309657.654
  24396825.210    -6022860.90143  -4660345.68742  24396827.377    24396822.059
  22921990.402    -9014474.43843  -7018396.65042  22921993.103    22921989.404
  24324107.403    -1365818.32743  -1053211.07042  24324108.671    24324106.130
  22250702.659     6615790.33443   5146290.27442  22250704.104    22250699.213
  23506853.693    -6140237.43243  -4778480.29242  23506856.023    23506851.514
 03  6  8 16 19 30.0000000  0 10G21G17G30G29G 6G16G26G15G10G18
  21430466.154    -1829223.28743  -1417815.96542  21430468.044    21430460.972
  20933108.921      801160.35543    627726.46742  20933110.337    20933104.880
  22745278.222    13375245.93443  10413505.47142  22745280.754    22745275.614
  23036760.562    -6980724.17143  -5432031.38442  23036763.147    23036758.231
  20306688.143      597619.42644    471466.28242  20306690.416    20306684.085
  24382586.266    -6097686.72843  -4718651.53542  24382588.466    24382582.947
  22905967.009    -9098677.55243  -7084009.35742  22905969.846    22905965.984
  24308609.282    -1447261.32343  -1116673.02842  24308610.567    24308608.189
  22267126.189     6702096.32643   5213541.64542  22267127.641    22267122.733
  23487135.759    -6243856.03643  -4859221.99842  23487138.065    23487133.477
 03  6  8 16 20  0.0000000  0 10G21G17G30G29G 6G16G26G15G10G18
  21421838.596    -1874561.42843  -1453144.37642  21421840.464    21421833.438
  20929214.977      780697.36743    611781.27742  20929216.349    20929210.915
  22763881.051    13473003.90043  10489680.40642  22763883.515    22763878.468
  23028766.403    -7022732.90743  -5464765.42542  23028769.092    23028764.198
  20303793.600      582408.32344    459613.46042  20303795.849    20303789.531
  24368422.506    -6172117.51943  -4776649.49642  24368424.841    24368419.299
  22889998.128    -9182595.07843  -7149399.58542  22890000.990    22889996.927
  24293129.238    -1528608.69043  -1180060.53942  24293130.606    24293128.224
  22283611.367     6788726.50443   5281045.63942  22283612.839    22283607.945
  23467454.515    -6347281.52343  -4939813.23942  23467456.810    23467452.133
 03  6  8 16 20 30.0000000  0 10G21G17G30G29G 6G16G26G15G10G18
  21413249.062    -1919699.60643  -1488316.97442  21413250.923    21413243.933
  20925360.652      760442.59043    595998.32842  20925362.006    20925356.574
  22782519.991    13570951.86743  10566003.39042  22782522.486    22782517.452
  23020853.688    -7064314.47943  -5497166.63242  23020856.384    23020851.359
  20300976.395      567603.74644    448077.41342  20300978.647    20300972.316
  24354332.434    -6246161.13843  -4834345.88442  24354334.769    24354329.129
  22874082.007    -9266233.58643  -7214572.32242  22874084.917    22874080.991
  24277665.638    -1609870.38943  -1243381.28142  24277667.033    24277664.431
  22300155.861     6875668.16043   5348792.33442  22300157.367    22300152.466
  23447808.548    -6450522.00443  -5020260.33542  23447810.766    23447805.961
 03  6  8 16 21  0.0000000  0 10G21G17G30G29G 6G16G26G15G10G18
  21404699.479    -1964628.10443  -1523326.18842  21404701.300    21404694.328
  20921547.646      740405.17343    580384.74742  20921548.990    20921543.590
  22801196.341    13669096.34843  10642479.50042  22801198.804    22801193.813
  23013024.582    -7105457.25543  -5529225.91742  23013027.215    23013022.248
  20298238.634      553216.62144    436866.65142  20298240.894    20298234.565
  24340318.607    -6319805.65243  -4891731.24642  24340320.691    24340314.922
  22858221.661    -9349579.97143  -7279517.49242  22858224.575    22858220.720
  24262219.946    -1691037.16343  -1306628.10242  24262221.537    24262218.735
  22316760.897     6962927.82343   5416786.83342  22316762.392    22316757.450
  23428199.964    -6553565.96043  -5100554.29342  23428202.155    23428197.299
 03  6  8 16 21 30.0000000  0 10G21G17G30G29G 6G16G26G15G10G18
  21396188.257    -2009354.82243  -1558178.17142  21396190.099    21396183.102
  20917774.315      720576.26143    564933.64742  20917775.674    20917770.284
  22819907.968    13767426.39043  10719100.20642  22819910.420    22819905.498
  23005277.788    -7146167.01543  -5560947.79942  23005280.372    23005275.460
  20295579.077      539240.39244    425976.07742  20295581.328    20295575.001
  24326379.293    -6393056.69943  -4948809.94842  24326381.517    24326375.989
  22842416.008    -9432638.76843  -7344238.55142  22842418.876    22842415.071
  24246791.010    -1772116.72843  -1369806.95042  24246792.716    24246789.771
  22333424.333     7050494.71543   5485020.74042  22333425.822    22333420.935
  23408627.567    -6656419.29543  -5180699.68942  23408629.743    23408624.952
 03  6  8 16 22  0.0000000  0 10G21G17G30G29G 6G16G26G15G10G18
  21387716.229    -2053875.57743  -1592869.66242  21387718.079    21387711.089
  20914041.521      700960.33543    549648.50542  20914042.894    20914037.500
  22838655.194    13865943.08243  10795866.35942  22838657.593    22838652.617
  22997614.647    -7186437.35643  -5592327.26442  22997617.211    22997612.273
  20292998.757      525680.75344    415410.11342  20293001.036    20292994.700
  24312516.251    -6465907.99443  -5005577.24042  24312518.349    24312512.761
  22826666.604    -9515402.07443  -7408729.35642  22826669.441    22826665.645
  24231379.283    -1853104.50543  -1432914.25042  24231381.121    24231378.324
  22350146.528     7138370.47143   5553495.30842  22350148.009    22350143.182
  23389092.610    -6759075.68843  -5260691.63542  23389094.896    23389090.008
 03  6  8 16 22 30.0000000  0 10G21G17G30G29G 6G16G26G15G10G18
  21379282.659    -2098194.44043  -1627403.83642  21379284.511    21379277.495
  20910348.405      681552.90043    534525.81942  20910349.798    20910344.374
  22857436.520    13964639.63743  10872772.68542  22857438.986    22857433.968
  22990034.575    -7226270.11843  -5623365.77742  22990037.180    22990032.165
  20290497.222      512535.15844    405166.77642  20290499.517    20290493.180
  24298728.603    -6538361.36143  -5062034.34842  24298730.736    24298725.462
  22810973.450    -9597870.16643  -7472990.15142  22810976.234    22810972.390
  24215984.515    -1934004.28643  -1495953.03142  24215986.365    24215983.396
  22366926.275     7226548.29743   5622205.25442  22366927.707    22366922.894
  23369594.786    -6861537.05043  -5340531.59842  23369597.110    23369592.260
 03  6  8 16 23  0.0000000  0 10G21G17G30G29G 6G16G26G15G10G18
  21370888.828    -2142304.27843  -1661775.13542  21370890.666    21370883.680
  20906696.262      662360.75543    519570.89242  20906697.681    20906692.220
  22876252.895    14063520.28343  10949822.45342  22876255.427    22876250.424
  22982539.814    -7265655.63643  -5654055.78142  22982542.395    22982537.495
  20288076.163      499812.27044    395252.82042  20288078.444    20288072.119
  24285018.801    -6610407.16443  -5118173.89642  24285020.958    24285015.763
  22795338.476    -9680032.21843  -7537012.45342  22795341.267    22795337.408
  24200607.820    -2014808.43543  -1558917.20442  24200609.787    24200606.898
  22383764.347     7315032.61543   5691154.01942  22383765.798    22383760.965
  23350135.955    -6963794.00543  -5420212.29342  23350138.162    23350133.339
 03  6  8 16 23 30.0000000  0 10G21G17G30G29G 6G16G26G15G10G18
  21362533.438    -2186212.16743  -1695989.07342  21362535.274    21362528.277
  20903083.716      643376.54043    504777.98642  20903085.100    20903079.641
  22895102.448    14162575.02143  11027007.87842  22895104.977    22895100.009
  22975129.037    -7304599.27643  -5684401.48142  22975131.598    22975126.721
  20285734.401      487506.09444    385663.57342  20285736.675    20285730.359
  24271385.445    -6682050.52043  -5173999.91342  24271387.677    24271382.338
  22779761.096    -9761892.02143  -7600799.24242  22779763.870    22779759.949
  24185248.190    -2095524.14543  -1621812.58442  24185250.208    24185247.101
  22400658.809     7403813.53943   5760333.90942  22400660.280    22400655.448
  23330714.928    -7065851.83143  -5499737.82342  23330717.122    23330712.302
 03  6  8 16 24  0.0000000  0 10G21G17G30G29G 6G16G26G15G10G18
  21354216.922    -2229915.57543  -1730043.67442  21354218.776    21354211.773
  20899511.219      624602.82043    490149.10542  20899512.611    20899507.162
  22913985.091    14261803.32743  11104328.53042  22913987.606    22913982.567
  22967803.328    -7343096.14043  -5714399.01542  22967805.896    22967801.072
  20283472.701      475620.70744    376402.21542  20283474.955    20283468.660
  24257829.915    -6753286.36643  -5229508.37642  24257832.039    24257826.598
  22764242.324    -9843443.38343  -7664345.70942  22764245.114    22764241.144
  24169905.814    -2176148.69643  -1684636.84942  24169907.804    24169904.889
  22417609.715     7492891.03043   5829744.88942  22417611.233    22417606.401
  23311332.759    -7167705.80243  -5579104.51742  23311334.914    23311330.025
 03  6  8 16 24 30.0000000  0 10G21G17G30G29G 6G16G26G15G10G18
  21345939.434    -2273413.98143  -1763938.53542  21345941.298    21345934.295
  20895978.764      606039.50243    475684.17642  20895980.120    20895974.683
  22932900.227    14361202.71843  11181782.50542  22932902.699    22932897.712
  22960563.107    -7381143.65743  -5744046.40842  22960565.632    22960560.913
  20281291.409      464157.93244    367470.16442  20281293.664    20281287.390
  24244352.216    -6824112.06043  -5284697.21142  24244354.410    24244348.980
  22748782.910    -9924682.30243  -7727648.66242  22748785.647    22748781.856
  24154580.902    -2256681.53043  -1747389.68142  24154582.884    24154579.992
  22434616.531     7582262.51543   5899384.95442  22434618.148    22434613.283
  23291989.789    -7269353.50643  -5658310.46142  23291991.969    23291987.090
 03  6  8 16 25  0.0000000  0 10G21G17G30G29G 6G16G26G15G10G18
  21337701.035    -2316707.00543  -1797673.35942  21337702.903    21337695.889
  20892486.471      587687.14043    461383.63142  20892487.774    20892482.364
  22951847.516    14460770.96943  11259368.05042  22951850.026    22951845.041
  22953409.015    -7418738.96143  -5773341.47742  22953411.524    22953406.556
  20279190.937      453119.81344    358869.01642  20279193.193    20279186.946
  24230953.269    -6894524.82043  -5339564.35242  24230955.280    24230949.746
  22733384.098   -10005604.35243  -7790704.76142  22733386.829    22733382.868
  24139273.515    -2337121.86943  -1810070.39442  24139275.579    24139272.757
  22451679.025     7671926.23043   5969252.72942  22451680.626    22451675.779
  23272686.644    -7370791.95543  -5737353.34942  23272688.826    23272683.918
 03  6  8 16 25 30.0000000  0 10G21G17G30G29G 6G16G26G15G10G18
  21329501.066    -2359798.02443  -1831250.77542  21329502.929    21329495.918
  20889033.553      569541.97143    447244.53442  20889034.855    20889029.476
  22970825.722    14560501.38243  11337079.95542  22970828.223    22970823.245
  22946340.534    -7455883.63243  -5802285.34142  22946343.118    22946338.318
  20277170.826      442504.02544    350596.95742  20277173.096    20277166.847
  24217632.400    -6964526.01643  -5394110.71342  24217634.422    24217628.583
  22718045.043   -10086209.76643  -7853514.08542  22718047.887    22718044.070
  24123983.217    -2417472.99043  -1872681.65942  24123985.309    24123982.369
  22468795.843     7761875.63643   6039343.11542  22468797.412    22468792.627
  23253422.921    -7472023.01343  -5816234.62242  23253425.100    23253420.314
 03  6  8 16 26  0.0000000  0 10G21G17G30G29G 6G16G26G15G10G18
  21321340.690    -2402681.02443  -1864666.10042  21321342.572    21321335.560
  20885621.201      551609.85943    433271.45342  20885622.485    20885617.120
  22989835.410    14660397.14143  11414920.70842  22989837.903    22989832.908
  22939359.429    -7492569.68243  -5830871.88042  22939362.001    22939356.996
  20275232.493      432317.92244    342659.71542  20275234.749    20275228.506
  24204391.238    -7034107.58943  -5448330.11642  24204393.483    24204387.550
  22702768.486   -10166488.96143  -7916069.23142  22702771.332    22702767.497
  24108710.970    -2497729.00343  -1935218.77842  24108713.121    24108710.048
  22485967.700     7852113.74143   6109658.48042  22485969.208    22485964.427
  23234200.261    -7573038.64943  -5894948.03942  23234202.421    23234197.635
 03  6  8 16 26 30.0000000  0 10G21G17G30G29G 6G16G26G15G10G18
  21313218.499    -2445363.42943  -1897925.11742  21313220.396    21313213.365
  20882247.918      533883.20543    419458.47242  20882249.213    20882243.852
  23008874.557    14760447.95543  11492882.29242  23008877.079    23008872.069
  22932464.601    -7528802.17343  -5859104.98842  22932467.173    22932462.228
  20273374.830      422555.65644    335052.74342  20273377.075    20273370.838
  24191229.063    -7103274.63343  -5502226.49642  24191231.405    24191225.761
  22687553.021   -10246445.56943  -7978372.99242  22687555.855    22687552.108
  24093455.513    -2577896.79943  -1997687.12942  24093457.577    24093454.527
  22503192.536     7942630.84543   6180191.22742  22503194.040    22503189.394
  23215017.544    -7673843.96043  -5973497.55142  23215019.655    23215014.972
 03  6  8 16 27  0.0000000  0 10G21G17G30G29G 6G16G26G15G10G18
  21305135.532    -2487839.76243  -1931023.55642  21305137.449    21305130.383
  20878914.713      516367.22143    405809.64542  20878916.023    20878910.667
  23027943.676    14860656.34843  11570966.66342  23027946.220    23027941.245
  22925657.471    -7564573.80543  -5886978.97542  22925660.002    22925655.233
  20271599.036      413223.91044    327781.23842  20271601.311    20271595.089
  24178147.535    -7172019.22643  -5555793.69942  24178149.802    24178144.192
  22672401.119   -10326070.58043  -8040418.41142  22672403.884    22672399.919
  24078217.994    -2657970.81043  -2060082.41842  24078219.861    24078216.946
  22520470.942     8033429.47943   6250943.35842  22520472.460    22520467.861
  23195876.197    -7774431.52143  -6051877.38142  23195878.288    23195873.763
 03  6  8 16 27 30.0000000  0 10G21G17G30G29G 6G16G26G15G10G18
  21297091.239    -2530112.80143  -1963963.58742  21297093.184    21297086.127
  20875620.941      499058.36543    392322.21642  20875622.266    20875616.937
  23047041.687    14961016.66443  11649169.40742  23047044.248    23047039.317
  22918937.892    -7599885.18243  -5914494.30742  22918940.454    22918935.718
  20269904.920      404321.30444    320844.12442  20269907.222    20269900.965
  24165146.163    -7240342.07143  -5609032.26142  24165148.356    24165142.873
  22657311.973   -10405363.32543  -8102204.84942  22657314.848    22657311.014
  24062997.763    -2737953.53243  -2122406.58842  24062999.689    24062996.611
  22537802.000     8124504.53343   6321910.86642  22537803.485    22537798.900
  23176776.183    -7874802.00743  -6130088.06942  23176778.332    23176773.830
 03  6  8 16 28  0.0000000  0 10G21G17G30G29G 6G16G26G15G10G18
  21289085.945    -2572181.02543  -1996744.02242  21289087.845    21289080.828
  20872366.746      481957.56043    378996.90342  20872368.075    20872362.790
  23066168.257    15061527.03043  11727489.07242  23066170.820    23066165.902
  22912306.636    -7634732.99643  -5941648.43242  22912309.235    22912304.461
  20268292.937      395850.15044    314243.20542  20268295.222    20268288.973
  24152225.502    -7308239.94343  -5661939.68142  24152227.855    24152222.399
  22642287.361   -10484318.83243  -8163728.62542  22642290.113    22642286.030
  24047795.276    -2817843.78443  -2184658.71942  24047797.048    24047793.922
  22555185.283     8215853.97543   6393092.19942  22555186.803    22555182.133
  23157718.278    -7974952.17343  -6208127.10342  23157720.409    23157715.846
 03  6  8 16 28 30.0000000  0 10G21G17G30G29G 6G16G26G15G10G18
  21281119.369    -2614045.67943  -2029365.82942  21281121.289    21281114.257
  20869152.051      465064.06443    365833.12742  20869153.363    20869148.044
  23085322.562    15162183.63343  11805922.66842  23085325.165    23085320.306
  22905763.881    -7669116.19843  -5968440.56942  22905766.436    22905761.325
  20266763.183      387811.03944    307978.93942  20266765.447    20266759.182
  24139385.866    -7375711.62643  -5714514.99942  24139388.133    24139383.005
  22627327.038   -10562934.75543  -8224987.65442  22627329.855    22627325.918
  24032610.040    -2897642.25043  -2246839.27042  24032611.856    24032608.803
  22572620.184     8307474.49143   6464484.75842  22572621.710    22572616.991
  23138702.410    -8074881.00643  -6285993.67542  23138704.597    23138699.953
 03  6  8 16 29  0.0000000  0 10G21G17G30G29G 6G16G26G15G10G18
  21273191.717    -2655705.77343  -2061828.23942  21273193.629    21273186.601
  20865976.975      448378.89043    352831.68042  20865978.326    20865972.970
  23104504.434    15262984.54243  11884468.70542  23104506.977    23104502.190
  22899309.719    -7703031.97443  -5994868.40842  22899312.375    22899307.409
  20265316.043      380206.09044    302052.98542  20265318.261    20265312.035
  24126628.249    -7442754.16743  -5766755.95942  24126630.338    24126625.277
  22612432.629   -10641206.51243  -8285978.61742  22612435.391    22612431.049
  24017442.662    -2977347.94543  -2308947.57342  24017444.453    24017441.292
  22590106.296     8399364.16043   6536087.03642  22590107.847    22590103.119
  23119729.229    -8174585.74343  -6363685.61542  23119731.415    23119726.748
 03  6  8 16 29 30.0000000  0 10G21G17G30G29G 6G16G26G15G10G18
  21265302.892    -2697161.88143  -2094131.69842  21265304.812    21265297.731
  20862841.377      431901.20943    339991.92042  20862842.731    20862837.389
  23123713.060    15363926.15243  11963124.38542  23123715.616    23123710.881
  22892944.957    -7736478.99943  -6020930.99742  22892947.589    22892942.605
  20263951.661      373036.08644    296465.95042  20263953.885    20263947.638
  24113952.564    -7509365.87043  -5818661.14942  24113954.610    24113949.399
  22597603.771   -10719131.18643  -8346699.03442  22597606.588    22597602.465
  24002292.795    -3056961.23243  -2370983.81042  24002294.523    24002291.389
  22607642.973     8491519.76943   6607896.54642  22607644.539    22607639.813
  23100799.034    -8274064.77143  -6441201.67642  23100801.214    23100796.446
 03  6  8 16 30  0.0000000  0 10G21G17G30G29G 6G16G26G15G10G18
  21257452.658    -2738415.07043  -2126277.03942  21257454.553    21257447.517
  20859745.010      415629.63443    327312.76042  20859746.361    20859741.035
  23142947.640    15465004.40243  12041886.53542  23142950.228    23142945.578
  22886669.649    -7769456.23143  -6046627.51942  22886672.276    22886667.408
  20262670.020      366301.09944    291217.89542  20262672.274    20262666.030
  24101359.021    -7575545.73243  -5870229.85042  24101361.042    24101355.772
  22582841.694   -10796706.46443  -8407147.24642  22582844.457    22582840.385
  23987160.421    -3136482.97543  -2432948.79742  23987162.031    23987158.735
  22625229.487     8583937.18543   6679910.06542  22625231.001    22625226.328
  23081911.870    -8373317.30343  -6518541.23842  23081914.076    23081909.249
 03  6  8 16 30 30.0000000  0 10G21G17G30G29G 6G16G26G15G10G18
  21249641.831    -2779461.22643  -2158261.05742  21249643.733    21249636.689
  20856688.430      399567.07943    314796.47642  20856689.784    20856684.447
  23162208.544    15566220.55043  12120756.13442  23162211.114    23162206.493
  22880484.747    -7801958.03243  -6071953.58942  22880487.405    22880482.386
  20261472.200      360006.32044    286312.85842  20261474.436    20261468.202
  24088848.719    -7641287.91243  -5921457.50842  24088850.868    24088845.341
  22568147.484   -10873924.65143  -8467317.21042  22568150.267    22568146.062
  23972046.084    -3215909.01543  -2494839.14042  23972047.693    23972044.439
  22642866.081     8676617.96243   6752128.79942  22642867.602    22642862.952
  23063068.854    -8472337.50743  -6595699.77342  23063071.118    23063066.256
 03  6  8 16 31  0.0000000  0 10G21G17G30G29G 6G16G26G15G10G18
  21241869.010    -2820307.78843  -2190089.54542  21241870.908    21241863.853
  20853670.262      383706.62443    302437.67842  20853671.629    20853666.297
  23181493.739    15667564.33943  12199725.18742  23181496.219    23181491.722
  22874389.320    -7833989.51743  -6096913.17442  22874392.000    22874386.978
  20260356.980      354145.87244    281746.26442  20260359.254    20260353.011
  24076420.620    -7706597.32843  -5972347.89842  24076422.804    24076417.486
  22553520.584   -10950789.53543  -8527211.85542  22553523.412    22553519.195
  23956948.544    -3295246.29543  -2556660.35542  23956950.157    23956946.945
  22660550.899     8769552.23243   6824545.06242  22660552.459    22660547.807
  23044269.254    -8571130.20543  -6672681.02442  23044271.430    23044266.579
 03  6  8 16 31 30.0000000  0 10G21G17G30G29G 6G16G26G15G10G18
  21234135.717    -2860946.47743  -2221756.05142  21234137.624    21234130.546
  20850692.034      368055.99043    290242.37442  20850693.428    20850688.099
  23200804.089    15769040.54543  12278797.42742  23200806.575    23200802.142
  22868385.177    -7865540.98443  -6121498.69342  22868387.854    22868382.973
  20259326.123      348728.71644    277525.09242  20259328.412    20259322.193
  24064076.640    -7771464.33743  -6022893.56842  24064078.780    24064073.711
  22538962.972   -11027289.95043  -8586822.51342  22538965.769    22538961.607
  23941869.679    -3374487.16043  -2618406.42642  23941871.099    23941867.915
  22678284.894     8862744.84543   6897162.62442  22678286.491    22678281.859
  23025514.605    -8669685.99243  -6749477.67842  23025516.866    23025511.954
 03  6  8 16 32  0.0000000  0 10G21G17G30G29G 6G16G26G15G10G18
  21226441.208    -2901381.45943  -2253263.83042  21226443.099    21226436.012
  20847752.931      352610.94443    278207.26242  20847754.334    20847749.014
  23220138.376    15870642.55143  12357967.67942  23220140.848    23220136.478
  22862472.150    -7896614.52443  -6145711.82842  22862474.800    22862469.921
  20258379.162      343752.15144    273647.23742  20258381.422    20258375.194
  24051816.654    -7835890.68843  -6073095.88242  24051818.961    24051813.653
  22524474.584   -11103426.13643  -8646149.31342  22524477.419    22524473.403
  23926808.101    -3453635.12243  -2680080.10642  23926809.640    23926806.556
  22696066.899     8956189.25343   6969976.39542  22696068.474    22696063.787
  23006804.800    -8768006.50443  -6826091.01542  23006807.051    23006802.099
 03  6  8 16 32 30.0000000  0 10G21G17G30G29G 6G16G26G15G10G18
  21218785.600    -2941611.94043  -2284612.25242  21218787.498    21218780.401
  20844853.064      337371.89643    266332.67342  20844854.449    20844849.144
  23239496.036    15972367.88543  12437234.01042  23239498.525    23239494.239
  22856650.508    -7927207.64543  -6169550.58942  22856653.126    22856648.282
  20257516.364      339218.02744    270114.14542  20257518.642    20257512.399
  24039641.018    -7899873.60543  -6122952.72742  24039643.345    24039638.006
  22510056.475   -11179193.94643  -8705189.13142  22510059.272    22510055.137
  23911764.402    -3532689.41643  -2741680.78842  23911766.029    23911763.152
  22713896.268     9049883.33543   7042984.73342  22713897.859    22713893.218
  22988140.274    -8866089.23143  -6902519.05242  22988142.553    22988137.468
 03  6  8 16 33  0.0000000  0 10G21G17G30G29G 6G16G26G15G10G18
  21211168.063    -2981642.57043  -2315804.94642  21211169.927    21211162.846
  20841991.650      322334.92243    254615.54142  20841993.025    20841987.707
  23258876.075    16074209.79043  12516591.18142  23258878.480    23258874.209
  22850919.818    -7957322.38443  -6193016.59842  22850922.425    22850917.447
  20256737.191      335123.48244    266923.57742  20256739.476    20256733.241
  24027549.560    -7963415.08743  -6172465.56942  24027551.948    24027546.483
  22495708.301   -11254593.92643  -8763942.30342  22495711.167    22495706.844
  23896738.067    -3611653.83443  -2803211.43542  23896739.486    23896736.600
  22731772.027     9143820.86943   7116182.74942  22731773.583    22731768.990
  22969520.535    -8963936.44943  -6978763.58342  22969522.845    22969517.707
 03  6  8 16 33 30.0000000  0 10G21G17G30G29G 6G16G26G15G10G18
  21203589.840    -3021466.18043  -2346836.32842  21203591.741    21203584.680
  20839169.892      307506.31543    243060.77542  20839171.255    20839165.932
  23278278.962    16176172.22343  12596042.29842  23278281.413    23278277.163
  22845281.819    -7986950.24643  -6216103.22442  22845284.437    22845279.520
  20256043.224      331476.50844    264081.76742  20256045.495    20256039.261
  24015543.756    -8026506.22943  -6221627.48542  24015546.157    24015540.491
  22481432.098   -11329615.79343  -8822400.83742  22481434.997    22481430.567
  23881729.892    -3690521.46143  -2864666.65742  23881731.427    23881728.490
  22749694.840     9238005.84243   7189573.58842  22749696.332    22749691.832
  22950947.377    -9061539.00243  -7054817.46442  22950949.695    22950944.521
 03  6  8 16 34  0.0000000  0 10G21G17G30G29G 6G16G26G15G10G18
  21196049.739    -3061089.62643  -2377711.73442  21196051.617    21196044.605
  20836386.265      292878.32443    231662.33542  20836387.671    20836382.318
  23297702.765    16278244.29043  12675578.86842  23297705.224    23297700.943
  22839735.353    -8016097.23943  -6238815.15342  22839737.963    22839732.889
  20255433.171      328270.65344    261583.68342  20255435.450    20255429.236
  24003622.632    -8089152.93343  -6270443.06542  24003624.991    24003619.261
  22467226.995   -11404263.77443  -8880568.04342  22467229.892    22467225.481
  23866738.758    -3769299.78543  -2926052.29542  23866740.331    23866737.477
  22767662.816     9332427.76043   7263149.05442  22767664.259    22767659.765
  22932419.570    -9158902.91443  -7130685.39542  22932421.939    22932416.686
 03  6  8 16 34 30.0000000  0 10G21G17G30G29G 6G16G26G15G10G18
  21188549.076    -3100505.82543  -2408425.64942  21188550.978    21188543.953
  20833642.307      278458.67943    220426.24142  20833643.716    20833638.356
  23317148.506    16380431.48143  12755205.15842  23317150.944    23317146.595
  22834282.357    -8044753.08643  -6261144.37042  22834284.953    22834279.856
  20254908.871      325515.32744    259436.65842  20254911.143    20254904.935
  23991787.825    -8151344.92543  -6318904.30742  23991790.101    23991784.485
  22453095.320   -11478526.34643  -8938434.94742  22453098.119    22453093.754
  23851766.254    -3847980.33143  -2987361.75142  23851767.888    23851765.068
  22785676.873     9427092.10343   7336913.43242  22785678.341    22785673.823
  22913939.128    -9256017.89043  -7206359.33742  22913941.538    22913936.241
 03  6  8 16 35  0.0000000  0 10G21G17G30G29G 6G16G26G15G10G18
  21181086.879    -3139719.98043  -2438982.12842  21181088.792    21181081.714
  20830936.955      264242.00743    209348.31342  20830938.395    20830933.012
  23336614.509    16482725.26143  12834914.52742  23336616.999    23336612.541
  22828921.866    -8072922.10043  -6283094.21642  22828924.529    22828919.429
  20254469.418      323205.88644    257637.08042  20254471.654    20254465.473
  23980038.721    -8213085.83243  -6367014.05742  23980041.056    23980035.739
  22439036.383   -11552405.69543  -8996003.20042  22439039.172    22439034.884
  23836811.426    -3926568.74743  -3048599.43842  23836813.141    23836810.092
  22803735.432     9521990.41243   7410860.12442  22803736.959    22803732.474
  22895505.370    -9352887.74443  -7281842.27242  22895507.784    22895502.498
 03  6  8 16 35 30.0000000  0 10G21G17G30G29G 6G16G26G15G10G18
  21173663.573    -3178729.63843  -2469379.26142  21173665.498    21173658.420
  20828270.496      250229.49243    198429.46842  20828271.906    20828266.541
  23356100.503    16585124.29343  12914705.90442  23356103.031    23356098.479
  22823654.852    -8100600.58843  -6304661.87642  22823657.516    22823652.349
  20254115.400      321345.32844    256187.28142  20254117.637    20254111.445
  23968376.433    -8274372.21943  -6414769.66942  23968378.473    23968373.274
  22425051.645   -11625896.58343  -9053268.78042  22425054.383    22425050.033
  23821874.393    -4005063.24243  -3109763.91742  23821876.203    23821873.078
  22821838.315     9617121.81343   7484988.43742  22821839.838    22821835.423
  22877118.944    -9449508.57443  -7357131.16642  22877121.377    22877116.119
 03  6  8 16 36  0.0000000  0 10G21G17G30G29G 6G16G26G15G10G18
  21166279.105    -3217535.23343  -2499617.37742  21166281.016    21166273.967
  20825642.895      236421.45843    187669.95742  20825644.303    20825638.977
  23375605.976    16687625.95743  12994577.23442  23375608.527    23375604.038
  22818481.453    -8127786.73343  -6325845.87942  22818484.067    22818479.039
  20253846.959      319934.68344    255088.06242  20253849.224    20253843.028
  23956800.815    -8335201.85043  -6462169.34842  23956802.896    23956797.815
  22411141.338   -11698995.32143  -9110228.78542  22411144.076    22411139.808
  23806955.159    -4083463.72443  -3170855.12442  23806956.981    23806953.887
  22839985.123     9712483.71843   7559296.37042  22839986.627    22839982.240
  22858780.326    -9545878.55343  -7432224.59842  22858782.663    22858777.454
 03  6  8 16 36 30.0000000  0 10G21G17G30G29G 6G16G26G15G10G18
  21158933.564    -3256136.41743  -2529696.21442  21158935.462    21158928.418
  20823054.234      222817.89243    177069.77242  20823055.626    20823050.302
  23395130.627    16790227.91743  13074526.71342  23395133.144    23395128.687
  22813402.235    -8154478.32443  -6346644.50042  22813404.790    22813399.836
  20253664.516      318975.89944    254340.94342  20253666.791    20253660.606
  23945312.749    -8395572.32743  -6509211.27442  23945314.851    23945309.669
  22397306.282   -11771698.21543  -9166880.33042  22397309.075    22397304.910
  23792054.135    -4161768.92343  -3231872.12342  23792056.086    23792052.838
  22858175.412     9808074.26143   7633782.44042  22858176.917    22858172.530
  22840489.883    -9641995.27943  -7507120.69442  22840492.162    22840486.987
 03  6  8 16 37  0.0000000  0 10G21G17G30G29G 6G16G26G15G10G18
  21151626.233    -3294536.60143  -2559618.42842  21151628.143    21151621.099
  20820503.937      209415.95843    166626.70542  20820505.330    20820499.988
  23414673.243    16892924.49343  13154549.89442  23414675.784    23414671.369
  22808416.868    -8180676.31943  -6367058.51242  22808419.435    22808414.535
  20253567.725      318467.25944    253944.58542  20253569.981    20253563.831
  23933911.737    -8455484.42943  -6555896.02242  23933914.017    23933908.616
  22383546.939   -11844004.28143  -9223222.68842  22383549.709    22383545.478
  23777170.748    -4239981.43143  -3292816.87542  23777172.726    23777169.419
  22876408.169     9903887.84143   7708442.32342  22876409.667    22876405.350
  22822247.471    -9737859.51743  -7581820.04042  22822249.692    22822244.595
 03  6  8 16 37 30.0000000  0 10G21G17G30G29G 6G16G26G15G10G18
  21144357.833    -3332732.31943  -2589381.31542  21144359.727    21144352.711
  20817992.330      196217.32643    156342.05442  20817993.709    20817988.394
  23434233.698    16995714.56243  13234645.92142  23434236.115    23434231.789
  22803526.151    -8206377.39543  -6387085.32142  22803528.679    22803523.692
  20253557.144      318411.54444    253901.15642  20253559.390    20253553.260
  23922598.751    -8514934.28943  -6602220.58642  23922600.967    23922595.738
  22369864.067   -11915908.56043  -9279251.95842  22369866.817    22369862.459
  23762305.223    -4318099.36643  -3353687.91042  23762307.217    23762303.904
  22894683.158     9999923.57843   7783275.30842  22894684.690    22894680.389
  22804053.763    -9833467.58843  -7656319.76342  22804055.985    22804050.954
 03  6  8 16 38  0.0000000  0 10G21G17G30G29G 6G16G26G15G10G18
  21137128.426    -3370723.04943  -2618984.47842  21137130.305    21137123.307
  20815519.560      183222.80143    146216.44942  20815520.935    20815515.634
  23453811.526    17098596.32643  13314813.39042  23453813.953    23453809.755
  22798730.504    -8231578.74743  -6406722.72342  22798733.060    22798728.057
  20253633.167      318810.79844    254212.24942  20253635.382    20253629.252
  23911374.464    -8573919.17243  -6648182.83742  23911376.515    23911371.295
  22356258.368   -11987406.59443  -9334964.65942  22356261.133    22356256.841
  23747458.110    -4396121.73943  -3414484.50842  23747460.147    23747456.731
  22913000.270    10096180.26443   7858280.48342  22913001.770    22912997.468
  22785909.254    -9928816.66543  -7730617.66842  22785911.566    22785906.595
 03  6  8 16 38 30.0000000  0 10G21G17G30G29G 6G16G26G15G10G18
  21129937.568    -3408511.43143  -2648429.96042  21129939.424    21129932.418
  20813085.077      170429.49543    136247.63842  20813086.466    20813081.165
  23473405.792    17201564.31143  13395048.03442  23473408.264    23473404.105
  22794029.687    -8256281.45243  -6425971.57142  22794032.216    22794027.258
  20253795.460      319663.60744    254876.76342  20253797.664    20253791.550
  23900238.398    -8632440.07143  -6693783.57242  23900240.392    23900234.959
  22342730.165   -12058497.54943  -9390360.16142  22342732.869    22342728.641
  23732628.538    -4474051.20943  -3475208.70242  23732630.550    23732627.169
  22931358.354    10192652.29343   7933453.42242  22931359.848    22931355.520
  22767814.099   -10023907.38243  -7804714.26542  22767816.395    22767811.358
 03  6  8 16 39  0.0000000  0 10G21G17G30G29G 6G16G26G15G10G18
  21122785.449    -3446096.01643  -2677716.63942  21122787.325    21122780.315
  20810689.064      157838.45743    126436.44242  20810690.481    20810685.179
  23493016.164    17304616.92343  13475348.63642  23493018.610    23493014.477
  22789424.335    -8280482.66743  -6444829.64742  22789426.910    22789421.994
  20254044.516      320972.39144    255896.57842  20254046.744    20254040.622
  23889191.386    -8690493.55443  -6739020.07242  23889193.270    23889187.751
  22329280.344   -12129176.80243  -9445434.85842  22329283.068    22329278.711
  23717816.914    -4551886.05343  -3535859.12342  23717818.965    23717815.740
  22949757.123    10289338.46743   8008793.25042  22949758.668    22949754.353
  22749768.666   -10118736.57043  -7878607.07542  22749770.957    22749765.908
 03  6  8 16 39 30.0000000  0 10G21G17G30G29G 6G16G26G15G10G18
  21115672.267    -3483475.81543  -2706843.74542  21115674.169    21115667.176
  20808331.779      145450.79343    116783.72442  20808333.180    20808327.881
  23512642.250    17407752.25743  13555713.68942  23512644.692    23512640.621
  22784914.883    -8304179.75043  -6463294.90542  22784917.458    22784912.530
  20254380.754      322739.16944    257273.27342  20254382.974    20254376.851
  23878233.686    -8748076.76643  -6783890.15042  23878235.596    23878230.016
  22315909.607   -12199439.91043  -9500185.26142  22315912.337    22315908.112
  23703023.623    -4629625.19543  -3596435.04442  23703025.660    23703022.333
  22968196.375    10386236.96243   8084298.51442  22968197.932    22968193.583
  22731773.586   -10213301.28543  -7952293.79042  22731775.849    22731770.790
 03  6  8 16 40  0.0000000  0 10G21G17G30G29G 6G16G26G15G10G18
  21108597.845    -3520652.12543  -2735812.28942  21108599.749    21108592.770
  20806012.983      133265.49443    107288.68342  20806014.394    20806009.134
  23532283.381    17510966.81643  13636140.47042  23532285.856    23532281.859
  22780501.514    -8327371.92143  -6481366.71842  22780504.073    22780499.236
  20254804.167      324964.10844    259006.97942  20254806.377    20254800.265
  23867365.556    -8805188.64143  -6828392.94342  23867367.513    23867362.020
  22302618.628   -12269284.39243  -9554609.48542  22302621.273    22302617.081
  23688248.333    -4707269.35643  -3656936.91442  23688250.324    23688247.045
  22986675.426    10483344.52843   8159966.69042  22986676.974    22986672.632
  22713829.092   -10307600.32543  -8025773.50142  22713831.370    22713826.192
 03  6  8 16 40 30.0000000  0 10G21G17G30G29G 6G16G26G15G10G18
  21101561.470    -3557628.53743  -2764625.06842  21101563.375    21101556.403
  20803731.883      121278.36143     97948.05542  20803733.314    20803728.055
  23551938.380    17614253.64143  13716623.55042  23551940.774    23551936.833
  22776183.821    -8350061.65843  -6499047.03442  22776186.433    22776181.606
  20255314.169      327644.12644    261095.28942  20255316.365    20255310.272
  23856586.820    -8861831.55343  -6872530.27042  23856588.772    23856583.413
  22289407.286   -12338710.82043  -9608707.95342  22289409.866    22289405.610
  23673490.657    -4784822.10743  -3717367.57442  23673492.593    23673489.158
  23005192.898    10580654.58443   8235792.64342  23005194.474    23005190.218
  22695934.726   -10401636.07643  -8099048.05142  22695936.983    22695931.756
 03  6  8 16 41  0.0000000  0 10G21G17G30G29G 6G16G26G15G10G18
  21094564.241    -3594399.23243  -2793277.55042  21094566.126    21094559.139
  20801489.528      109494.57043     88765.87642  20801490.944    20801485.661
  23571607.517    17717615.05643  13797164.75942  23571609.893    23571605.970
  22771963.017    -8372242.25943  -6516330.60342  22771965.595    22771960.744
  20255911.953      330785.55444    263543.13642  20255914.147    20255908.090
  23845898.753    -8917998.38243  -6916296.68742  23845900.582    23845895.163
  22276277.055   -12407710.63443  -9662473.99442  22276279.648    22276275.316
  23658751.205    -4862277.99143  -3777722.75042  23658753.220    23658749.747
  23023749.461    10678169.71943   8311778.38742  23023751.020    23023746.770
  22678091.718   -10495401.32943  -8172111.82342  22678094.008    22678088.791
 03  6  8 16 41 30.0000000  0 10G21G17G30G29G 6G16G26G15G10G18
  21087606.514    -3630962.30043  -2821768.24542  21087608.387    21087601.413
  20799286.149       97915.67843     79743.36042  20799287.539    20799282.265
  23591290.584    17821049.79843  13877763.09342  23591292.903    23591289.077
  22767839.556    -8393910.84443  -6533215.20042  22767842.128    22767837.322
  20256598.046      334390.77644    266352.38142  20256600.226    20256594.165
  23835301.634    -8973686.00543  -6959689.65642  23835303.546    23835298.165
  22263228.943   -12476279.06843  -9715903.89642  22263231.580    22263227.165
  23644030.490    -4939635.48443  -3838001.24242  23644032.462    23644029.138
  23042344.851    10775888.76843   8387923.04842  23042346.411    23042342.134
  22660300.887   -10588892.67543  -8244962.15242  22660303.156    22660297.920
 03  6  8 16 42  0.0000000  0 10G21G17G30G29G 6G16G26G15G10G18
  21080686.785    -3667325.64043  -2850103.30842  21080688.656    21080681.677
  20797120.400       86534.63743     70875.01442  20797121.800    20797116.538
  23610985.787    17924548.03943  13958410.92342  23610988.071    23610984.280
  22763812.651    -8415072.65943  -6549704.92242  22763815.160    22763810.270
  20257371.248      338453.96844    269518.48642  20257373.453    20257367.359
  23824794.855    -9028899.40943  -7002713.11242  23824796.771    23824791.589
  22250262.058   -12544419.76843  -9769000.47842  22250264.680    22250260.341
  23629327.496    -5016901.34043  -3898208.34042  23629329.222    23629325.881
  23060977.324    10873802.25843   8464219.21242  23060978.793    23060974.554
  22642561.168   -10682115.39743  -8317603.17442  22642563.458    22642558.151
 03  6  8 16 42 30.0000000  0 10G21G17G30G29G 6G16G26G15G10G18
  21073806.411    -3703482.31043  -2878277.32842  21073808.256    21073801.294
  20794993.449       75357.41643     62165.49142  20794994.836    20794989.584
  23630693.640    18028113.18643  14039110.89142  23630695.943    23630692.180
  22759883.543    -8435720.19243  -6565793.89542  22759886.043    22759881.199
  20258232.977      342982.28944    273047.03442  20258235.163    20258229.085
  23814379.955    -9083630.57543  -7045360.81842  23814381.809    23814376.714
  22237378.471   -12612123.15143  -9821756.28842  22237381.144    22237376.868
  23614642.869    -5094069.18143  -3958339.05942  23614644.608    23614641.217
  23079647.361    10971913.88543   8540669.74742  23079648.867    23079644.616
  22624874.111   -10775061.26543  -8390028.45642  22624876.405    22624871.090
 03  6  8 16 43  0.0000000  0 10G21G17G30G29G 6G16G26G15G10G18
  21066964.309    -3739437.81643  -2906294.60042  21066966.141    21066959.198
  20792904.234       64378.46143     53610.45842  20792905.635    20792900.365
  23650412.665    18131737.13343  14119856.67842  23650415.058    23650411.250
  22756051.676    -8455857.02043  -6581484.91542  22756054.139    22756049.270
  20259182.399      347971.40844    276934.64442  20259184.589    20259178.485
  23804056.111    -9137882.95443  -7087635.42742  23804057.994    23804052.810
  22224577.701   -12679391.08043  -9874172.79842  22224580.415    22224576.114
  23599975.945    -5171144.05943  -4018397.30942  23599977.571    23599974.339
  23098353.642    11070215.78143   8617268.56442  23098355.083    23098350.881
  22607239.099   -10867733.73843  -8462240.70542  22607241.377    22607236.038
 03  6  8 16 43 30.0000000  0 10G21G17G30G29G 6G16G26G15G10G18
  21060161.341    -3775187.57343  -2934151.54842  21060163.171    21060156.235
  20790853.532       53601.99243     45213.20942  20790854.941    20790849.652
  23670143.395    18235421.89243  14200649.84642  23670145.672    23670141.896
  22752317.967    -8475477.22743  -6596773.36542  22752320.512    22752315.622
  20260220.577      353426.90544    281185.66042  20260222.769    20260216.658
  23793824.369    -9191650.38543  -7129532.16842  23793826.432    23793821.301
  22211861.441   -12746215.75843  -9926243.93142  22211864.116    22211859.603
  23585327.588    -5248121.18243  -4078379.43142  23585329.235    23585325.860
  23117096.582    11168710.10143   8694017.32042  23117098.032    23117093.791
  22589657.235   -10960126.39043  -8534234.90542  22589659.530    22589654.246
 03  6  8 16 44  0.0000000  0 10G21G17G30G29G 6G16G26G15G10G18
  21053396.874    -3810734.79143  -2961850.67142  21053398.720    21053391.819
  20788840.747       43024.50843     36971.00642  20788842.122    20788836.823
  23689884.371    18339160.91043  14281485.30342  23689886.682    23689882.910
  22748682.250    -8494583.16243  -6611661.09142  22748684.751    22748679.885
  20261346.940      359346.04044    285797.95742  20261349.150    20261343.059
  23783684.930    -9244934.87743  -7171052.56442  23783686.819    23783681.646
  22199229.288   -12812597.56643  -9977969.94042  22199232.003    22199227.568
  23570697.334    -5325003.86643  -4138287.96742  23570698.965    23570695.528
  23135874.812    11267390.64443   8770911.16842  23135876.364    23135872.080
  22572128.316   -11052241.06043  -8606012.49942  22572130.606    22572125.343
 03  6  8 16 44 30.0000000  0 10G21G17G30G29G 6G16G26G15G10G18
  21046671.096    -3846079.12843  -2989391.70842  21046672.901    21046666.005
  20786865.903       32646.58243     28884.30142  20786867.265    20786861.995
  23709635.106    18442951.72943  14362361.13942  23709637.487    23709633.807
  22745144.903    -8513172.79343  -6626146.51342  22745147.392    22745142.379
  20262561.821      365730.14644    290772.57142  20262564.014    20262557.933
  23773637.522    -9297734.14443  -7212194.89942  23773639.432    23773634.254
  22186682.227   -12878532.88043 -10029348.06342  22186684.934    22186680.326
  23556085.011    -5401791.71643  -4198122.58842  23556086.648    23556083.341
  23154688.208    11366255.24743   8847948.45242  23154689.676    23154685.503
  22554652.669   -11144075.43643  -8677571.67742  22554654.999    22554649.747
 03  6  8 16 45  0.0000000  0 10G21G17G30G29G 6G16G26G15G10G18
  21039984.354    -3881218.31743  -3016772.89342  21039986.150    21039979.229
  20784929.315       22469.60443     20954.18042  20784930.671    20784925.374
  23729395.595    18546793.10143  14443276.37742  23729397.955    23729394.302
  22741706.052    -8531243.47243  -6640227.53242  22741708.679    22741703.715
  20263865.633      372581.65644    296111.39742  20263867.827    20263861.744
  23763683.329    -9350045.08143  -7252956.74742  23763685.180    23763679.781
  22174220.930   -12944016.78143 -10080374.40342  22174223.680    22174219.164
  23541491.329    -5478482.91943  -4257881.90742  23541492.884    23541489.395
  23173536.377    11465302.71243   8925128.20342  23173537.800    23173533.681
  22537231.121   -11235626.19843  -8748909.86842  22537233.365    22537228.121
 03  6  8 16 45 30.0000000  0 10G21G17G30G29G 6G16G26G15G10G18
  21033336.748    -3916151.84943  -3043993.82642  21033338.546    21033331.586
  20783031.275       12495.22243     13181.93042  20783032.638    20783027.326
  23749165.365    18650683.84043  14524230.09342  23749167.827    23749164.161
  22738366.529    -8548792.14243  -6653901.79042  22738369.131    22738364.226
  20265258.868      379903.07444    301816.38442  20265261.055    20265254.973
  23753822.241    -9401864.39543  -7293335.45942  23753824.314    23753818.887
  22161846.586   -13009044.37843 -10131045.20542  22161849.298    22161844.777
  23526916.048    -5555075.55343  -4317564.41342  23526917.809    23526914.279
  23192419.193    11564532.19143   9002449.80042  23192420.555    23192416.488
  22519864.081   -11326889.98443  -8820024.44642  22519866.382    22519861.095
 03  6  8 16 46  0.0000000  0 10G21G17G30G29G 6G16G26G15G10G18
  21026727.547    -3950883.37243  -3071057.35042  21026729.369    21026722.409
  20781170.870        2718.61043      5563.78542  20781172.212    20781166.897
  23768943.305    18754616.86143  14605216.73042  23768945.771    23768942.095
  22735126.038    -8565821.69043  -6667171.55242  22735128.531    22735123.577
  20266740.819      387690.73044    307884.67042  20266743.012    20266736.911
  23744054.384    -9453194.92043  -7333333.30642  23744056.411    23744050.922
  22149558.727   -13073616.93843 -10181361.42142  22149561.491    22149556.960
  23512358.774    -5631573.93243  -4377173.47542  23512360.423    23512357.121
  23211335.386    11663936.96343   9079907.98842  23211336.788    23211332.640
  22502551.211   -11417869.14843  -8890917.23542  22502553.521    22502548.241
 03  6  8 16 46 30.0000000  0 10G21G17G30G29G 6G16G26G15G10G18
  21020157.413    -3985409.69443  -3097960.97642  21020159.227    21020152.270
  20779348.608       -6857.46543     -1898.10242  20779349.952    20779344.624
  23788729.205    18858592.13043  14686236.25342  23788731.648    23788728.119
  22731984.959    -8582328.31343  -6680033.82542  22731987.382    22731982.492
  20268312.203      395948.25244    314319.08942  20268314.381    20268308.294
  23734380.547    -9504031.96343  -7372946.62742  23734382.333    23734377.143
  22137358.660   -13137728.35643 -10231318.31442  22137361.408    22137356.857
  23497820.138    -5707974.99443  -4436706.72942  23497821.625    23497818.439
  23230284.885    11763517.31843   9157503.00342  23230286.350    23230282.227
  22485293.408   -11508559.17543  -8961584.72842  22485295.762    22485290.433
 03  6  8 16 47  0.0000000  0 10G21G17G30G29G 6G16G26G15G10G18
  21013625.710    -4019734.05243  -3124707.22942  21013627.532    21013620.565
  20777563.960      -16235.78943     -9205.89542  20777565.316    20777560.013
  23808522.098    18962603.80943  14767284.15142  23808524.408    23808521.080
  22728943.116    -8598313.72043  -6692489.98342  22728945.534    22728940.479
  20269972.571      404673.57044    321118.02642  20269974.767    20269968.694
  23724799.980    -9554377.27143  -7412176.77242  23724801.851    23724796.719
  22125246.407   -13201378.59143 -10280915.84242  22125249.139    22125244.605
  23483299.367    -5784281.69843  -4496166.42542  23483300.884    23483297.752
  23249266.824    11863267.75443   9235230.52542  23249268.237    23249264.275
  22468090.404   -11598961.63343  -9032028.14642  22468092.702    22468087.390
 03  6  8 16 47 30.0000000  0 10G21G17G30G29G 6G16G26G15G10G18
  21007133.083    -4053853.09843  -3151293.49942  21007134.904    21007127.949
  20775817.539      -25413.35643    -16357.25842  20775818.891    20775813.596
  23828322.094    19066652.35743  14848360.76042  23828324.372    23828321.021
  22726001.023    -8613773.32743  -6704536.39842  22726003.581    22725998.666
  20271722.778      413870.91044    328284.77342  20271724.985    20271718.904
  23715314.068    -9604225.79443  -7451019.79742  23715316.018    23715310.917
  22113223.134   -13264561.27543 -10330149.03742  22113225.848    22113221.346
  23468797.031    -5860490.68643  -4555550.00142  23468798.635    23468795.610
  23268281.267    11963189.05943   9313091.19942  23268282.729    23268278.719
  22450943.080   -11689071.24143  -9102243.36342  22450945.382    22450940.088
 03  6  8 16 48  0.0000000  0 10G21G17G30G29G 6G16G26G15G10G18
  21000679.178    -4087768.81343  -3177721.33442  21000681.020    21000674.000
  20774108.781      -34393.08743    -23354.46642  20774110.120    20774104.823
  23848127.933    19170732.37943  14929461.89042  23848130.237    23848126.923
  22723159.002    -8628708.54143  -6716174.21642  22723161.496    22723156.592
  20273562.462      423538.44244    335817.89642  20273564.666    20273558.595
  23705922.641    -9653578.50543  -7489476.48942  23705924.518    23705919.555
  22101288.897   -13327275.67643 -10379017.35042  22101291.650    22101287.133
  23454313.109    -5936604.20943  -4614859.21042  23454314.642    23454311.590
  23287327.305    12063275.90643   9391080.86142  23287328.654    23287324.700
  22433851.346   -11778888.98443  -9172231.17342  22433853.611    22433848.287
 03  6  8 16 48 30.0000000  0 10G21G17G30G29G 6G16G26G15G10G18
  20994264.363    -4121478.85043  -3203988.89442  20994266.190    20994259.186
  20772438.220      -43171.97743    -30195.17342  20772439.557    20772434.277
  23867939.944    19274844.19743  15010587.81142  23867942.177    23867939.014
  22720417.502    -8643115.24043  -6727400.19542  22720419.949    22720414.964
  20275492.319      433679.78244    343720.22042  20275494.526    20275488.451
  23696626.332    -9702431.05243  -7527543.41842  23696628.284    23696623.274
  22089444.934   -13389515.69743 -10427516.00842  22089447.749    22089443.198
  23439847.891    -6012618.97543  -4674091.45242  23439849.527    23439846.390
  23306404.905    12163528.92643   9469199.99242  23306406.301    23306402.314
  22416816.045   -11868410.09643  -9241987.83742  22416818.296    22416812.894
 03  6  8 16 49  0.0000000  0 10G21G17G30G29G 6G16G26G15G10G18
  20987888.190    -4154985.75843  -3230098.17442  20987890.008    20987883.015
  20770805.285      -51753.07743    -36881.75642  20770806.638    20770801.356
  23887756.783    19378981.94443  15091733.93142  23887759.056    23887755.920
  22717776.246    -8656995.43643  -6738215.91942  22717778.654    22717773.676
  20277511.919      444292.63444    351989.96042  20277514.117    20277508.008
  23687424.889    -9750785.22343  -7565222.00642  23687426.856    23687421.924
  22077691.363   -13451281.38043 -10475645.05742  22077694.125    22077689.519
  23425400.912    -6088537.92443  -4733249.02542  23425402.678    23425399.406
  23325512.988    12263942.37943   9547444.17042  23325514.389    23325510.409
  22399836.871   -11957636.00943  -9311514.47142  22399839.104    22399833.724
 03  6  8 16 49 30.0000000  0 10G21G17G30G29G 6G16G26G15G10G18
  20981551.039    -4188287.84743  -3256047.85842  20981552.850    20981545.872
  20769210.305      -60134.77243    -43412.95642  20769211.647    20769206.382
  23907578.191    19483144.36843  15172899.28442  23907580.611    23907577.474
  22715235.655    -8670346.30543  -6748619.16542  22715238.044    22715233.137
  20279621.656      455379.41344    360628.98742  20279623.868    20279617.778
  23678319.020    -9798637.68743  -7602509.67442  23678320.912    23678315.892
  22066028.904   -13512567.98543 -10523400.79942  22066031.670    22066027.039
  23410972.490    -6164359.35643  -4792330.63842  23410974.346    23410970.985
  23344651.364    12364515.36143   9625812.64142  23344652.804    23344648.916
  22382914.557   -12046563.20143  -9380808.33242  22382916.769    22382911.390
 03  6  8 16 50  0.0000000  0 10G21G17G30G29G 6G16G26G15G10G18
  20975252.699    -4221385.75243  -3281838.43442  20975254.502    20975247.543
  20767653.057      -68318.20143    -49789.67042  20767654.393    20767649.133
  23927403.829    19587327.68443  15254080.90642  23927406.163    23927403.095
  22712795.767    -8683167.49143  -6758609.68842  22712798.273    22712793.384
  20281821.586      466939.99844    369637.22042  20281823.771    20281817.700
  23669308.535    -9845987.99143  -7639406.03342  23669310.477    23669305.429
  22054457.972   -13573373.43143 -10570781.61242  22054460.737    22054456.107
  23396562.463    -6240084.10943  -4851336.90142  23396564.366    23396560.986
  23363819.594    12465244.52043   9704302.78742  23363820.987    23363817.134
  22366049.235   -12135190.87743  -9449868.80342  22366051.424    22366046.041
 03  6  8 16 50 30.0000000  0 10G21G17G30G29G 6G16G26G15G10G18
  20968993.223    -4254279.64643  -3307470.04042  20968995.009    20968988.045
  20766133.545      -76303.31943    -56011.85342  20766134.879    20766129.618
  23947232.869    19691529.23343  15335276.74542  23947235.207    23947232.088
  22710456.722    -8695458.35043  -6768186.95442  22710459.302    22710454.504
  20284111.783      478974.87344    379015.02942  20284113.936    20284107.878
  23660393.966    -9892834.53943  -7675909.82942  23660395.910    23660390.874
  22042979.194   -13633694.67343 -10617785.12242  22042981.937    22042977.279
  23382170.845    -6315712.12343  -4910267.76042  23382172.800    23382169.379
  23383017.000    12566127.32643   9782912.69942  23383018.478    23383014.560
  22349241.177   -12223517.59643  -9518694.75742  22349243.384    22349237.967
 03  6  8 16 51  0.0000000  0 10G21G17G30G29G 6G16G26G15G10G18
  20962772.455    -4286969.76043  -3332942.86042  20962774.310    20962767.322
  20764651.647      -84090.74943    -62079.99342  20764652.968    20764647.742
  23967064.842    19795745.93643  15416484.38142  23967067.183    23967064.029
  22708219.124    -8707217.74543  -6777350.11642  22708221.603    22708216.708
  20286492.283      491484.40244    388762.69642  20286494.445    20286488.381
  23651575.314    -9939176.36443  -7712020.35542  23651577.390    23651572.389
  22031593.043   -13693528.80843 -10664409.06142  22031595.764    22031591.192
  23367797.660    -6391243.27243  -4969123.14642  23367799.590    23367796.279
  23402243.187    12667161.02243   9861640.12142  23402244.598    23402240.656
  22332490.638   -12311541.89243  -9587285.05942  22332492.870    22332487.482
 03  6  8 16 51 30.0000000  0 10G21G17G30G29G 6G16G26G15G10G18
  20956590.602    -4319455.62143  -3358256.52342  20956592.442    20956585.442
  20763207.389      -91680.55743    -67994.14642  20763208.718    20763203.457
  23986899.217    19899975.33743  15497701.91942  23986901.498    23986898.413
  22706082.652    -8718444.45543  -6786098.19042  22706085.247    22706080.324
  20288963.309      504469.60644    398881.01142  20288965.489    20288959.395
  23642853.211    -9985011.70643  -7747736.20942  23642855.143    23642850.080
  22020300.338   -13752872.64943 -10710650.97642  22020303.012    22020298.412
  23353443.140    -6466677.06443  -5027902.68842  23353445.054    23353441.687
  23421497.634    12768343.59143   9940483.60242  23421499.081    23421495.209
  22315798.037   -12399261.92043  -9655638.26542  22315800.250    22315794.850
 03  6  8 16 52  0.0000000  0 10G21G17G30G29G 6G16G26G15G10G18
  20950447.983    -4351735.53543  -3383409.70942  20950449.801    20950442.764
  20761801.124      -99070.68343    -73752.69742  20761802.445    20761797.185
  24006735.728    20004216.17943  15578928.37542  24006737.991    24006734.961
  22704048.173    -8729136.00743  -6794429.25342  22704050.686    22704045.834
  20291525.219      517932.58544    409371.62642  20291527.409    20291521.349
  23634227.964   -10030337.77643  -7783055.23142  23634229.995    23634224.852
  22009101.713   -13811721.69843 -10756507.33742  22009104.387    22009099.751
  23339107.320    -6542012.21843  -5086605.37242  23339109.202    23339105.890
  23440780.325    12869673.95143  10019442.23742  23440781.714    23440777.857
  22299163.954   -12486674.42043  -9723751.84742  22299166.187    22299160.761
 03  6  8 16 52 30.0000000  0 11G23G21G17G30G29G 6G16G26G15G10G18
  24288019.200     -433140.20053   -292746.95052  24288021.759    24288018.881
  20944344.064    -4383811.74443  -3408404.16542  20944345.884    20944338.880
  20760432.389     -106263.39943    -79357.42442  20760433.725    20760428.477
  24026573.429    20108463.53043  15660159.88942  24026575.795    24026572.761
  22702115.114    -8739293.51343  -6802344.18142  22702117.731    22702112.905
  20294177.837      531872.05244    420233.52742  20294180.007    20294173.963
  23625699.450   -10075154.97943  -7817977.71642  23625701.555    23625696.491
  21997997.288   -13870075.03843 -10801977.40742  21997999.999    21997995.476
  23324789.940    -6617250.34343  -5145232.44042  23324791.830    23324788.506
  23460090.274    12971147.61143  10098512.53942  23460091.672    23460087.784
  22282588.270   -12573779.97943  -9791626.25142  22282590.522    22282585.084
 03  6  8 16 53  0.0000000  0 11G23G21G17G30G29G 6G16G26G15G10G18
  24269099.428     -532563.03343   -370219.17142  24269101.950    24269099.521
  20938278.534    -4415686.66043  -3433241.76942  20938280.292    20938273.290
  20759100.598     -113261.95343    -84810.86242  20759101.945    20759096.702
  24046411.393    20212712.00043  15741392.27242  24046413.752    24046410.767
  22700283.673    -8748918.71243  -6809844.33542  22700286.157    22700281.253
  20296920.715      546285.85744    431465.04142  20296922.875    20296916.845
  23617267.594   -10119464.90343  -7852504.95542  23617269.660    23617264.373
  21986987.386   -13927932.40643 -10847061.03342  21986990.033    21986985.403
  23310490.688    -6692393.82843  -5203785.76742  23310492.564    23310489.139
  23479426.431    13072759.44243  10177690.49442  23479427.867    23479423.967
  22266070.846   -12660579.54143  -9859262.22842  22266073.136    22266067.615
 03  6  8 16 53 30.0000000  0 11G23G21G17G30G29G 6G16G26G15G10G18
  24250214.376     -631804.23243   -447549.86742  24250216.879    24250214.682
  20932252.624    -4447353.12043  -3457916.94042  20932254.382    20932247.384
  20757807.205     -120058.97243    -90107.25742  20757808.535    20757803.306
  24066250.466    20316965.98043  15822628.94942  24066252.777    24066249.827
  22698554.819    -8758003.63843  -6816923.47542  22698557.302    22698552.468
  20299755.308      561181.69744    443072.17042  20299757.467    20299751.456
  23608933.721   -10163259.19643  -7886630.36642  23608935.810    23608930.636
  21976073.890   -13985283.73343 -10891750.35442  21976076.495    21976071.808
  23296210.685    -6767435.72743  -5262259.94142  23296212.510    23296208.970
  23498789.694    13174513.97643  10256979.63742  23498791.076    23498787.339
  22249613.336   -12747064.32943  -9926652.93042  22249615.610    22249610.067
 03  6  8 16 54  0.0000000  0 11G23G21G17G30G29G 6G16G26G15G10G18
  24231363.303     -730866.93143   -524741.49342  24231365.795    24231363.639
  20926265.477    -4478815.93343  -3482433.42342  20926267.193    20926260.213
  20756551.210     -126659.31543    -95250.39942  20756552.552    20756547.317
  24086089.045    20421217.62043  15903863.81142  24086091.261    24086088.399
  22696928.025    -8766552.27043  -6823584.74642  22696930.588    22696925.770
  20302680.767      576555.05044    455051.38542  20302682.931    20302676.925
  23600697.545   -10206541.63543  -7920356.96042  23600699.549    23600694.284
  21965256.039   -14042131.14643 -10936046.99942  21965258.671    21965254.002
  23281949.211    -6842380.79643  -5320658.64142  23281950.973    23281947.331
  23518178.868    13276403.82943  10336374.22442  23518180.177    23518176.503
  22233215.090   -12833237.74943  -9993801.00742  22233217.331    22233211.761
 03  6  8 16 54 30.0000000  0 11G23G21G17G30G29G 6G16G26G15G10G18
  24212546.927     -829747.16443   -601790.91342  24212549.403    24212547.161
  20920317.470    -4510072.97243  -3506789.56542  20920319.221    20920312.211
  20755333.059     -133060.78343   -100238.57442  20755334.388    20755329.168
  24105927.074    20525466.45243  15985096.47542  24105929.292    24105926.473
  22695403.841    -8774561.69343  -6829825.84842  22695406.415    22695401.633
  20305697.628      592408.73444    467404.88842  20305699.813    20305693.804
  23592559.113   -10249308.80643  -7953682.04542  23592561.130    23592555.865
  21954535.162   -14098469.36243 -10979946.85242  21954537.809    21954533.298
  23267706.468    -6917226.71543  -5378980.11742  23267708.265    23267704.656
  23537593.540    13378428.63143  10415873.95242  23537594.949    23537591.274
  22216876.764   -12919096.35043 -10060703.77242  22216878.950    22216873.335
 03  6  8 16 55  0.0000000  0 11G23G21G17G30G29G 6G16G26G15G10G18
  24193765.838     -928441.65343   -678695.59942  24193768.191    24193766.158
  20914408.898    -4541122.63143  -3530984.11142  20914410.664    20914403.651
  20754153.000     -139262.22843   -105070.89242  20754154.331    20754149.086
  24125764.454    20629711.15143  16066325.92942  24125766.575    24125763.746
  22693982.810    -8782029.57043  -6835644.97542  22693985.280    22693980.502
  20308806.304      608744.89644    480134.34742  20308808.503    20308802.492
  23584519.327   -10291557.76643  -7986603.29942  23584521.418    23584516.156
  21943912.156   -14154294.32643 -11023446.81642  21943914.770    21943910.004
  23253482.952    -6991971.76143  -5437222.93942  23253484.675    23253481.122
  23557033.819    13480587.49443  10495478.16742  23557035.205    23557031.513
  22200598.898   -13004636.68643 -10127358.53042  22200601.122    22200595.499
 03  6  8 16 55 30.0000000  0 11G23G21G17G30G29G 6G16G26G15G10G18
  24175019.166    -1026955.45643   -755459.49542  24175021.568    24175019.473
  20908538.564    -4571971.39543  -3555022.11442  20908540.363    20908533.327
  20753009.646     -145270.61443   -109752.77342  20753010.998    20753005.748
  24145599.110    20733942.38543  16147544.88642  24145601.312    24145598.435
  22692663.573    -8788961.72943  -6841046.65142  22692666.112    22692661.431
  20312005.629      625557.34044    493234.93242  20312007.816    20312001.820
  23576577.280   -10333293.92543  -8019124.95442  23576579.493    23576574.105
  21933385.850   -14209609.69643 -11066549.65342  21933388.522    21933383.859
  23239277.436    -7066622.45843  -5495392.28342  23239279.091    23239275.589
  23576497.738    13582871.33643  10575179.75442  23576499.135    23576495.588
  22184380.658   -13089863.94843 -10193769.34142  22184382.878    22184377.242
 03  6  8 16 56  0.0000000  0 11G23G21G17G30G29G 6G16G26G15G10G18
  24156308.559    -1125280.10843   -832075.98942  24156310.879    24156308.847
  20902707.838    -4602612.22243  -3578898.09642  20902709.612    20902702.573
  20751904.320     -151079.23743   -114278.99242  20751905.682    20751900.417
  24165431.991    20838164.14943  16228756.45742  24165434.170    24165431.398
  22691447.852    -8795350.51643  -6846024.91142  22691450.370    22691445.640
  20315296.930      642853.19844    506712.20242  20315299.104    20315293.125
  23568734.390   -10374509.48043  -8051241.02142  23568736.464    23568731.010
  21922958.424   -14264405.87343 -11109247.95842  21922961.113    21922956.437
  23225091.096    -7141171.96143  -5553482.76442  23225092.662    23225089.273
  23595986.329    13685284.45343  10654982.08342  23595987.711    23595984.242
  22168223.561   -13174770.01343 -10259929.86842  22168225.754    22168220.118
 03  6  8 16 56 30.0000000  0 11G23G21G17G30G29G 6G16G26G15G10G18
  24137633.992    -1223415.22543   -908544.80742  24137636.306    24137634.299
  20896916.431    -4633046.23943  -3602612.91842  20896918.236    20896911.192
  20750836.831     -156689.00643   -118650.25942  20750838.203    20750832.943
  24185262.273    20942372.18143  16309957.31842  24185264.395    24185261.679
  22690335.556    -8801196.72343  -6850580.41542  22690337.966    22690333.030
  20318680.046      660631.37844    520565.31142  20318682.216    20318676.229
  23560990.167   -10415204.87243  -8082951.68742  23560992.335    23560987.014
  21912630.222   -14318681.48543 -11151540.62342  21912632.879    21912628.103
  23210923.771    -7215621.59743  -5611495.43142  23210925.233    23210921.854
  23615498.901    13787822.96743  10734882.12442  23615500.321    23615496.706
  22152127.596   -13259354.52243 -10325839.83242  22152129.798    22152124.165
 03  6  8 16 57  0.0000000  0 11G23G21G17G30G29G 6G16G26G15G10G18
  24118995.046    -1321363.42143   -984867.98842  24118997.292    24118995.290
  20891163.563    -4663277.92543  -3626170.08242  20891165.350    20891158.300
  20749806.155     -162104.99243   -122870.52642  20749807.562    20749802.339
  24205088.711    21046559.43843  16391141.97542  24205090.773    24205088.115
  22689325.526    -8806503.91443  -6854715.88042  22689328.066    22689323.056
  20322154.169      678888.01044    534791.23442  20322156.357    20322150.377
  23553344.614   -10455382.99443  -8114259.31042  23553346.738    23553341.422
  21902400.557   -14372438.13743 -11193428.88942  21902403.187    21902398.463
  23196774.775    -7289975.31043  -5669433.36242  23196776.176    23196772.806
  23635033.961    13890480.21343  10814874.67742  23635035.365    23635031.800
  22136092.276   -13343620.39243 -10391501.50042  22136094.505    22136088.845
 03  6  8 16 57 30.0000000  0 11G23G21G17G30G29G 6G16G26G15G10G18
  24100393.053    -1419117.18543  -1061039.64642  24100395.315    24100393.274
  20885450.227    -4693301.57343  -3649565.13942  20885452.026    20885444.996
  20748813.519     -167321.45043   -126935.31942  20748814.906    20748809.701
  24224911.664    21150729.08243  16472312.93042  24224913.906    24224911.191
  22688419.435    -8811265.70143  -6858426.36642  22688421.884    22688416.952
  20325720.526      697629.31344    549394.82142  20325722.728    20325716.753
  23545798.685   -10495037.00243  -8145158.54842  23545800.745    23545795.649
  21892271.375   -14425667.19243 -11234906.05542  21892274.011    21892269.308
  23182644.999    -7364227.30743  -5727292.03342  23182646.453    23182643.078
  23654592.194    13993259.64743  10894962.47842  23654593.729    23654590.077
  22120119.031   -13427560.27743 -10456909.15942  22120121.267    22120115.546
 03  6  8 16 58  0.0000000  0 11G23G21G17G30G29G 6G16G26G15G10G18
  24081827.578    -1516678.99043  -1137061.73942  24081829.810    24081827.769
  20879775.755    -4723121.08443  -3672801.12742  20879777.543    20879770.571
  20747858.074     -172342.46943   -130847.81942  20747859.443    20747854.246
  24244729.909    21254874.03643  16553464.64842  24244732.199    24244729.431
  22687616.477    -8815485.48643  -6861714.51642  22687618.864    22687613.986
  20329378.378      716851.53944    564373.15442  20329380.587    20329374.636
  23538352.008   -10534169.94343  -8175651.74842  23538354.088    23538348.857
  21882242.434   -14478370.23043 -11275973.34642  21882245.045    21882240.208
  23168533.861    -7438381.72443  -5785074.65342  23168535.318    23168531.895
  23674172.589    14096154.61843  10975140.30742  23674174.114    23674170.456
  22104207.218   -13511177.06843 -10522065.05742  22104209.437    22104203.768
 03  6  8 16 58 30.0000000  0 11G23G21G17G30G29G 6G16G26G15G10G18
  24063299.324    -1614045.15043  -1212931.38042  24063301.534    24063299.559
  20874140.567    -4752734.36643  -3695876.42042  20874142.329    20874135.367
  20746940.265     -177165.65443   -134606.16942  20746941.625    20746936.467
  24264543.257    21358993.76543  16634596.72142  24264545.537    24264543.404
  22686917.102    -8819160.41043  -6864578.10042  22686919.568    22686914.638
  20333128.298      736557.28644    579728.26342  20333130.492    20333124.547
  23531004.792   -10572778.92543  -8205736.66842  23531007.021    23531001.972
  21872314.357   -14530542.39243 -11316626.95342  21872316.989    21872312.096
  23154441.783    -7512436.22043  -5842779.44142  23154443.240    23154439.738
  23693774.825    14199164.41243  11055407.56442  23693776.277    23693772.671
  22088357.552   -13594467.30243 -10586966.49342  22088359.738    22088354.161
 03  6  8 16 59  0.0000000  0 11G23G21G17G30G29G 6G16G26G15G10G18
  24044808.597    -1711214.22243  -1288647.44842  24044810.812    24044808.840
  20868544.571    -4782141.62544  -3718791.17942  20868546.305    20868539.354
  20746060.013     -181791.68543   -138210.88942  20746061.362    20746056.185
  24284351.263    21463085.08343  16715706.57542  24284353.433    24284351.560
  22686321.588    -8822290.34843  -6867017.02942  22686324.056    22686318.972
  20336970.210      756746.64144    595460.20042  20336972.417    20336966.459
  23523757.762   -10610862.93843  -8235412.51942  23523759.882    23523754.846
  21862487.774   -14582181.22443 -11356864.99142  21862490.428    21862485.575
  23140368.498    -7586391.04143  -5900406.50942  23140370.098    23140366.602
  23713398.512    14302286.76943  11135762.56342  23713399.926    23713396.307
  22072570.231   -13677429.59643 -10651612.38342  22072572.437    22072566.962
 03  6  8 16 59 30.0000000  0 11G23G21G17G30G29G 6G16G26G15G10G18
  24026355.485    -1808185.51843  -1364209.42642  24026357.621    24026355.690
  20862987.589    -4811343.77743  -3741546.10842  20862989.329    20862982.371
  20745216.964     -186221.96043   -141663.07242  20745218.334    20745213.132
  24304153.298    21567144.42443  16796791.59142  24304155.490    24304153.513
  22685829.646    -8824875.64543  -6869031.55542  22685832.116    22685827.003
  20340904.029      777418.91744    611568.43642  20340906.225    20340900.292
  23516610.161   -10648422.18543  -8264679.45942  23516612.429    23516607.436
  21852763.053   -14633285.02943 -11396686.12542  21852765.679    21852760.846
  23126314.105    -7660247.07843  -5957956.64742  23126315.684    23126312.220
  23733042.841    14405518.24943  11216202.57642  23733044.219    23733040.661
  22056845.542   -13760063.54343 -10716002.43042  22056847.710    22056842.226
 03  6  8 17  0  0.0000000  0 11G23G21G17G30G29G 6G16G26G15G10G18
  24007940.763    -1904955.07743  -1439614.18842  24007942.906    24007940.988
  20857470.076    -4840338.65943  -3764139.52942  20857471.829    20857464.844
  20744411.696     -190453.80843   -144960.63542  20744413.064    20744407.865
  24323949.332    21671171.29143  16877851.23942  24323951.463    24323949.154
  22685441.837    -8826913.39843  -6870619.43142  22685444.320    22685439.214
  20344930.248      798576.69044    628054.98542  20344932.435    20344926.505
  23509563.747   -10685453.39243  -8293534.98442  23509565.705    23509560.598
  21843141.118   -14683849.00543 -11436086.60942  21843143.690    21843138.864
  23112278.950    -7734001.89943  -6015427.90742  23112280.550    23112277.107
  23752707.851    14508858.38343  11296727.26142  23752709.065    23752705.724
  22041184.020   -13842365.59643 -10780133.86242  22041186.169    22041180.597
 03  6  8 17  0 30.0000000  0 11G23G21G17G30G29G 6G16G26G15G10G18
  23989564.107    -2001524.75843  -1514863.18442  23989566.211    23989564.356
  20851991.435    -4869129.07343  -3786573.61642  20851993.226    20851986.225
  20743643.416     -194491.27643   -148106.72742  20743644.779    20743639.577
  24343737.776    21775159.62543  16958880.94042  24343739.709    24343737.887
  22685157.737    -8828406.63643  -6871782.99642  22685160.202    22685155.090
  20349048.259      820216.80944    644917.40142  20349050.434    20349044.513
  23502616.644   -10721958.74243  -8321980.67342  23502618.813    23502613.879
  21833621.575   -14733873.74543 -11475066.89442  21833624.223    21833619.405
  23098262.505    -7807658.57743  -6072822.67242  23098264.132    23098260.702
  23772392.644    14612301.64743  11377332.32042  23772393.860    23772390.490
  22025585.314   -13924337.48443 -10844008.02342  22025587.467    22025581.817
 03  6  8 17  1  0.0000000  0 11G23G21G17G30G29G 6G16G26G15G10G18
  23971227.350    -2097885.02343  -1589949.01342  23971229.458    23971227.443
  20846553.270    -4897706.74643  -3808841.93242  20846555.070    20846548.067
  20742913.826     -198325.39943   -151094.36642  20742915.183    20742909.988
  24363519.566
  22684978.805    -8829346.90743  -6872515.67542  22684981.288    22684976.246
  20353259.622      842347.44444    662162.03242  20353261.785    20353255.860
  23495771.747   -10757929.51843  -8350009.85342  23495773.807    23495768.812
  21824206.763   -14783348.97943 -11513619.00842  21824209.381    21824204.602
  23084266.153    -7881209.33543  -6130134.91342  23084267.927    23084264.406
  23792098.039    14715853.60543  11458022.05242  23792099.241    23792095.933
  22010051.114   -14005970.12443 -10907617.82742  22010053.285    22010047.580
 03  6  8 17  1 30.0000000  0 11G23G21G17G30G29G 6G16G26G15G10G18
  23952928.099    -2194048.31743  -1664881.34242  23952930.218    23952928.130
  20841152.865    -4926086.21243  -3830955.79642  20841154.641    20841147.642
  20742220.102     -201970.82843   -153934.96642  20742221.489    20742216.285
  24383292.397
  22684902.472    -8829747.84443  -6872828.10042  22684904.972    22684900.007
  20357561.632      864954.66044    679778.02542  20357563.798    20357557.888
  23489025.939   -10793378.99643  -8377632.80742  23489028.052    23489023.030
  21814894.340   -14832286.26043 -11551751.93242  21814896.963    21814892.080
  23070287.309    -7954668.10943  -6187375.47442  23070289.187    23070285.653
  23811820.868    14819497.62443  11538783.54942  23811822.138    23811818.895
  21994579.063   -14087276.05143 -10970973.05642  21994581.262    21994575.547
 03  6  8 17  2  0.0000000  0 10G23G21G17G29G 6G16G26G15G10G18
  23934669.367    -2289998.47843  -1739647.61542  23934671.456    23934669.280
  20835792.982    -4954252.57344  -3852903.61242  20835794.770    20835787.778
  20741565.016     -205413.46943   -156617.55442  20741566.383    20741561.178
  22684931.695    -8829594.32643  -6872708.49042  22684934.124    22684929.251
  20361957.219      888053.41944    697777.03642  20361959.392    20361953.467
  23482382.266   -10828291.53443  -8404837.38142  23482384.381    23482379.257
  21805687.531   -14880668.18443 -11589452.10842  21805690.145    21805685.294
  23056328.847    -8028020.32643  -6244532.99842  23056330.660    23056327.125
  23831563.548    14923246.08343  11619626.41642  23831564.902    23831561.637
  21979172.270   -14168239.20743 -11034061.18842  21979174.463    21979168.725
 03  6  8 17  2 30.0000000  0 10G23G21G17G29G 6G16G26G15G10G18
  23916450.003    -2385741.97143  -1814252.82442  23916452.129    23916449.695
  20830472.169    -4982213.56543  -3874691.39742  20830473.990    20830466.973
  20740946.969     -208661.28743   -159148.33342  20740948.363    20740943.149
  22685064.939    -8828893.90343  -6872162.71442  22685067.381    22685062.542
  20366444.781      911635.70944    716152.82442  20366446.981    20366441.043
  23475839.509   -10862674.39343  -8431629.21642  23475841.503    23475836.387
  21796585.248   -14928500.60143 -11626724.10842  21796587.892    21796583.038
  23042389.131    -8101273.70543  -6301613.49242  23042390.931    23042387.475
  23851324.270    15027088.52943  11700542.52342  23851325.457    23851322.323
  21963829.361   -14248866.44243 -11096887.56842  21963831.575    21963825.835
 03  6  8 17  3  0.0000000  0 10G23G21G17G29G 6G16G26G15G10G18
  23898270.709    -2481274.44543  -1888693.60842  23898272.861    23898270.431
  20825190.852    -5009967.12544  -3896317.55042  20825192.664    20825185.657
  20740366.555     -211711.47943   -161525.11742  20740367.925    20740362.733
  22685302.786    -8827643.52843  -6871188.40342  22685305.243    22685300.463
  20371024.953      935704.62944    734907.80542  20371027.142    20371021.238
  23469397.982   -10896523.91143  -8458005.46242  23469400.087    23469395.115
  21787588.742   -14975778.00843 -11663563.63142  21787591.310    21787586.523
  23028468.900    -8174425.35443  -6358614.75542  23028470.636    23028467.190
  23871102.868    15131025.42943  11781532.22542  23871104.143    23871100.891
  21948551.220   -14329153.68743 -11159449.01342  21948553.389    21948547.611
 03  6  8 17  3 30.0000000  0 10G23G21G17G29G 6G16G26G15G10G18
  23880131.168    -2576598.28543  -1962971.84942  23880133.327    23880130.742
  20819948.382    -5037516.36043  -3917784.48242  20819950.220    20819943.201
  20739822.922     -214568.41843   -163751.31542  20739824.262    20739819.110
  22685644.776    -8825846.82643  -6869788.38642  22685647.134    22685642.393
  20375697.009      960256.42744    754039.05342  20375699.215    20375693.311
  23463057.649   -10929843.43343  -8483968.72242  23463059.730    23463054.600
  21778697.372   -15022501.96243 -11699971.88742  21778700.006    21778695.167
  23014567.211    -8247479.12343  -6415539.73242  23014568.999    23014565.446
  23890898.087    15235050.21743  11862590.42442  23890899.461    23890896.276
  21933337.174   -14409103.33543 -11221747.39142  21933339.408    21933333.633
 03  6  8 17  4  0.0000000  0 10G23G21G17G29G 6G16G26G15G10G18
  23862031.927    -2671709.64443  -2037084.51142  23862034.195    23862031.567
  20814745.132    -5064859.62443  -3939090.92142  20814746.978    20814739.958
  20739316.576     -217229.37643   -165824.80242  20739317.915    20739312.767
  22686091.078    -8823501.34743  -6867960.75542  22686093.495    22686088.633
  20380461.400      985293.34544    773548.31942  20380463.618    20380457.709
  23456818.678   -10962629.90743  -8509516.63842  23456820.670    23456815.422
  21769912.306   -15068667.99343 -11735945.40142  21769914.888    21769910.054
  23000684.608    -8320432.82243  -6472386.72842  23000686.328    23000682.794
  23910710.170    15339162.82743  11943717.04842  23910711.525    23910708.422
  21918188.017   -14488712.35243 -11283780.35242  21918190.262    21918184.509
 03  6  8 17  4 30.0000000  0 10G23G21G17G29G 6G16G26G15G10G18
  23843974.676    -2766600.42843  -2111025.31342  23843976.877    23843974.363
  20809582.433    -5091989.96643  -3960231.44842  20809584.240    20809577.222
  20738848.737     -219688.09543   -167740.70242  20738850.071    20738844.892
  22686643.171    -8820600.16543  -6865700.10742  22686645.614    22686640.643
  20385319.360     1010822.10044    793440.82742  20385321.586    20385315.695
  23450682.499   -10994876.04943  -8534643.50042  23450684.513    23450679.270
  21761235.020   -15114267.01243 -11771477.08442  21761237.658    21761232.863
  22986822.288    -8393279.58543  -6529150.36942  22986824.010    22986820.482
  23930539.648    15443367.38043  12024915.30442  23930541.065    23930537.864
  21903105.253   -14567972.80343 -11345541.70042  21903107.495    21903101.712
 03  6  8 17  5  0.0000000  0 10G23G21G17G29G 6G16G26G15G10G18
  23825958.060    -2861278.48843  -2184800.36642  23825960.110    23825957.715
  20804458.502    -5118916.41943  -3981213.09742  20804460.313    20804453.278
  20738417.621     -221953.60343   -169506.04542  20738418.969    20738413.799
  22687299.520    -8817152.11243  -6863013.33142  22687301.915    22687296.742
  20390269.185     1036833.42744    813709.36742  20390271.395    20390265.522
  23444647.414   -11026590.32943  -8559355.92042  23444649.457    23444644.180
  21752664.511   -15159305.83643 -11806572.26342  21752667.130    21752662.222
  22972978.462    -8466028.59243  -6585837.85442  22972980.336    22972976.762
  23950384.302    15547652.29543  12106176.19942  23950385.847    23950382.685
  21888087.319   -14646892.62743 -11407037.62242  21888089.527    21888083.710
 03  6  8 17  5 30.0000000  0 10G23G21G17G29G 6G16G26G15G10G18
  23807982.489    -2955740.94743  -2258407.42242  23807984.535    23807982.120
  20799373.708    -5145637.20643  -4002034.48942  20799375.512    20799368.487
  20738023.521     -224024.60643   -171119.82542  20738024.884    20738019.727
  22688060.092    -8813155.68043  -6859899.24442  22688062.537    22688057.200
  20395311.093     1063328.67744    834354.99742  20395313.276    20395307.424
  23438714.206   -11057770.53143  -8583652.18542  23438716.260    23438710.752
  21744201.114   -15203780.90643 -11841228.13942  21744203.692    21744198.869
  22959153.670    -8538678.44943  -6642448.09142  22959155.605    22959151.882
  23970244.336    15652016.79843  12187499.12942  23970245.810    23970242.540
  21873134.716   -14725468.94443 -11468265.87742  21873136.942    21873131.092
 03  6  8 17  6  0.0000000  0 10G23G21G17G29G 6G16G26G15G10G18
  23790049.369    -3049979.23443  -2331839.80242  23790051.459    23790049.091
  20794329.233    -5172145.89843  -4022690.61142  20794331.060    20794324.052
  20737667.689     -225894.45543   -172576.86642  20737669.074    20737663.917
  22688926.306    -8808603.62643  -6856352.20242  22688928.813    22688923.371
  20400446.487     1090315.22044    855383.45042  20400448.668    20400442.812
  23432883.738   -11088409.04943  -8607526.35242  23432885.809    23432880.602
  21735846.820   -15247682.71243 -11875437.32342  21735849.430    21735844.573
  22945349.108    -8611221.81843  -6698975.36042  22945350.964    22945347.259
  23990120.358    15756465.76743  12268887.83542  23990121.813    23990118.570
  21858249.034   -14803693.53943 -11529220.06842  21858251.276    21858245.425
 03  6  8 17  6 30.0000000  0 10G23G21G17G29G 6G16G26G15G10G18
  23772158.256    -3143997.42843  -2405100.66142  23772160.342    23772157.923
  20789324.207    -5198447.57544  -4043185.42942  20789326.016    20789318.982
  20737349.030     -227569.02143   -173881.73542  20737350.416    20737345.255
  22689897.230    -8803501.33443  -6852376.40942  22689899.736    22689894.346
  20405674.316     1117787.52544    876790.41142  20405676.491    20405670.638
  23427155.587   -11118510.83843  -8630982.29142  23427157.713    23427152.415
  21727601.087   -15291014.59843 -11909202.41142  21727603.643    21727598.870
  22931563.673    -8683664.41343  -6755424.06442  22931565.482    22931561.874
  24010010.833    15860990.81343  12350335.82442  24010012.228    24010009.182
  21843429.447   -14881570.81243 -11589903.61542  21843431.676    21843425.849
 03  6  8 17  7  0.0000000  0 10G23G21G17G29G 6G16G26G15G10G18
  23754309.088    -3237794.46743  -2478189.19342  23754311.223    23754308.888
  20784358.535    -5224542.42943  -4063519.08442  20784360.361    20784353.297
  20737067.425     -229048.99743   -175034.97142  20737068.795    20737063.644
  22690972.812    -8797849.04443  -6847972.04742  22690975.315    22690970.031
  20410994.525     1145745.20844    898575.59042  20410996.696    20410990.825
  23421529.458   -11148075.87043  -8654019.97642  23421531.541    23421526.267
  21719464.096   -15333774.69743 -11942521.94642  21719466.632    21719461.865
  22917797.475    -8756006.54143  -6811794.49942  22917799.228    22917795.620
  24029915.471    15965589.43443  12431841.14242  24029916.812    24029913.679
  21828676.084   -14959100.08143 -11650315.98742  21828678.293    21828672.502
 03  6  8 17  7 30.0000000  0 10G23G21G17G29G 6G16G26G15G10G18
  23736503.233    -3331364.63843  -2551100.92842  23736505.336    23736503.086
  20779432.936    -5250426.54944  -4083688.52442  20779434.764    20779427.702
  20736823.758     -230329.53843   -176032.80842  20736825.114    20736819.982
  22692153.821    -8791642.60943  -6843135.87842  22692156.331    22692151.165
  20416407.849     1174192.37344    920742.18542  20416410.031    20416404.186
  23416006.327   -11177099.27543  -8676635.62242  23416008.521    23416003.315
  21711437.129   -15375956.55843 -11975390.90542  21711439.711    21711434.936
  22904051.085    -8828243.94643  -6868083.32542  22904052.869    22904049.201
  24049834.437    16070263.46443  12513405.22142  24049835.691    24049832.565
  21813990.010   -15036275.80643 -11710452.87942  21813992.234    21813986.391
 03  6  8 17  8  0.0000000  0 10G23G21G17G29G 6G16G26G15G10G18
  23718739.539    -3424713.44743  -2623840.17942  23718741.597    23718739.295
  20774546.180    -5276106.70244  -4103699.03442  20774548.006    20774540.926
  20736616.698     -231417.72543   -176880.76042  20736618.051    20736612.926
  22693439.101    -8784888.41343  -6837872.87442  22693441.597    22693436.505
  20421913.011     1203122.12844    943284.82842  20421915.176    20421909.353
  23410585.284   -11205587.20143  -8698834.01942  23410587.451    23410582.490
  21703519.349   -15417564.90943 -12007812.98142  21703521.912    21703517.083
  22890323.399    -8900383.44043  -6924295.87942  22890325.185    22890321.439
  24069765.945    16175003.51843  12595020.76842  24069767.155    24069764.014
  21799370.109   -15113103.75643 -11770318.77342  21799372.354    21799366.483
 03  6  8 17  8 30.0000000  0 10G23G21G17G29G 6G16G26G15G10G18
  23701020.357    -3517828.10143  -2696396.96942  23701022.537    23701020.051
  20769700.510    -5301570.79144  -4123541.18342  20769702.381    20769695.276
  20736448.392     -232302.19143   -177569.96642  20736449.751    20736444.624
  22694830.759    -8777575.35443  -6832174.40442  22694833.237    22694828.150
  20427512.146     1232545.61244    966212.18942  20427514.303    20427508.469
  23405268.250   -11233527.82543  -8720605.93342  23405270.364    23405265.530
  21695713.293   -15458586.09543 -12039777.52142  21695715.862    21695710.969
  22876616.474    -8972413.41443  -6980423.06842  22876618.271    22876614.569
  24089711.765    16279818.79943  12676694.91442  24089712.939    24089709.726
  21784818.768   -15189571.59743 -11829904.06342  21784820.976    21784815.112
 03  6  8 17  9  0.0000000  0 10G23G21G17G29G 6G16G26G15G10G18
  23683343.577    -3610719.52543  -2768779.79042  23683345.811    23683343.327
  20764893.454    -5326832.12844  -4143225.33842  20764895.321    20764888.197
  20736316.453     -232995.60043   -178110.29942  20736317.811    20736312.698
  22696326.426    -8769715.76043  -6826050.06242  22696328.873    22696323.848
  20433202.871     1262450.40244    989514.59742  20433205.029    20433199.192
  23400053.178   -11260932.93443  -8741960.57942  23400055.255    23400050.502
  21688016.828   -15499030.55843 -12071292.65542  21688019.450    21688014.638
  22862928.004    -9044346.29443  -7036474.60242  22862929.809    22862926.151
  24109669.051    16384694.53343  12758416.12342  24109670.282    24109667.187
  21770333.799   -15265690.39743 -11889217.37442  21770336.019    21770330.143
 03  6  8 17  9 30.0000000  0 10G23G21G17G29G 6G16G26G15G10G18
  23665711.567    -3703375.83243  -2840979.39642  23665713.683    23665711.330
  20760127.051    -5351879.65243  -4162742.88742  20760128.929    20760121.818
  20736222.824     -233487.65343   -178493.73042  20736224.194    20736219.078
  22697928.058    -8761298.99143  -6819491.56342  22697930.563    22697925.502
  20438987.156     1292847.04444   1013200.25842  20438989.324    20438983.501
  23394942.568   -11287791.49743  -8762889.36442  23394944.370    23394939.594
  21680432.664   -15538885.42543 -12102348.38142  21680435.253    21680430.443
  22849260.136    -9116171.48843  -7092442.25342  22849261.861    22849258.194
  24129639.417    16489638.85543  12840190.83742  24129640.690    24129637.617
  21755917.450   -15341448.39943 -11948249.54442  21755919.710    21755913.828
 03  6  8 17 10  0.0000000  0 10G23G21G17G29G 6G16G26G15G10G18
  23648122.810    -3795804.47043  -2913001.59842  23648125.024    23648122.701
  20755399.727    -5376721.85343  -4182100.44042  20755401.616    20755394.508
  20736165.797     -233787.31143   -178727.24042  20736167.181    20736162.041
  22699634.099    -8752334.01643  -6812505.86942  22699636.512    22699631.489
  20444863.314     1323726.41644   1037262.08442  20444865.481    20444859.671
  23389933.653   -11314112.12843  -8783398.94742  23389935.681    23389930.940
  21672959.439   -15578157.82143 -12132950.23142  21672962.002    21672957.171
  22835611.057    -9187897.77843  -7148332.80842  22835612.807    22835609.091
  24149620.524    16594640.49643  12922010.21542  24149621.905    24149618.865
  21741568.295   -15416853.36143 -12007006.61742  21741570.576    21741564.692
 03  6  8 17 10 30.0000000  0 10G23G21G17G29G 6G16G26G15G10G18
  23630579.328    -3887996.36743  -2984839.33642  23630581.358    23630579.075
  20750712.874    -5401351.36843  -4201292.26742  20750714.767    20750707.658
  20736146.868     -233886.77243   -178804.75142  20736148.269    20736143.113
  22701445.778    -8742813.23143  -6805087.09342  22701448.232    22701443.263
  20450832.786     1355096.11544   1061705.97442  20450834.949    20450829.155
  23385029.016   -11339886.82443  -8803483.16342  23385031.046    23385026.022
  21665598.938   -15616837.66643 -12163090.34742  21665601.487    21665596.607
  22821982.265    -9259517.36743  -7204140.24342  22821984.058    22821980.208
  24169613.705    16699705.27543  13003878.74142  24169615.201    24169612.240
  21727288.014   -15491896.80343 -12065481.98842  21727290.273    21727284.350
 03  6  8 17 11  0.0000000  0 10G23G21G17G29G 6G16G26G15G10G18
  23613079.825    -3979956.04843  -3056496.13842  23613081.931    23613079.611
  20746065.461    -5425773.78943  -4220322.72642  20746067.338    20746060.216
  20736164.904     -233792.07243   -178730.97642  20736166.296    20736161.140
  22703362.168    -8732742.58743  -6797239.84542  22703364.551    22703359.621
  20456894.426     1386950.07944   1086527.20542  20456896.589    20456890.800
  23380227.214   -11365120.95143  -8823146.14642  23380229.147    23380224.153
  21658350.428   -15654928.96943 -12192771.86142  21658352.998    21658348.103
  22808372.655    -9331036.07343  -7259869.06542  22808374.456    22808370.613
  24189617.482    16804824.90743  13085790.02142  24189618.940    24189615.960
  21713075.587   -15566583.46343 -12123679.34642  21713077.840    21713071.914
 03  6  8 17 11 30.0000000  0 10G23G21G17G29G 6G16G26G15G10G18
  23595625.851    -4071676.97543  -3127966.89242  23595627.913    23595625.532
  20741458.428    -5449983.81244  -4239187.67842  20741460.310    20741453.214
  20736220.916     -233497.84243   -178501.71742  20736222.305    20736217.128
  22705384.155    -8722116.83743  -6788960.06642  22705386.578    22705381.684
  20463049.177     1419293.47444   1111729.82442  20463051.345    20463045.569
  23375529.226   -11389808.84243  -8842383.49242  23375531.243    23375526.291
  21651215.208   -15692424.54043 -12221989.17142  21651217.833    21651212.902
  22794783.220    -9402448.64043  -7315515.16942  22794785.058    22794781.166
  24209632.059    16910002.30543  13167746.36242  24209633.606    24209630.511
  21698932.292   -15640906.70243 -12181593.51642  21698934.545    21698928.607
 03  6  8 17 12  0.0000000  0 10G23G21G17G29G 6G16G26G15G10G18
  23578216.478    -4163163.12043  -3199254.71342  23578218.551    23578216.256
  20736890.795    -5473986.90343  -4257891.38242  20736892.646    20736885.596
  20736313.930     -233009.25343   -178121.01542  20736315.311    20736310.141
  22707510.773    -8710941.44843  -6780251.97242  22707513.193    22707508.378
  20469296.006     1452120.74644   1137309.49042  20469298.205    20469292.441
  23370934.316   -11413955.52543  -8861199.11542  23370936.318    23370931.360
  21644192.774   -15729327.58543 -12250744.76842  21644195.398    21644190.433
  22781213.118    -9473760.12043  -7371082.51942  22781214.931    22781210.983
  24229656.206    17015229.69443  13249741.66542  24229657.673    24229654.710
  21684857.320   -15714871.17843 -12239228.12742  21684859.543    21684853.597
 03  6  8 17 12 30.0000000  0 10G23G21G17G29G 6G16G26G15G10G18
  23560853.690    -4254405.43043  -3270352.52742  23560855.720    23560853.433
  20732364.034    -5497775.26243  -4276427.76642  20732365.860    20732358.795
  20736445.304     -232318.96143   -177583.13642  20736446.684    20736441.502
  22709743.359    -8699208.97643  -6771109.79242  22709745.750    22709740.961
  20475636.348     1485439.29244   1163271.95842  20475638.528    20475632.766
  23366444.219   -11437553.14743  -8879586.88142  23366446.022    23366440.922
  21637284.943   -15765628.41143 -12279031.10842  21637287.556    21637282.595
  22767663.893    -9544962.75243  -7426565.05142  22767665.606    22767661.542
  24249690.874    17120512.55043  13331780.15042  24249692.331    24249689.558
  21670852.274   -15788468.05043 -12296576.29942  21670854.521    21670848.547
 03  6  8 17 13  0.0000000  0 10G23G21G17G29G 6G16G26G15G10G18
  23543536.508    -4345407.08743  -3341262.80242  23543538.629    23543536.335
  20727877.282    -5521353.19643  -4294800.17942  20727879.104    20727872.080
  20736614.257     -231431.24243   -176891.42642  20736615.635    20736610.466
  22712081.201    -8686923.69443  -6761536.85242  22712083.604    22712078.797
  20482069.269     1519244.23344   1189613.42642  20482071.405    20482065.665
  23362057.226   -11460605.78543  -8897550.02942  23362059.184    23362054.079
  21630491.176   -15801329.62943 -12306850.21942  21630493.764    21630488.802
  22754134.292    -9616060.93943  -7481966.20042  22754136.029    22754131.962
  24269734.890    17225844.32543  13413856.80142  24269736.267    24269733.647
  21656916.484   -15861701.04143 -12353640.92542  21656918.752    21656912.737
 03  6  8 17 13 30.0000000  0 10G23G21G17G29G 6G16G26G15G10G18
  23526264.565    -4436170.86543  -3411987.74242  23526266.854    23526264.412
  20723429.946    -5544724.19343  -4313011.34942  20723431.759    20723424.743
  20736819.818     -230351.04143   -176049.72442  20736821.189    20736816.046
  22714523.299    -8674090.48243  -6751536.95542  22714525.691    22714520.884
  20488593.906     1553531.37544   1216330.64242  20488596.072    20488590.304
  23357773.331   -11483117.22843  -8915091.42342  23357775.281    23357770.294
  21623811.183   -15836433.38543 -12334203.77642  21623813.747    21623808.780
  22740623.761    -9687058.94343  -7537289.27442  22740625.449    22740621.422
  24289787.058    17331218.27743  13495966.28642  24289788.350    24289785.618
  21643049.451   -15934572.82443 -12410424.09242  21643051.710    21643045.648
 03  6  8 17 14  0.0000000  0 10G23G21G17G29G 6G16G26G15G10G18
  23509039.986    -4526686.43943  -3482519.29542  23509042.279    23509039.732
  20719023.621    -5567879.66944  -4331054.58042  20719025.422    20719018.387
  20737063.838     -229068.72143   -175050.53342  20737065.216    20737060.067
  22717071.314    -8660700.41943  -6741103.16142  22717073.752    22717068.937
  20495211.955     1588309.33444   1243430.32142  20495214.120    20495208.359
  23353594.350   -11505078.17843  -8932203.89042  23353596.332    23353591.262
  21617246.888   -15870929.03143 -12361083.49342  21617249.468    21617244.418
  22727134.074    -9757947.52943  -7592527.10242  22727135.730    22727131.728
  24309848.651    17436641.35343  13578114.04342  24309849.841    24309847.157
  21629252.962   -16007073.64243 -12466918.20142  21629255.249    21629249.169
 03  6  8 17 14 30.0000000  0 10G23G21G17G29G 6G16G26G15G10G18
  23491862.210    -4616956.21243  -3552859.30642  23491864.437    23491861.894
  20714657.612    -5590823.19443  -4348932.65742  20714659.435    20714652.394
  20737345.528     -227588.46843   -173897.10242  20737346.901    20737341.770
  22719724.647    -8646757.34843  -6730238.43342  22719727.058    22719722.217
  20501922.620     1623573.99444   1270909.24242  20501924.789    20501919.047
  23349519.347   -11526492.27343  -8948890.21242  23349521.351    23349516.237
  21610797.813   -15904818.40943 -12387490.77242  21610800.446    21610795.485
  22713664.473    -9828730.35143  -7647682.49742  22713666.177    22713662.176
  24329918.241    17542107.72143  13660295.59142  24329919.505    24329916.846
  21615526.664   -16079205.92143 -12523125.13942  21615528.912    21615522.778
 03  6  8 17 15  0.0000000  0 10G23G21G17G29G 6G16G26G15G10G18
  23474730.338    -4706984.90143  -3623011.45542  23474732.557    23474729.920
  20710330.866    -5613560.52244  -4366650.05742  20710332.675    20710325.637
  20737663.853     -225915.87043   -172593.79242  20737665.196    20737660.062
  22722481.917    -8632267.58443  -6718947.71442  22722484.343    22722479.535
  20508724.716     1659319.06944   1298762.51642  20508726.887    20508721.143
  23345547.318   -11547365.01843  -8965154.72742  23345549.329    23345544.292
  21604463.533   -15938105.58143 -12413428.80942  21604466.133    21604461.216
  22700213.911    -9899413.15443  -7702759.96842  22700215.651    22700211.598
  24349994.510    17647609.19443  13742504.46642  24349995.815    24349993.079
  21601869.455   -16150974.76043 -12579048.87242  21601871.702    21601865.570
 03  6  8 17 15 30.0000000  0 10G23G21G17G29G 6G16G26G15G10G18
  23457646.266    -4796761.90543  -3692967.48042  23457648.466    23457645.831
  20706045.093    -5636082.44543  -4384199.61242  20706046.893    20706039.850
  20738020.459     -224041.78843   -171133.48342  20738021.825    20738016.699
  22725345.068    -8617222.01043  -6707223.90642  22725347.450    22725342.614
  20515619.938     1695553.57644   1326997.17042  20515622.116    20515616.377
  23341680.225   -11567686.93443  -8980989.98942  23341682.244    23341677.225
  21598245.772   -15970779.54143 -12438889.01742  21598248.431    21598243.498
  22686784.146    -9969986.75543  -7757752.34342  22686785.958    22686781.872
  24370078.790    17753152.89943  13824746.21942  24370080.119    24370077.460
  21588283.370   -16222369.86543 -12634681.38142  21588285.601    21588279.486
 03  6  8 17 16  0.0000000  0 10G23G21G17G29G 6G16G26G15G10G18
  23440609.779    -4886288.86443  -3762728.66242  23440611.982    23440609.331
  20701799.864    -5658391.23544  -4401583.09042  20701801.667    20701794.634
  20738414.890     -221969.24143   -169518.52642  20738416.227    20738411.119
  22728313.253    -8601623.72843  -6695069.40642  22728315.684    22728310.933
  20522607.676     1732274.23744   1355610.63842  20522609.837    20522604.122
  23337917.589   -11587460.62143  -8996398.07142  23337919.580    23337914.504
  21592144.747   -16002841.17143 -12463872.09242  21592147.385    21592142.418
  22673374.705   -10040453.65643  -7812661.57042  22673376.439    22673372.471
  24390170.242    17858733.73543  13907016.94842  24390171.485    24390168.903
  21574768.083   -16293393.24643 -12690024.24442  21574770.305    21574764.123
 03  6  8 17 16 30.0000000  0 10G23G21G17G29G 6G16G26G15G10G18
  23423620.832    -4975566.26043  -3832295.38842  23423622.997    23423620.324
  20697594.913    -5680488.59043  -4418801.81642  20697596.696    20697589.648
  20738846.677     -219700.36743   -167750.58942  20738848.005    20738842.894
  22731386.324    -8585475.17343  -6682486.14042  22731388.697    22731383.890
  20529687.522     1769478.99744   1384601.31642  20529689.683    20529683.988
  23334258.533   -11606687.99943  -9011380.45142  23334260.694    23334255.737
  21586160.052   -16034290.70743 -12488378.21542  21586162.697    21586157.725
  22659985.229   -10110815.79243  -7867489.17542  22659986.932    22659982.940
  24410268.019    17964347.71743  13989313.48142  24410269.169    24410266.691
  21561323.350   -16364045.56543 -12745077.96242  21561325.574    21561319.403
 03  6  8 17 17  0.0000000  0 10G23G21G17G29G 6G16G26G15G10G18
  23406679.894    -5064591.31543  -3901665.47542  23406682.028    23406679.327
  20693430.337    -5702373.67643  -4435855.13042  20693432.113    20693425.059
  20739316.233     -217232.85643   -165827.87242  20739317.579    20739312.459
  22734564.148    -8568775.08143  -6669473.09542  22734566.550    22734561.864
  20536859.719     1807168.91644   1413970.04742  20536861.866    20536856.186
  23330704.092   -11625367.35843  -9025935.79942  23330706.223    23330701.115
  21580292.575   -16065124.92443 -12512404.86142  21580295.190    21580290.168
  22646615.972   -10181071.42043  -7922233.80442  22646617.747    22646613.698
  24430371.910    18069994.00243  14071635.15742  24430373.082    24430370.623
  21547949.612   -16434324.76743 -12799840.93942  21547951.825    21547945.694
 03  6  8 17 17 30.0000000  0 10G23G21G17G29G 6G16G26G15G10G18
  23389787.202    -5153362.75143  -3970837.96642  23389789.294    23389786.494
  20689306.280    -5724045.80443  -4452742.50542  20689308.056    20689300.996
  20739823.550     -214567.09143   -163750.67242  20739824.866    20739819.750
  22737846.987    -8551523.54743  -6656030.35042  22737849.371    22737844.776
  20544124.180     1845343.75244   1443716.63842  20544126.354    20544120.655
  23327253.854   -11643498.64743  -9040064.10942  23327255.985    23327250.864
  21574542.375   -16095341.96043 -12535950.58442  21574545.013    21574540.050
  22633267.098   -10251220.14343  -7976895.08742  22633268.827    22633264.873
  24450481.468    18175670.73643  14153980.61042  24450482.810    24450480.282
  21534647.160   -16504229.55843 -12854312.16542  21534649.345    21534643.250
 03  6  8 17 18  0.0000000  0 10G23G21G17G29G 6G16G26G15G10G18
  23372942.752    -5241880.55343  -4039812.82042  23372944.842    23372942.013
  20685222.607    -5745505.74743  -4469464.54342  20685224.361    20685217.313
  20740368.414     -211703.86443   -161519.60242  20740369.737    20740364.620
  22741234.520    -8533722.35143  -6642159.30542  22741236.887    22741232.254
  20551480.589     1884001.96644   1473839.89042  20551482.772    20551477.103
  23323907.723   -11661082.96343  -9053766.17042  23323909.755    23323904.703
  21568909.933   -16124941.20643 -12559014.91942  21568912.512    21568907.439
  22619938.385   -10321262.94943  -8031473.86942  22619940.037    22619936.184
  24470596.261    18281374.60943  14236347.12542  24470597.572    24470595.164
  21521415.866   -16573760.28743 -12908491.92042  21521418.060    21521411.992
 03  6  8 17 18 30.0000000  0 10G23G21G17G29G 6G16G26G15G10G18
  23356148.101    -5330136.82443  -4108583.87442  23356150.153    23356147.308
  20681180.500    -5766747.03943  -4486016.20442  20681182.267    20681175.247
  20740952.057     -208636.80843   -159129.70842  20740953.388    20740948.270
  22744727.818    -8515365.32243  -6627855.14842  22744730.160    22744725.479
  20558930.158     1923149.54244   1504344.45842  20558932.318    20558926.681
  23320666.850   -11678113.69443  -9067036.86042  23320668.908    23320663.901
  21563396.374   -16153914.71943 -12581591.66842  21563398.971    21563393.943
  22606630.959   -10391193.35243  -8085965.02742  22606632.666    22606628.808
  24490717.049    18387109.86643  14318738.15742  24490718.393    24490716.038
  21508257.127   -16642909.73743 -12962374.57842  21508259.335    21508253.246
 03  6  8 17 19  0.0000000  0 10G23G21G17G29G 6G16G26G15G10G18
  23339401.109    -5418142.38843  -4177159.55942  23339403.238    23339400.365
  20677177.810    -5787781.37444  -4502406.60142  20677179.576    20677172.542
  20741572.163     -205377.95343   -156590.35742  20741573.531    20741568.421
  22748324.548    -8496464.96643  -6613127.60942  22748326.817    22748322.086
  20566470.492     1962774.01944   1535220.63742  20566472.634    20566467.002
  23317529.199   -11694602.73943  -9079885.47742  23317531.140    23317526.200
  21558000.003   -16182272.75043 -12603688.81642  21558002.553    21557997.544
  22593342.712   -10461023.30543  -8140377.93442  22593344.459    22593340.548
  24510841.080    18492862.26043  14401142.57242  24510842.632    24510840.055
  21495168.904   -16711688.75243 -13015968.57942  21495171.099    21495165.008
 03  6  8 17 19 30.0000000  0 10G23G21G17G29G 6G16G26G15G10G18
  23322704.427    -5505883.94043  -4245529.53142  23322706.593    23322703.607
  20673216.750    -5808596.88343  -4518626.48342  20673218.520    20673211.498
  20742231.080     -201915.48543   -153892.34642  20742232.435    20742227.327
  22752026.672    -8477009.90043  -6597967.84742  22752028.977    22752024.327
  20574103.740     2002886.94244   1566477.42342  20574105.872    20574100.298
  23314496.699   -11710538.16043  -9092302.70342  23314498.809    23314493.862
  21552723.359   -16210001.78143 -12625295.83442  21552725.932    21552720.932
  22580076.036   -10530740.59343  -8194703.05242  22580077.714    22580073.788
  24530970.374    18598642.02443  14483568.29442  24530971.971    24530969.512
  21482153.610   -16780084.50843 -13069263.93542  21482155.781    21482149.713
 03  6  8 17 20  0.0000000  0 10G23G21G17G29G 6G16G26G15G10G18
  23306056.824    -5593367.79943  -4313698.70642  23306058.936    23306055.952
  20669295.926    -5829200.85243  -4534681.53042  20669297.713    20669290.704
  20742927.350     -198256.57643   -151041.26542  20742928.702    20742923.614
  22755832.938    -8457007.75943  -6582381.78842  22755835.260    22755830.685
  20581828.415     2043480.36744   1598108.63342  20581830.581    20581825.009
  23311568.351   -11725927.69343  -9104294.55242  23311570.364    23311565.358
  21547565.298   -16237107.93343 -12646417.50242  21547567.845    21547562.795
  22566829.313   -10600352.67743  -8248946.18342  22566830.987    22566827.026
  24551103.068    18704439.45643  14566007.78242  24551104.637    24551101.946
  21469209.904   -16848103.87743 -13122266.01142  21469212.104    21469206.001
 03  6  8 17 20 30.0000000  0 10G23G21G17G29G 6G16G26G15G10G18
  23289459.107    -5680588.61543  -4381662.88142  23289461.266    23289458.319
  20665416.266    -5849588.67943  -4550568.15342  20665418.048    20665411.045
  20743661.717     -194397.43943   -148034.16242  20743663.106    20743658.003
  22759743.985    -8436455.10743  -6566366.75342  22759746.380    22759741.766
  20589645.245     2084558.05344   1630117.18942  20589647.434    20589641.874
  23308744.371   -11740766.80043  -9115857.50842  23308746.549    23308741.544
  21542526.763   -16263585.05943 -12667049.00942  21542529.366    21542524.423
  22553603.453   -10669854.74543  -8303103.59642  22553605.145    22553601.155
  24571239.445    18810256.68643  14648462.64042  24571240.782    24571238.300
  21456338.827   -16915741.58443 -13174970.68042  21456341.047    21456334.948
 03  6  8 17 21  0.0000000  0 10G23G21G17G29G 6G16G26G15G10G18
  23272911.085    -5767548.41243  -4449423.67242  23272913.290    23272910.362
  20661577.132    -5869763.42543  -4566288.74342  20661578.927    20661571.919
  20744433.640     -190340.93443   -144873.26342  20744435.020    20744429.932
  22763759.121    -8415355.49643  -6549925.52242  22763761.543    22763756.931
  20597553.536     2126116.31444   1662500.21142  20597555.706    20597550.176
  23306024.868   -11755058.58343  -9126993.96442  23306026.880    23306021.872
  21537607.729   -16289434.91043 -12687191.73642  21537610.287    21537605.250
  22540397.959   -10739249.90543  -8357177.68142  22540399.629    22540395.649
  24591378.652    18916088.48343  14730928.93342  24591379.977    24591377.573
  21443540.004   -16982999.72243 -13227379.58042  21443542.213    21443536.123
 03  6  8 17 21 30.0000000  0 10G23G21G17G29G 6G16G26G15G10G18
  23256413.220    -5854244.77743  -4516979.18242  23256415.511    23256412.532
  20657778.861    -5889723.41143  -4581841.98842  20657780.675    20657773.652
  20745243.408     -186085.62343   -141557.45642  20745244.765    20745239.737
  22767878.547    -8393708.16243  -6533057.49542  22767880.914    22767876.305
  20605553.440     2168155.89244   1695258.29042  20605555.611    20605550.075
  23303409.633   -11768801.97343  -9137703.11142  23303411.698    23303406.758
  21532808.415   -16314654.82843 -12706843.60042  21532811.039    21532806.102
  22527213.059   -10808536.73443  -8411167.36742  22527214.677    22527210.703
  24611520.495    19021934.00243  14813405.89542  24611521.953    24611519.442
  21430813.836   -17049876.30943 -13279491.16942  21430816.039    21430809.911
 03  6  8 17 22  0.0000000  0 10G23G21G17G29G 6G16G26G15G10G18
  23239966.264    -5940673.94943  -4584326.50842  23239968.475    23239965.535
  20654021.922    -5909466.29143  -4597226.05942  20654023.729    20654016.707
  20746091.523     -181628.91643   -138084.71542  20746092.882    20746087.843
  22772102.489    -8371511.45543  -6515761.38442  22772104.866    22772100.149
  20613645.285     2210678.60044   1728392.83142  20613647.459    20613641.912
  23300899.051   -11781994.84043  -9147983.25942  23300901.079    23300896.245
  21528129.868   -16339240.94843 -12726001.60542  21528132.469    21528127.483
  22514049.160   -10877712.81643  -8465070.75842  22514050.782    22514046.837
  24631665.016    19127793.39643  14895893.65642  24631666.561    24631663.852
  21418160.753   -17116368.25043 -13331303.03542  21418163.014    21418156.907
 03  6  8 17 22 30.0000000  0 10G23G21G17G29G 6G16G26G15G10G18
  23223570.365    -6026834.77743  -4651464.72742  23223572.514    23223569.558
  20650306.361    -5928991.74343  -4612440.70842  20650308.172    20650301.142
  20746977.931     -176970.72943   -134454.97942  20746979.327    20746974.267
  22776430.895    -8348765.84743  -6498037.57242  22776433.269    22776428.519
  20621828.949     2253683.87044   1761903.40042  20621831.096    20621825.565
  23298493.105   -11794637.31043  -9157834.53642  23298495.212    23298490.377
  21523572.173   -16363191.83643 -12744664.62042  21523574.753    21523569.735
  22500906.435   -10946778.14043  -8518887.84442  22500908.047    22500904.147
  24651811.749    19233664.88043  14978390.81042  24651813.185    24651810.736
  21405581.153   -17182474.54343 -13382814.40342  21405583.397    21405577.255
 03  6  8 17 23  0.0000000  0 10G23G21G17G29G 6G16G26G15G10G18
  23207225.072    -6112729.27943  -4718395.42042  23207227.198    23207224.268
  20646631.608    -5948302.89843  -4627488.37842  20646633.419    20646626.364
  20747902.100     -172114.39643   -130670.84542  20747903.478    20747898.411
  22780862.988    -8325475.17343  -6479889.02542  22780865.420    22780860.592
  20630103.684     2297167.77544   1795786.93542  20630105.856    20630100.312
  23296191.487   -11806732.61343  -9167259.45442  23296193.668    23296188.732
  21519134.910   -16386509.45143 -12762834.17642  21519137.518    21519132.571
  22487784.278   -11015735.61143  -8572620.91142  22487785.916    22487781.966
  24671959.918    19339543.28443  15060893.31242  24671961.166    24671958.912
  21393074.389   -17248197.94243 -13434027.40942  21393076.628    21393070.467
 03  6  8 17 23 30.0000000  0 10G23G21G17G29G 6G16G26G15G10G18
  23190931.008    -6198354.47143  -4785116.25242  23190933.151    23190930.300
  20642997.984    -5967397.75743  -4642367.50242  20642999.781    20642992.741
  20748864.390     -167057.85143   -126730.70342  20748865.740    20748860.647
  22785398.951    -8301638.37343  -6461314.92542  22785401.437    22785396.590
  20638469.782     2341131.69244   1830044.49642  20638471.932    20638466.389
  23293994.361   -11818279.17743  -9176256.78242  23293996.392    23293991.465
  21514818.902   -16409190.39443 -12780507.63142  21514821.497    21514816.445
  22474682.933   -11084583.03043  -8626268.18342  22474684.660    22474680.713
  24692109.321    19445428.53543  15143401.25442  24692110.729    24692108.182
  21380641.007   -17313535.60043 -13484939.82942  21380643.239    21380637.081
 03  6  8 17 24  0.0000000  0 10G23G21G17G29G 6G16G26G15G10G18
  23174688.659    -6283708.05743  -4851625.44042  23174690.896    23174688.032
  20639405.821    -5986274.75743  -4657076.86542  20639407.624    20639400.580
  20749864.973     -161799.79043   -122633.53342  20749866.338    20749861.257
  22790038.985    -8277254.75643  -6442314.75642  22790041.492    22790036.691
  20646927.324     2385576.22344   1864676.56242  20646929.491    20646923.947
  23291901.762   -11829276.03743  -9184825.75742  23291903.722    23291898.767
  21510624.531   -16431232.15143 -12797683.02642  21510627.109    21510622.023
  22461602.870   -11153318.97443  -8679828.60642  22461604.644    22461600.624
  24712259.897    19551319.59943  15225913.68242  24712261.233    24712258.565
  21368281.420   -17378485.41143 -13535550.03742  21368283.656    21368277.523
 03  6  8 17 24 30.0000000  0  9G23G21G17G29G 6G16G26G15G18
  23158499.113    -6368784.80043  -4917918.91342  23158501.317    23158498.371
  20635855.921    -6004929.62543  -4671613.13642  20635857.732    20635850.691
  20750904.661     -156336.26443   -118376.26142  20750906.027    20750900.957
  22794783.751    -8252321.03943  -6422885.92042  22794786.215    22794781.493
  20655476.984     2430504.79144   1899685.79742  20655479.157    20655473.617
  23289914.463   -11839719.23243  -9192963.30842  23289916.495    23289911.535
  21506552.768   -16452629.18943 -12814356.03142  21506555.363    21506550.345
  22448544.913   -11221939.01443  -8733298.72442  22448546.698    22448542.612
  21355996.618   -17443042.33143 -13585854.09042  21355998.823    21355992.712
 03  6  8 17 25  0.0000000  0  9G23G21G17G29G 6G16G26G15G18
  23142360.126    -6453595.37643  -4984005.00742  23142362.360    23142359.424
  20632346.130    -6023373.56343  -4685985.04842  20632347.957    20632340.927
  20751981.148     -150679.20243   -113968.18042  20751982.544    20751977.488
  22799630.800    -8226849.54043  -6403038.03442  22799633.272    22799628.568
  20664116.402     2475905.03344   1935062.57342  20664118.563    20664113.023
  23288030.320   -11849620.62343  -9200678.68542  23288032.350    23288027.336
  21502601.722   -16473392.25143 -12830535.03542  21502604.288    21502599.239
  22435506.741   -11290454.83143  -8786687.63542  22435508.532    22435504.427
  21343784.448   -17507217.69843 -13635860.84642  21343786.643    21343780.508
 03  6  8 17 25 30.0000000  0  9G23G21G17G29G 6G16G26G15G18
  23126273.397    -6538131.47443  -5049877.19642  23126275.649    23126272.701
  20628877.850    -6041599.64243  -4700187.19642  20628879.665    20628872.611
  20753095.953     -144820.91443   -109403.30242  20753097.351    20753092.292
  22804581.454    -8200833.79243  -6382766.06642  22804583.888    22804579.261
  20672846.798     2521783.54444   1970812.03642  20672848.973    20672843.434
  23286250.543   -11858973.45843  -9207966.62342  23286252.627    23286247.517
  21498772.924   -16493512.65643 -12846213.26442  21498775.539    21498770.477
  22422489.806   -11358859.02143  -8839989.55442  22422491.611    22422487.493
  21331646.347   -17571003.63643 -13685564.13042  21331648.571    21331642.395
 03  6  8 17 26  0.0000000  0  9G23G21G17G29G 6G16G26G15G18
  23110239.368    -6622390.65543  -5115533.63442  23110241.608    23110238.605
  20625451.339    -6059606.09443  -4714218.20942  20625453.156    20625446.116
  20754249.321     -138759.95243   -104680.49642  20754250.711    20754245.678
  22809635.775    -8174273.06343  -6362069.43142  22809638.257    22809633.598
  20681668.370     2568140.99244   2006934.69242  20681670.540    20681664.990
  23284575.382   -11867776.58743  -9214826.20042  23284577.314    23284572.368
  21495066.860   -16512987.88243 -12861388.75742  21495069.518    21495064.390
  22409494.316   -11427150.16443  -8893203.37642  22409496.166    22409492.133
  21319582.805   -17634397.76843 -13734962.11942  21319585.044    21319578.870
 03  6  8 17 26 30.0000000  0  9G23G21G17G29G 6G16G26G15G18
  23094257.846    -6706373.90843  -5180975.04042  23094260.049    23094257.037
  20622066.349    -6077394.51143  -4728079.32342  20622068.144    20622061.106
  20755440.962     -132498.05943    -99801.12042  20755442.346    20755437.292
  22814793.273    -8147170.47043  -6340950.58042  22814795.756    22814791.036
  20690580.498     2614974.46644   2043428.26342  20690582.681    20690577.136
  23283004.388   -11876032.31943  -9221259.22242  23283006.317    23283001.402
  21491483.452   -16531818.90243 -12876062.27242  21491486.075    21491481.001
  22396520.017   -11495330.23843  -8946330.66342  22396521.878    22396517.865
  21307593.605   -17697401.43443 -13784055.85842  21307595.823    21307589.634
 03  6  8 17 27  0.0000000  0 10G23G21G17G29G 6G16G26G15G 2G18
  23078327.723    -6790087.21343  -5246206.11742  23078329.901    23078326.855
  20618721.458    -6094972.13643  -4741776.18642  20618723.252    20618716.202
  20756669.488     -126042.23543    -94770.62742  20756670.874    20756665.823
  22820052.387    -8119533.83743  -6319415.57842  22820054.877    22820050.183
  20699581.706     2662276.06744   2080286.60642  20699583.901    20699578.384
  23281536.017   -11883748.28943  -9227271.66942  23281538.040    23281533.013
  21488021.554   -16550011.53343 -12890238.34742  21488024.186    21488019.029
  22383565.696   -11563405.69443  -8999376.41942  22383567.510    22383563.505
  25241316.641    -3919236.09153  -3047566.88752  25241318.272    25241315.709
  21295677.422   -17760021.36743 -13832850.58242  21295679.616    21295673.422
 03  6  8 17 27 30.0000000  0 10G23G21G17G29G 6G16G26G15G 2G18
  23062452.280    -6873512.74243  -5311212.94942  23062454.534    23062451.377
  20615419.895    -6112321.84943  -4755295.45042  20615421.733    20615414.661
  20757938.102     -119375.70643    -89575.94742  20757939.512    20757934.442
  22825416.235    -8091347.24943  -6297452.04642  22825418.660    22825413.939
  20708675.074     2710061.91643   2117522.28542  20708677.259    20708671.756
  23280173.540   -11890907.97343  -9232850.64442  23280175.681    23280170.497
  21484684.384   -16567547.90043 -12903903.03042  21484687.026    21484681.991
  22370634.483   -11631359.59843  -9052327.47842  22370636.332    22370632.257
  25233589.569    -3959842.12143  -3079207.94842  25233591.322    25233588.620
  21283837.587   -17822239.87043 -13881332.50042  21283839.793    21283833.598
 03  6  8 17 28  0.0000000  0 10G23G21G17G29G 6G16G26G15G 2G18
  23046630.055    -6956658.47943  -5376001.74742  23046632.322    23046629.194
  20612160.089    -6129452.35743  -4768643.90342  20612161.921    20612154.855
  20759245.019     -112507.84443    -84224.38042  20759246.412    20759241.383
  22830882.626    -8062620.60143  -6275067.66842  22830885.141    22830880.485
  20717858.729     2758322.30944   2155127.75642  20717860.945    20717855.447
  23278915.070   -11897520.96143  -9238003.60542  23278917.199    23278912.042
  21481470.706   -16584436.02843 -12917062.61642  21481473.370    21481468.274
  22357724.681   -11699200.91743  -9105190.78342  22357726.559    22357722.443
  25225939.415    -4000043.66043  -3110533.85842  25225941.286    25225938.608
  21272072.517   -17884065.53443 -13929508.31042  21272074.739    21272068.529
 03  6  8 17 28 30.0000000  0 10G23G21G17G29G 6G16G26G15G 2G18
  23030860.700    -7039527.02643  -5440574.56642  23030862.925    23030859.752
  20608941.264    -6146367.31743  -4781824.39642  20608943.104    20608936.076
  20760589.650     -105441.76743    -78718.36342  20760591.068    20760586.042
  22836451.080    -8033358.33643  -6252265.96542  22836453.518    22836448.898
  20727131.864     2807052.82843   2193099.55542  20727134.072    20727128.600
  23277760.014   -11903591.01143  -9242733.53242  23277762.047    23277756.980
  21478379.878   -16600678.45043 -12929719.04842  21478382.504    21478377.390
  22344835.692   -11766933.18643  -9157969.11942  22344837.570    22344833.383
  25218365.846    -4039843.66043  -3141546.83742  25218367.735    25218364.900
  21260381.700   -17945501.24043 -13977380.26342  21260383.901    21260377.672
 03  6  8 17 29  0.0000000  0 10G23G21G17G29G 6G16G26G15G 2G18
  23015146.157    -7122107.45643  -5504922.89842  23015148.448    23015145.124
  20605765.503    -6163055.93843  -4794828.52442  20605767.373    20605760.328
  20761973.944      -98167.40143    -73050.03542  20761975.356    20761970.332
  22842123.174    -8003551.26343  -6229039.70242  22842125.618    22842120.993
  20736496.167     2856262.45944   2231444.69242  20736498.403    20736492.911
  23276709.992   -11909108.89643  -9247033.17542  23276711.994    23276706.996
  21475414.079   -16616264.22343 -12941863.81842  21475416.708    21475411.510
  22331969.387   -11834545.96143  -9210654.35742  22331971.299    22331967.048
  25210870.604    -4079231.45343  -3172238.65142  25210872.532    25210869.667
  21248767.044   -18006536.41143 -14024940.10442  21248769.275    21248763.032
 03  6  8 17 29 30.0000000  0 10G23G21G17G29G 6G16G26G15G 2G18
  22999484.705    -7204408.87443  -5569053.80642  22999486.980    22999483.562
  20602630.860    -6179528.62243  -4807664.38242  20602632.697    20602625.701
  20763395.911      -90694.99043    -67227.38842  20763397.312    20763392.279
  22847896.853    -7973210.88543  -6205397.88542  22847899.220    22847894.567
  20745949.581     2905940.27844   2270154.65242  20745951.798    20745946.314
  23275762.956   -11914085.25043  -9250910.85642  23275765.046    23275759.977
  21472571.405   -16631202.51043 -12953504.03342  21472574.053    21472568.829
  22319123.820   -11902049.43543  -9263254.42642  22319125.756    22319121.501
  25203452.001    -4118216.53143  -3202616.66142  25203453.849    25203451.065
  21237226.780   -18067180.74143 -14072195.39142  21237229.005    21237222.746
 03  6  8 17 30  0.0000000  0 10G23G21G17G29G 6G16G26G15G 2G18
  22983877.250    -7286425.97943  -5632963.17942  22983879.548    22983876.177
  20599538.197    -6195780.68843  -4820328.33342  20599540.029    20599533.034
  20764856.411      -83019.97543    -61246.87142  20764857.828    20764852.813
  22853772.591    -7942333.55643  -6181337.66842  22853775.012    22853770.372
  20755492.684     2956089.66143   2309232.05342  20755494.909    20755489.451
  23274919.877   -11918516.18943  -9254363.54342  23274921.886    23274916.854
  21469852.994   -16645487.97143 -12964635.57142  21469855.635    21469850.392
  22306300.015   -11969438.90643  -9315765.65042  22306301.910    22306297.666
  25196111.063    -4156793.76343  -3232676.86142  25196112.863    25196109.930
  21225761.874   -18127429.07643 -14119142.12142  21225764.108    21225757.845
 03  6  8 17 30 30.0000000  0 10G23G21G17G29G 6G16G26G15G 2G18
  22968324.421    -7368156.39843  -5696649.14342  22968326.640    22968323.276
  20596487.808    -6211810.70543  -4832819.26142  20596489.628    20596482.650
  20766355.753      -75141.06243    -55107.47342  20766357.143    20766352.120
  22859750.648    -7910919.17743  -6156858.95942  22859753.046    22859748.407
  20765125.654     3006710.96843   2348677.18642  20765127.846    20765122.387
  23274180.622   -11922401.10143  -9257390.74942  23274182.734    23274177.670
  21467259.074   -16659118.59643 -12975256.83842  21467261.709    21467256.536
  22293498.200   -12036712.87043  -9368186.86842  22293500.081    22293495.823
  25188847.828    -4194961.21143  -3262417.73842  25188849.835    25188846.969
  21214372.651   -18187279.60743 -14165778.86842  21214374.916    21214368.658
 03  6  8 17 31  0.0000000  0 10G23G21G17G29G 6G16G26G15G 2G18
  22952826.478    -7449598.17143  -5760110.19942  22952828.746    22952825.351
  20593479.930    -6227617.30743  -4845136.09942  20593481.741    20593474.760
  20767894.092      -67056.98943    -48808.21142  20767895.520    20767890.496
  22865830.877    -7878967.55743  -6131961.63242  22865833.307    22865828.663
  20774848.464     3057804.53843   2388490.30942  20774850.665    20774845.211
  23273545.264   -11925739.39143  -9259992.01742  23273547.465    23273542.540
  21464790.345   -16672092.23543 -12985366.17542  21464792.961    21464787.743
  22280718.676   -12103869.92643  -9420516.99642  22280720.492    22280716.204
  25181663.149    -4232717.10143  -3291837.93942  25181665.194    25181662.326
  21203059.489   -18246730.68643 -14212104.35342  21203061.744    21203055.493
 03  6  8 17 31 30.0000000  0 10G23G21G17G29G 6G16G26G15G 2G18
  22937383.243    -7530752.88743  -5823347.58142  22937385.413    22937382.090
  20590514.136    -6243202.49643  -4857280.40342  20590515.963    20590509.000
  20769471.027      -58770.02643    -42350.85042  20769472.476    20769467.462
  22872012.674    -7846482.03443  -6106648.27342  22872015.156    22872010.489
  20784660.522     3109366.98143   2428668.78542  20784662.694    20784657.261
  23273013.737   -11928534.10843  -9262169.72342  23273015.670    23273010.758
  21462446.201   -16684410.58143 -12994964.89142  21462448.813    21462443.668
  22267960.849   -12170912.39743  -9472757.84242  22267962.657    22267958.327
  25174556.526    -4270063.33943  -3320938.92742  25174558.356    25174555.464
  21191821.894   -18305784.51443 -14258120.29142  21191824.171    21191817.886
 03  6  8 17 32  0.0000000  0 10G23G21G17G29G 6G16G26G15G 2G18
  22921994.630    -7611620.05243  -5886360.88642  22921996.833    22921993.455
  20587590.427    -6258566.81043  -4869252.59642  20587592.259    20587585.288
  20771086.480      -50280.65043    -35735.76642  20771087.908    20771082.958
  22878295.896    -7813464.41443  -6080920.30742  22878298.233    22878293.557
  20794561.515     3161396.89343   2469211.54042  20794563.720    20794558.311
  23272584.852   -11930786.31043  -9263924.69642  23272587.049    23272582.123
  21460226.936   -16696073.33543 -13004052.76842  21460229.478    21460224.381
  22255224.780   -12237840.51343  -9524909.58542  22255226.543    22255222.303
  25167527.862    -4306999.60443  -3349720.45842  25167529.661    25167526.877
  21180659.983   -18364440.69743 -14303826.38642  21180662.253    21180655.971
 03  6  8 17 32 30.0000000  0 10G23G21G17G29G 6G16G26G15G 2G18
  22906661.435    -7692196.32543  -5949147.52442  22906663.651    22906660.201
  20584709.260    -6273707.57643  -4881050.59842  20584711.084    20584704.103
  20772740.920      -41586.64043    -28961.22842  20772742.301    20772737.396
  22884680.505    -7779913.22643  -6054776.56342  22884682.799    22884678.195
  20804551.718     3213895.60044   2510119.58942  20804553.916    20804548.534
  23272259.898   -11932494.24543  -9265255.55942  23272262.024    23272256.888
  21458132.905   -16707077.22043 -13012627.23342  21458135.482    21458130.439
  22242511.038   -12304651.71843  -9576970.22942  22242512.772    22242508.559
  25160577.580    -4343522.99743  -3378180.25542  25160579.421    25160576.666
  21169574.260   -18422696.57343 -14349220.54842  21169576.508    21169570.199
 03  6  8 17 33  0.0000000  0 10G23G21G17G29G 6G16G26G15G 2G18
  22891383.349    -7772483.05543  -6011708.55442  22891385.582    22891382.088
  20581870.163    -6288627.00743  -4892676.13242  20581872.018    20581865.033
  20774434.000      -32689.74343    -22028.59642  20774435.352    20774430.423
  22891166.000    -7745831.90243  -6028219.73642  22891168.352    22891163.723
  20814630.509     3266859.94543   2551390.46742  20814632.712    20814627.339
  23272038.101   -11933660.78243  -9266164.54942  23272040.124    23272034.843
  21456164.135   -16717423.72443 -13020689.45342  21456166.636    21456161.600
  22229819.124   -12371348.05043  -9628941.37342  22229820.884    22229816.614
  25153705.797    -4379635.02843  -3406319.54242  25153707.564    25153704.761
  21158564.418   -18480553.70643 -14394304.00642  21158566.671    21158560.360
 03  6  8 17 33 30.0000000  0 10G23G21G17G29G 6G16G26G15G 2G18
  22876161.091    -7852476.68443  -6074041.17742  22876163.293    22876159.772
  20579073.864    -6303321.75543  -4904126.58842  20579075.691    20579068.716
  20776166.195      -23586.98443    -14935.54842  20776167.552    20776162.632
  22897752.584    -7711218.74243  -6001248.47642  22897755.028    22897750.419
  20824798.289     3320291.62943   2593025.50142  20824800.470    20824795.098
  23271919.459   -11934283.95843  -9266650.15842  23271921.626    23271916.212
  21454320.952   -16727109.53843 -13028236.85142  21454323.444    21454318.423
  22217149.704   -12437926.45443  -9680820.61342  22217151.407    22217147.147
  25146912.850    -4415332.53143  -3434135.79942  25146914.635    25146911.581
  21147631.007   -18538009.09743 -14439074.41842  21147633.257    21147626.936
 03  6  8 17 34  0.0000000  0 10G23G21G17G29G 6G16G26G15G 2G18
  22860994.826    -7932175.77743  -6136144.29442  22860996.990    22860993.489
  20576320.473    -6317791.02243  -4915401.34842  20576322.295    20576315.281
  20777937.679      -14277.74143     -7681.60842  20777939.049    20777934.155
  22904440.448    -7676074.56343  -5973863.44442  22904442.813    22904438.165
  20835054.806     3374189.97843   2635024.17142  20835057.004    20835051.671
  23271904.027   -11934364.12143  -9266712.64742  23271906.328    23271900.999
  21452603.846   -16736133.45443 -13035268.48842  21452606.337    21452601.234
  22204502.750   -12504386.32143  -9732607.47042  22204504.477    22204500.224
  25140199.023    -4450614.48243  -3461628.26342  25140200.626    25140197.554
  21136774.222   -18595061.47143 -14483530.78642  21136776.476    21136770.203
 03  6  8 17 34 30.0000000  0 10G23G21G17G29G 6G16G26G15G 2G18
  22845883.810    -8011584.03943  -6198020.78542  22845885.999    22845882.517
  20573609.103    -6332039.23543  -4926503.85342  20573610.974    20573603.945
  20779747.568       -4766.78543      -270.48742  20779748.931    20779744.025
  22911228.150    -7640404.96243  -5946068.98742  22911230.520    22911225.898
  20845399.107     3428549.44443   2677382.14842  20845401.287    20845395.973
  23271991.143   -11933906.57943  -9266356.13642  23271993.348    23271988.245
  21451011.790   -16744499.27543 -13041787.31242  21451014.350    21451009.322
  22191877.544   -12570731.87243  -9784305.26742  22191879.300    22191875.047
  25133563.516    -4485484.88743  -3488800.03442  25133565.013    25133561.922
  21125993.397   -18651715.00943 -14527676.38342  21125995.646    21125989.367
 03  6  8 17 35  0.0000000  0 10G23G21G17G29G 6G16G26G15G 2G18
  22830829.372    -8090695.12743  -6259665.71642  22830831.597    22830828.090
  20570940.934    -6346060.53343  -4937429.54342  20570942.815    20570935.771
  20781597.002        4951.98743      7302.56542  20781598.389    20781593.460
  22918116.726    -7604205.65843  -5917861.77742  22918119.027    22918114.460
  20855832.001     3483374.56643   2720102.97642  20855834.199    20855828.878
  23272181.663   -11932906.57843  -9265576.91142  23272183.775    23272178.653
  21449546.278   -16752200.85143 -13047788.55842  21449548.804    21449543.795
  22179275.186   -12636957.42643  -9835909.56142  22179276.976    22179272.678
  25127007.429    -4519937.59043  -3515646.31742  25127008.810    25127005.810
  21115289.605   -18707963.88643 -14571506.65842  21115291.846    21115285.549
 03  6  8 17 35 30.0000000  0 10G23G21G17G29G 6G16G26G15G 2G18
  22815831.579    -8169509.05743  -6321079.10542  22815833.763    22815830.223
  20568315.823    -6359855.61343  -4948178.95742  20568317.696    20568310.659
  20783485.766       14877.40043     15036.63742  20783487.145    20783482.207
  22925105.538    -7567478.76143  -5889243.44942  22925107.923    22925103.429
  20866353.129     3538663.28743   2763185.05442  20866355.329    20866349.993
  23272475.007   -11931365.81043  -9264376.32342  23272477.033    23272471.849
  21448207.055   -16759238.67943 -13053272.59642  21448209.619    21448204.527
  22166695.599   -12703063.41843  -9887420.69742  22166697.403    22166693.048
  25120530.510    -4553973.03043  -3542167.46442  25120531.974    25120529.092
  21104662.709   -18763808.71943 -14615022.09542  21104664.926    21104658.606
 03  6  8 17 36  0.0000000  0 10G23G21G17G29G 6G16G26G15G 2G18
  22800889.942    -8248027.30543  -6382262.07742  22800892.167    22800888.664
  20565733.387    -6373426.55743  -4958753.72142  20565735.248    20565728.209
  20785413.501       25007.60043     22930.28642  20785414.874    20785409.922
  22932194.176    -7530227.81243  -5860216.77442  22932196.607    22932192.060
  20876961.845     3594412.34643   2806625.83542  20876964.058    20876958.746
  23272870.526   -11929287.17643  -9262756.63342  23272872.544    23272867.425
  21446993.798   -16765614.47043 -13058240.76242  21446996.332    21446991.253
  22154138.408   -12769051.95943  -9938840.30842  22154140.151    22154135.800
  25114132.764    -4587593.01543  -3568364.86542  25114134.116    25114131.351
  21094112.373   -18819251.25843 -14658224.05642  21094114.563    21094108.219
 03  6  8 17 36 30.0000000  0 10G23G21G17G29G 6G16G26G15G 2G18
  22786005.315    -8326246.02043  -6443211.63842  22786007.506    22786004.090
  20563194.164    -6386770.27143  -4969151.42342  20563196.048    20563188.993
  20787380.700       35345.34843     30985.66342  20787382.094    20787377.168
  22939382.944    -7492451.11443  -5830780.41042  22939385.262    22939380.759
  20887658.504     3650623.68643   2850426.83942  20887660.752    20887655.456
  23273368.672   -11926668.67043  -9260716.25142  23273370.733    23273365.771
  21445907.104   -16771324.59243 -13062690.21342  21445909.672    21445904.698
  22141604.166   -12834919.78943  -9990165.86242  22141605.896    22141601.519
  25107814.870    -4620793.89443  -3594235.68342  25107816.118    25107813.591
  21083639.198   -18874287.98543 -14701109.79642  21083641.406    21083635.057
 03  6  8 17 37  0.0000000  0 10G23G21G17G29G 6G16G26G15G 2G18
  22771177.934    -8404164.42443  -6503927.21342  22771180.075    22771176.637
  20560698.216    -6399886.45043  -4979371.82642  20560700.089    20560693.081
  20789387.456       45890.71143     39202.81342  20789388.844    20789383.894
  22946671.346    -7454149.93943  -5800935.38042  22946673.755    22946669.196
  20898442.898     3707295.99643   2894587.03442  20898445.134    20898439.871
  23273969.483   -11923511.46143  -9258256.11642  23273971.416    23273966.589
  21444947.281   -16776368.73643 -13066620.73142  21444949.797    21444944.808
  22129092.989   -12900666.55743 -10041397.09042  22129094.731    22129090.289
  25101576.821    -4653575.63543  -3619779.94542  25101578.116    25101575.414
  21073243.302   -18928918.81443 -14743679.25442  21073245.492    21073239.155
 03  6  8 17 37 30.0000000  0 10G23G21G17G29G 6G16G26G15G 2G18
  22756406.830    -8481786.78143  -6564412.09642  22756409.004    22756405.520
  20558244.742    -6412779.44343  -4989418.31542  20558246.610    20558239.645
  20791432.887       56639.45543     47578.44242  20791434.286    20791429.327
  22954058.379    -7415330.54043  -5770686.53542  22954060.822    22954056.241
  20909313.924     3764423.34943   2939101.80942  20909316.131    20909310.910
  23274671.591   -11919821.15343  -9255380.56142  23274673.655    23274668.849
  21444113.348   -16780751.26443 -13070035.70542  21444115.862    21444110.857
  22116603.897   -12966297.00043 -10092537.66042  22116605.672    22116601.218
  25095417.595    -4685942.38043  -3645000.78942  25095418.923    25095416.480
  21062923.821   -18983147.98643 -14785935.73142  21062926.016    21062919.668
 03  6  8 17 38  0.0000000  0 10G23G21G17G29G 6G16G26G15G 2G18
  22741693.304    -8559106.79843  -6624661.39442  22741695.481    22741691.946
  20555834.744    -6425444.13843  -4999286.91142  20555836.608    20555829.654
  20793518.014       67596.73443     56116.57042  20793519.408    20793514.436
  22961544.924    -7375988.91543  -5740030.75842  22961547.350    22961542.716
  20920272.322     3822009.86143   2983974.36742  20920274.531    20920269.309
  23275476.168   -11915593.09743  -9252085.96842  23275478.163    23275473.370
  21443406.409   -16784466.33443 -13072930.57142  21443408.937    21443403.945
  22104138.016   -13031805.46743 -10143583.18642  22104139.794    22104135.355
  25089338.604    -4717888.24643  -3669893.67842  25089340.060    25089337.372
  21052681.823   -19036969.98343 -14827874.92642  21052684.032    21052677.666
 03  6  8 17 38 30.0000000  0 10G23G21G17G29G 6G16G26G15G 2G18
  22727037.333    -8636124.29043  -6684674.95342  22727039.545    22727035.951
  20553468.229    -6437880.31543  -5008977.44442  20553470.084    20553463.132
  20795642.755       78762.22643     64816.93842  20795644.163    20795639.185
  22969130.371    -7336126.87843  -5708969.46042  22969132.867    22969128.262
  20931317.761     3880053.79343   3029203.35942  20931319.949    20931314.751
  23276382.705   -11910828.83543  -9248373.58842  23276384.824    23276379.977
  21442826.441   -16787514.22043 -13075305.55942  21442828.995    21442823.955
  22091695.281   -13097192.34043 -10194533.98042  22091697.079    22091692.620
  25083339.644    -4749413.50743  -3694458.78342  25083341.207    25083338.487
  21042517.227   -19090385.13143 -14869497.09642  21042519.438    21042513.086
 03  6  8 17 39  0.0000000  0 10G23G21G17G29G 6G16G26G15G 2G18
  22712438.340    -8712841.94943  -6744454.88242  22712440.590    22712436.990
  20551144.562    -6450091.12843  -5018492.36542  20551146.426    20551139.492
  20797806.462       90132.62643     73676.97642  20797807.896    20797802.928
  22976814.095    -7295749.26143  -5677506.41542  22976816.521    22976811.962
  20942449.359     3938550.52843   3074785.18242  20942451.541    20942446.376
  23277390.575   -11905533.05343  -9244247.03342  23277392.669    23277387.716
  21442372.825   -16789897.88443 -13077162.96442  21442375.362    21442370.395
  22079275.086   -13162460.78143 -10245392.48242  22079276.885    22079272.434
  25077420.099    -4780521.28343  -3718698.62342  25077421.770    25077419.049
  21032429.535   -19143396.25743 -14910804.44142  21032431.752    21032425.365
 03  6  8 17 39 30.0000000  0 10G23G21G17G29G 6G16G26G15G 2G18
  22697897.958    -8789251.75243  -6803994.92142  22697900.187    22697896.609
  20548865.224    -6462069.14243  -5027825.88542  20548867.072    20548860.163
  20800010.554      101715.20443     82702.34542  20800012.011    20800007.025
  22984597.001    -7254850.15043  -5645637.01642  22984599.380    22984594.835
  20953668.307     3997506.08543   3120724.53642  20953670.465    20953665.300
  23278500.894   -11899699.28543  -9239701.23642  23278502.966    23278497.950
  21442047.003   -16791610.05343 -13078497.12642  21442049.534    21442044.618
  22066878.870   -13227603.18043 -10296152.77042  22066880.657    22066876.199
  25071581.285    -4811203.97543  -3742607.23542  25071582.913    25071580.290
  21022420.099   -19195995.98243 -14951791.21042  21022422.312    21022415.956
 03  6  8 17 40  0.0000000  0 10G23G21G17G29G 6G16G26G15G 2G18
  22683414.875    -8865360.78543  -6863300.59442  22683417.081    22683413.492
  20546628.769    -6473821.92643  -5036983.90642  20546630.583    20546623.674
  20802253.568      113502.11343     91886.93242  20802254.988    20802250.023
  22992477.336    -7213438.85843  -5613368.52042  22992479.643    22992475.151
  20964972.774     4056911.25943   3167014.23842  20964974.955    20964969.751
  23279711.743   -11893336.60443  -9234743.32442  23279713.706    23279708.738
  21441847.651   -16792658.03843 -13079313.74942  21441850.151    21441845.196
  22054505.215   -13292627.19343 -10346820.81642  22054506.989    22054502.506
  25065821.843    -4841469.04843  -3766190.38942  25065823.446    25065821.151
  21012487.498   -19248192.03243 -14992463.43042  21012489.715    21012483.364
 03  6  8 17 40 30.0000000  0 10G23G21G17G29G 6G16G26G15G 2G18
  22668990.364    -8941162.07943  -6922366.47142  22668992.538    22668988.930
  20544436.317    -6485343.26043  -5045961.57442  20544438.174    20544431.241
  20804536.843      125500.69043    101236.45542  20804538.257    20804533.303
  23000456.021    -7171510.61843  -5580697.20142  23000458.323    23000453.795
  20976363.771     4116771.20143   3213658.29842  20976365.954    20976360.781
  23281023.988   -11886439.66943  -9229369.10942  23281026.090    23281021.188
  21441775.825   -16793035.27743 -13079607.70742  21441778.364    21441773.396
  22042155.380   -13357526.06243 -10397391.34742  22042157.149    22042152.651
  25060143.176    -4871309.73943  -3789442.83542  25060144.906    25060142.730
  21002633.030   -19299977.44443 -15032815.67942  21002635.267    21002628.884
 03  6  8 17 41  0.0000000  0 10G23G21G17G29G 6G16G26G15G 2G18
  22654624.483    -9016654.82543  -6981191.91742  22654626.667    22654623.080
  20542288.100    -6496632.17743  -5054758.13342  20542289.965    20542283.032
  20806860.345      137710.73543    110750.75742  20806861.801    20806856.803
  23008532.841    -7129066.47643  -5547623.88242  23008535.230    23008530.691
  20987841.108     4177084.81343   3260655.85442  20987843.277    20987838.138
  23282437.946   -11879009.20743  -9223579.17442  23282440.032    23282435.163
  21441831.817   -16792741.41843 -13079378.73642  21441834.351    21441829.318
  22029829.441   -13422299.31443 -10447863.99042  22029831.191    22029826.700
  25054545.659    -4900725.74743  -3812364.44442  25054547.208    25054545.074
  20992856.746   -19351351.94243 -15072847.73342  20992859.001    20992852.591
 03  6  8 17 41 30.0000000  0 10G23G21G17G29G 6G16G26G15G 2G18
  22640315.937    -9091846.62443  -7039782.85142  22640318.091    22640314.506
  20540182.558    -6507696.80343  -5063379.93042  20540184.452    20540177.504
  20809222.497      150123.93443    120423.36242  20809223.953    20809218.975
  23016706.103    -7086116.35743  -5514156.30142  23016708.462    23016703.867
  20999403.009     4237842.65943   3307999.58942  20999405.164    20999399.999
  23283951.594   -11871054.81243  -9217380.95942  23283953.721    23283948.831
  21442013.826   -16791784.46443 -13078633.06342  21442016.444    21442011.469
  22017525.823   -13486954.92043 -10498244.95542  22017527.604    22017523.126
  25049027.189    -4929725.03843  -3834961.21442  25049028.659    25049026.740
  20983157.149   -19402323.73643 -15112565.99542  20983159.378    20983152.957
 03  6  8 17 42  0.0000000  0 10G23G21G17G29G 6G16G26G15G 2G18
  22626066.456    -9166727.53143  -7098131.53142  22626068.627    22626065.022
  20538121.509    -6518527.71843  -5071819.61142  20538123.381    20538116.470
  20811625.154      162750.00543    130261.84142  20811626.600    20811621.639
  23024976.996    -7042652.67643  -5480288.53742  23024979.335    23024974.783
  21011050.897     4299052.46943   3355695.50642  21011053.068    21011047.871
  23285566.708   -11862568.30143  -9210768.12042  23285568.651    23285563.801
  21442323.815   -16790155.35843 -13077363.63242  21442326.431    21442321.480
  22005246.451   -13551483.39943 -10548526.87542  22005248.226    22005243.725
  25043590.145    -4958297.93543  -3857225.83542  25043591.610    25043589.450
  20973535.989   -19452883.28343 -15151963.01642  20973538.201    20973531.772
 03  6  8 17 42 30.0000000  0 10G23G21G17G29G 6G16G26G15G 2G18
  22611876.067    -9241297.90443  -7156238.24542  22611878.311    22611874.648
  20536104.843    -6529125.67643  -5080077.77242  20536106.685    20536099.747
  20814068.155      175587.85243    140265.34142  20814069.572    20814064.628
  23033345.190    -6998677.72043  -5446022.38542  23033347.552    23033343.040
  21022784.297     4360711.92943   3403741.79442  21022786.474    21022781.343
  23287282.543   -11853551.84043  -9203742.32942  23287284.501    23287279.641
  21442761.609   -16787854.82843 -13075571.02042  21442764.219    21442759.250
  21992991.181   -13615885.35943 -10598710.20642  21992992.911    21992988.414
  25038233.617    -4986445.30543  -3879158.81542  25038235.323    25038233.140
  20963993.121   -19503031.28043 -15191039.35542  20963995.344    20963988.912
 03  6  8 17 43  0.0000000  0 10G23G21G17G29G 6G16G26G15G 2G18
  22597743.958    -9315562.60743  -7214106.76842  22597746.156    22597742.449
  20534131.496    -6539495.80643  -5088158.40042  20534133.364    20534126.369
  20816550.400      188632.06343    150429.64142  20816551.806    20816546.871
  23041809.367    -6954198.68043  -5411363.42442  23041811.688    23041807.182
  21034602.014     4422814.32943   3452133.23742  21034604.186    21034599.084
  23289097.898   -11844011.95343  -9196308.65942  23289099.855    23289094.971
  21443326.171   -16784888.19143 -13073259.35442  21443328.758    21443323.792
  21980758.922   -13680166.01843 -10648799.02042  21980760.668    21980756.190
  25032957.360    -5014172.24643  -3900764.24942  25032958.814    25032956.504
  20954527.577   -19552773.02143 -15229799.12742  20954529.809    20954523.373
 03  6  8 17 43 30.0000000  0 10G23G21G17G29G 6G16G26G15G 2G18
  22583671.566    -9389513.40943  -7271730.69642  22583673.746    22583670.036
  20532202.950    -6549630.29243  -5096055.40742  20532204.839    20532197.848
  20819073.445      201890.85143    160761.13942  20819074.879    20819069.956
  23050370.568    -6909209.43043  -5376306.92042  23050372.907    23050368.359
  21046505.140     4485365.62043   3500874.46542  21046507.329    21046502.255
  23291014.054   -11833942.52443  -9188462.39242  23291016.087    23291011.102
  21444018.907   -16781247.89743 -13070422.76642  21444021.512    21444016.489
  21968551.297   -13744317.73743 -10698787.35842  21968552.971    21968548.518
  25027762.460    -5041471.21743  -3922036.14142  25027764.069    25027761.471
  20945140.740   -19602101.01243 -15268236.50042  20945142.988    20945136.544
 03  6  8 17 44  0.0000000  0 10G23G21G17G29G 6G16G26G15G 2G18
  22569658.213    -9463153.65843  -7329112.64742  22569660.403    22569656.657
  20530318.607    -6559532.56643  -5103771.47842  20530320.478    20530313.519
  20821636.629      215360.28143    171256.77542  20821638.043    20821633.135
  23059027.699    -6863715.49343  -5340857.14642  23059030.134    23059025.654
  21058492.764     4548360.64443   3549961.44742  21058494.923    21058489.843
  23293030.117   -11823348.68943  -9180207.45442  23293032.141    23293027.002
  21444839.029   -16776937.88143 -13067064.31542  21444841.630    21444836.662
  21956367.435   -13808344.03043 -10748677.95542  21956369.145    21956364.719
  25022648.394    -5068345.93943  -3942977.40442  25022650.261    25022647.449
  20935831.940   -19651019.02343 -15306354.40242  20935834.168    20935827.722
 03  6  8 17 44 30.0000000  0 10G23G21G17G29G 6G16G26G15G 2G18
  22555704.166    -9536481.99443  -7386251.53342  22555706.444    22555702.626
  20528478.564    -6569202.11943  -5111306.20442  20528480.423    20528473.476
  20824240.006      229041.04243    181917.08042  20824241.399    20824236.519
  23067780.821    -6817717.84043  -5305014.86742  23067783.166    23067778.888
  21070564.663     4611798.69943   3599393.65842  21070566.842    21070561.745
  23295145.820   -11812230.86943  -9171544.23942  23295147.794    23295142.666
  21445786.800   -16771957.55943 -13063183.54542  21445789.383    21445784.422
  21944207.755   -13872243.86243 -10798470.01342  21944209.396    21944204.978
  25017615.227    -5094795.46843  -3963587.45542  25017617.262    25017614.405
  20926601.362   -19699525.90543 -15344151.94642  20926603.613    20926597.156
 03  6  8 17 45  0.0000000  0 10G23G21G17G29G 6G16G26G15G 2G18
  22541809.473    -9609498.93943  -7443147.79842  22541811.743    22541807.872
  20526682.725    -6578639.41143  -5118659.94542  20526684.584    20526677.632
  20826883.461      242932.36643    192741.46842  20826884.855    20826879.966
  23076629.249    -6771219.16843  -5268782.18542  23076631.633    23076627.376
  21082720.382     4675677.25943   3649169.11842  21082722.575    21082717.462
  23297360.635   -11800591.45043  -9162474.53742  23297362.687    23297357.640
  21446861.839   -16766307.93443 -13058781.23342  21446864.448    21446859.503
  21932071.957   -13936017.86143 -10848164.01942  21932073.593    21932069.176
  25012662.861    -5120820.62843  -3983866.77342  25012664.739    25012662.347
  20917448.840   -19747622.81143 -15381630.03442  20917451.052    20917444.579
 03  6  8 17 45 30.0000000  0 10G23G21G17G29G 6G16G26G15G 2G18
  22527974.366    -9682202.79743  -7499800.08842  22527976.599    22527972.727
  20524931.409    -6587842.65443  -5125831.31942  20524933.273    20524926.320
  20829567.241      257035.59043    203730.97042  20829568.630    20829563.731
  23085573.049    -6724220.04843  -5232159.54542  23085575.326    23085571.097
  21094959.841     4739995.89443   3699287.48542  21094962.041    21094956.938
  23299674.574   -11788430.69943  -9152998.67742  23299676.680    23299671.740
  21448064.516   -16759988.11143 -13053856.70042  21448067.093    21448062.105
  21919960.315   -13999664.96043 -10897759.14342  21919961.929    21919957.528
  25007791.739    -5146420.31743  -4003814.60642  25007793.527    25007790.805
  20908374.531   -19795308.56443 -15418787.74342  20908376.748    20908370.251
 03  6  8 17 46  0.0000000  0 10G23G21G17G29G 6G16G26G15G 2G18
  22514199.770    -9754588.71543  -7556204.63942  22514201.938    22514198.065
  20523225.344    -6596808.09043  -5132817.38342  20523227.192    20523220.256
  20832292.044      271354.45243    214888.50042  20832293.420    20832288.544
  23094612.434    -6676717.85743  -5195144.88142  23094614.731    23094610.428
  21107283.547     4804757.30643   3749750.87142  21107285.758    21107280.650
  23302088.338   -11775745.91243  -9143114.42742  23302090.449    23302085.505
  21449395.482   -16752993.93243 -13048406.69742  21449398.053    21449393.041
  21907873.740   -14063180.27943 -10947251.59142  21907875.358    21907870.930
  25003001.923    -5171590.20643  -4023427.43942  25003003.818    25003001.034
  20899379.333   -19842578.60543 -15455621.52142  20899381.551    20899375.035
 03  6  8 17 46 30.0000000  0 10G23G21G17G29G 6G16G26G15G 2G18
  22500484.767    -9826661.55243  -7612365.22242  22500486.938    22500483.051
  20521563.684    -6605540.35943  -5139621.75642  20521565.500    20521558.575
  20835056.974      285884.37543    226210.49742  20835058.400    20835053.536
  23103746.043    -6628719.54743  -5157743.62742  23103748.486    23103744.237
  21119690.283     4869954.86543   3800554.11342  21119692.471    21119687.369
  23304600.739   -11762543.41543  -9132826.79142  23304602.706    23304597.823
  21450853.684   -16745330.85743 -13042435.46542  21450856.287    21450851.297
  21895811.247   -14126568.83543 -10996645.24942  21895812.930    21895808.472
  24998292.950    -5196335.44943  -4042709.44742  24998294.762    24998291.876
  20890462.165   -19889438.30843 -15492135.55842  20890464.404    20890457.905
 03  6  8 17 47  0.0000000  0 10G23G21G17G29G 6G16G26G15G 2G18
  22486829.788    -9898418.74943  -7668279.85742  22486831.973    22486828.061
  20519946.872    -6614036.73243  -5146242.31542  20519948.702    20519941.780
  20837862.597      300627.68143    237698.76642  20837863.987    20837859.134
  23112974.390    -6580224.84643  -5119955.59342  23112976.772    23112972.476
  21132180.121     4935589.19843   3851697.70542  21132182.297    21132177.225
  23307211.798   -11748822.79943  -9122135.41042  23307213.775    23307208.881
  21452439.484   -16736997.07743 -13035941.61642  21452442.081    21452437.170
  21883773.358   -14189828.05643 -11045938.14042  21883775.058    21883770.615
  24993665.098    -5220653.76743  -4061658.76142  24993666.934    24993664.250
  20881623.488   -19935885.59043 -15528328.22342  20881625.758    20881619.269
 03  6  8 17 47 30.0000000  0 10G23G21G17G29G 6G16G26G15G 2G18
  22473235.111    -9969858.48643  -7723947.11142  22473237.350    22473233.457
  20518375.175    -6622296.06643  -5152678.17442  20518377.013    20518370.111
  20840709.064      315585.85243    249354.46242  20840710.462    20840705.591
  23122297.114    -6531234.12343  -5081781.05342  23122299.486    23122295.168
  21144753.006     5001660.03143   3903181.42242  21144755.184    21144750.134
  23309921.362   -11734583.85943  -9111040.15942  23309923.456    23309918.640
  21454153.203   -16727991.41143 -13028924.21542  21454155.780    21454150.876
  21871760.490   -14252956.38943 -11095129.03742  21871762.157    21871757.672
  24989118.805    -5244543.87843  -4080274.42042  24989120.439    24989118.032
  20872863.619   -19981918.98143 -15564198.37542  20872865.865    20872859.401
 03  6  8 17 48  0.0000000  0 10G23G21G17G29G 6G16G26G15G 2G18
  22459700.307   -10040983.93443  -7779369.47842  22459702.549    22459698.689
  20516848.039    -6630321.40443  -5158931.69442  20516849.846    20516842.933
  20843595.697      330755.31343    261174.79942  20843597.136    20843592.261
  23131713.122    -6481752.68743  -5043224.12842  23131715.534    23131711.303
  21157407.944     5068162.14543   3955001.21242  21157410.130    21157405.109
  23312728.629   -11719831.79343  -9099545.07942  23312730.685    23312725.934
  21455994.075   -16718317.81443 -13021386.35042  21455996.644    21455991.709
  21859771.823   -14315957.18543 -11144220.55242  21859773.496    21859769.015
  24984653.630    -5268009.34843  -4098559.23342  24984655.415    24984653.108
  20864181.829   -20027542.11243 -15599748.84442  20864184.062    20864177.594
 03  6  8 17 48 30.0000000  0 10G23G21G17G29G 6G16G26G15G 2G18
  22446226.315   -10111789.74943  -7834542.77942  22446228.596    22446224.776
  20515366.300    -6638107.98143  -5164999.16742  20515368.123    20515361.206
  20846523.513      346140.97443    273163.60242  20846524.946    20846520.064
  23141222.969    -6431777.67543  -5004282.61342  23141225.441    23141221.212
  21170145.577     5135098.69643   4007159.51342  21170147.780    21170142.761
  23315634.224   -11704563.36643  -9087647.66542  23315636.134    23315631.496
  21457962.801   -16707972.01043 -13013324.67942  21457965.371    21457960.473
  21847808.417   -14378825.18943 -11193208.59042  21847810.096    21847805.607
  24980269.794    -5291045.45843  -4116509.44942  24980271.668    24980269.973
  20855578.971   -20072750.27043 -15634975.95742  20855581.185    20855574.755
 03  6  8 17 49  0.0000000  0 10G23G21G17G29G 6G16G26G15G 2G18
  22432813.034   -10182277.16043  -7889467.96842  22432815.254    22432811.375
  20513929.763    -6645657.06343  -5170881.57742  20513931.599    20513924.673
  20849492.198      361741.36943    285319.72742  20849493.605    20849488.736
  23150826.146    -6381312.48243  -4964959.12842  23150828.664    23150824.447
  21182965.260     5202466.61443   4059653.93742  21182967.467    21182962.510
  23318637.591   -11688781.52843  -9075350.11642  23318639.414    23318634.583
  21460059.108   -16696955.70243 -13004740.53442  21460061.641    21460056.840
  21835870.046   -14441561.97543 -11242094.39242  21835871.666    21835867.172
  24975967.578    -5313653.86143  -4134126.36042  24975969.372    24975967.487
  20847054.804   -20117545.12543 -15669881.02742  20847056.997    20847050.542
 03  6  8 17 49 30.0000000  0 10G23G21G17G29G 6G16G26G15G 2G18
  22419460.270   -10252446.15343  -7944145.03742  22419462.526    22419458.593
  20512538.336    -6652969.04043  -5176579.23042  20512540.184    20512533.262
  20852501.773      377556.71243    297643.34942  20852503.180    20852498.336
  23160522.210    -6330359.39943  -4925255.45242  23160524.664    23160520.507
  21195866.670     5270263.77743   4112482.84242  21195868.846    21195863.956
  23321737.893   -11672488.34943  -9062654.15142  23321740.010    23321735.065
  21462282.820   -16685269.86543 -12995634.68842  21462285.356    21462280.548
  21823956.585   -14504167.52643 -11290877.92742  21823958.193    21823953.751
  24971746.763    -5335834.99843  -4151410.33142  24971748.495    24971745.957
  20838609.176   -20161927.33543 -15704464.55042  20838611.322    20838604.889
 03  6  8 17 50  0.0000000  0 10G23G21G17G29G 6G16G26G15G 2G18
  22406168.228   -10322295.90343  -7998573.33442  22406170.504    22406166.590
  20511192.325    -6660042.62543  -5182091.12142  20511194.138    20511187.207
  20855552.265      393587.16043    310134.58342  20855553.696    20855548.851
  23170310.985    -6278919.80243  -4885172.69142  23170313.307    23170309.170
  21208849.536     5338488.95843   4165645.26842  21208851.706    21208846.844
  23324935.432   -11655685.20243  -9049560.82542  23324937.478    23324932.602
  21464633.977   -16672914.64143 -12986007.24042  21464636.485    21464631.660
  21812068.178   -14566641.26743 -11339558.74242  21812069.834    21812065.397
  24967607.347    -5357588.47243  -4168361.05442  24967609.120    24967606.566
  20830242.107   -20205896.42243 -15738726.16042  20830244.269    20830237.837
 03  6  8 17 50 30.0000000  0 10G23G21G17G29G 6G16G26G15G 2G18
  22392937.533   -10391823.51143  -8052750.63242  22392939.796    22392935.869
  20509892.064    -6666875.58643  -5187415.51742  20509893.892    20509886.952
  20858644.223      409835.31843    322795.45842  20858645.640    20858640.814
  23180192.261    -6226993.24843  -4844710.46642  23180194.610    23180190.573
  21221914.032     5407142.93843   4219141.82642  21221916.196    21221911.328
  23328230.126   -11638370.84643  -9036069.15242  23328232.273    23328227.364
  21467112.946   -16659887.82943 -12975856.47642  21467115.457    21467110.625
  21800205.428   -14628980.29743 -11388134.59742  21800207.082    21800202.651
  24963549.705    -5378911.92143  -4184976.74442  24963551.534    24963548.722
  20821954.162   -20249449.82043 -15772663.85342  20821956.331    20821949.891
 03  6  8 17 51  0.0000000  0 10G23G21G17G29G 6G16G26G15G 2G18
  22379768.022   -10461029.50343  -8106677.30042  22379770.297    22379766.341
  20508637.412    -6673468.78143  -5192553.08142  20508639.273    20508632.348
  20861777.393      426300.21143    335625.21842  20861778.838    20861774.019
  23190165.723    -6174582.47443  -4803870.93942  23190168.049    23190164.075
  21235059.565     5476222.92143   4272970.34342  21235061.736    21235056.840
  23331621.877   -11620547.97643  -9022181.22542  23331623.852    23331618.870
  21469719.355   -16646191.01943 -12965183.62642  21469721.933    21469717.046
  21788368.215   -14691185.21743 -11436605.93642  21788369.893    21788365.434
  24959573.769    -5399806.46543  -4201258.18642  24959575.521    24959572.725
  20813745.085   -20292588.70243 -15806278.55142  20813747.257    20813740.818
 03  6  8 17 51 30.0000000  0 10G23G21G17G29G 6G16G26G15G 2G18
  22366659.377   -10529915.79443  -8160354.87542  22366661.676    22366657.666
  20507428.226    -6679823.17143  -5197504.56442  20507430.082    20507423.147
  20864951.519      442980.13543    348622.53442  20864952.942    20864948.140
  23200230.440    -6121691.78243  -4762657.43742  23200232.743    23200228.881
  21248285.427     5545725.09243   4327127.83042  21248287.604    21248282.696
  23335109.494   -11602220.64243  -9007900.21042  23335111.541    23335106.539
  21472452.688   -16631826.98143 -12953990.86942  21472455.307    21472450.403
  21776556.156   -14753257.78743 -11484974.15042  21776557.876    21776553.401
  24955678.668    -5420274.56343  -4217207.31942  24955680.581    24955677.994
  20805614.419   -20335315.60843 -15839572.22942  20805616.585    20805610.133
 03  6  8 17 52  0.0000000  0 10G23G21G17G29G 6G16G26G15G 2G18
  22353612.034   -10598479.72743  -8213781.26042  22353614.319    22353610.335
  20506264.825    -6685936.86943  -5202268.49442  20506266.705    20506259.773
  20868167.039      459877.59943    361789.36742  20868168.435    20868163.655
  23210386.619    -6068320.56343  -4721069.49242  23210388.998    23210385.091
  21261591.725     5615650.01343   4381614.72342  21261593.906    21261589.006
  23338693.116   -11583388.03243  -8993225.46142  23338695.198    23338690.275
  21475313.355   -16616793.89843 -12942276.77842  21475316.003    21475311.071
  21764769.816   -14815195.51743 -11533237.28442  21764771.550    21764767.061
  24951865.140    -5440313.98543  -4232822.48642  24951867.260    24951864.384
  20797562.604   -20377628.16843 -15872543.03642  20797564.765    20797558.303
 03  6  8 17 52 30.0000000  0 10G23G21G17G29G 6G16G26G15G 2G18
  22340626.521   -10666718.88243  -8266954.56642  22340628.796    22340624.832
  20505147.683    -6691807.62443  -5206843.11442  20505149.551    20505142.619
  20871424.238      476994.40543    375127.11342  20871425.682    20871420.881
  23220634.460    -6014468.77743  -4679107.07642  23220636.865    23220632.737
  21274978.562     5685998.04243   4436431.31342  21274980.722    21274975.842
  23342373.104   -11564049.63743  -8978156.62742  23342375.243    23342370.361
  21478301.638   -16601090.44643 -12930040.32242  21478304.284    21478299.355
  21753009.613   -14876995.92643 -11581393.42642  21753011.318    21753006.802
  24948133.739    -5459922.89943  -4248102.12242  24948135.654    24948132.798
  20789589.977   -20419524.52243 -15905189.53442  20789592.138    20789585.670
 03  6  8 17 53  0.0000000  0 10G23G21G17G29G 6G16G26G15G 2G18
  22327702.310   -10734635.75543  -8319876.74942  22327704.562    22327700.600
  20504076.299    -6697437.82943  -5211230.29142  20504078.173    20504071.244
  20874722.718      494327.82243    388633.65342  20874724.136    20874719.346
  23230972.649    -5960141.35843  -4636774.04242  23230975.060    23230970.928
  21288445.063     5756764.67043   4491574.10042  21288447.247    21288442.337
  23346148.297   -11544210.14343  -8962697.30242  23346150.470    23346145.773
  21481416.876   -16584719.93443 -12917284.06942  21481419.555    21481414.547
  21741275.004   -14938661.41243 -11629444.42042  21741276.727    21741272.224
  24944483.503    -5479104.28343  -4263048.66642  24944485.465    24944482.989
  20781696.039   -20461007.44943 -15937513.87742  20781698.198    20781691.721
 03  6  8 17 53 30.0000000  0 10G23G21G17G29G 6G16G26G15G 2G18
  22314839.847   -10802228.27243  -8372546.18342  22314842.088    22314838.078
  20503051.095    -6702825.26943  -5215428.29842  20503052.984    20503046.046
  20878062.827      511880.07743    402310.71342  20878064.227    20878059.443
  23241401.298    -5905338.39643  -4594070.47142  23241403.766    23241399.598
  21301991.229     5827950.05643   4547043.17742  21301993.432    21301988.531
  23350019.049   -11523869.50843  -8946847.48942  23350021.142    23350016.364
  21484659.252   -16567681.43643 -12904007.32442  21484661.883    21484656.883
  21729566.458   -15000189.99243 -11677388.74042  21729568.194    21729563.682
  24940915.317    -5497856.66843  -4277660.92942  24940917.128    24940914.776
  20773881.040   -20502075.72943 -15969515.12642  20773883.174    20773876.682
 03  6  8 17 54  0.0000000  0 10G23G21G17G29G 6G16G26G15G 2G18
  22302039.246   -10869495.90843  -8424962.47242  22302041.461    22302037.441
  20502072.125    -6707969.66643  -5219436.92542  20502074.035    20502067.098
  20881444.653      529651.64943    416158.67142  20881446.052    20881441.262
  23251920.049    -5850062.01143  -4550997.99942  23251922.560    23251918.352
  21315616.702     5899552.53543   4602837.25842  21315618.919    21315614.062
  23353984.853   -11503029.29143  -8930608.38642  23353986.951    23353982.097
  21488028.582   -16549975.44243 -12890210.44742  21488031.261    21488026.203
  21717884.060   -15061581.13743 -11725225.97342  21717885.803    21717881.306
  24937428.652    -5516180.05643  -4291938.87342  24937430.488    24937427.823
  20766144.971   -20542728.94343 -16001192.94442  20766147.087    20766140.600
 03  6  8 17 54 30.0000000  0 10G23G21G17G29G 6G16G26G15G 2G18
  22289300.041   -10936440.60043  -8477127.11642  22289302.272    22289298.236
  20501139.122    -6712872.71743  -5223257.48742  20501140.998    20501134.083
  20884867.774      547640.12943    430175.64842  20884869.176    20884864.355
  23262528.177    -5794315.75343  -4507559.38942  23262530.766    23262526.555
  21329320.868     5971568.21743   4658953.32642  21329323.058    21329318.227
  23358045.037   -11481693.29543  -8913982.95342  23358047.023    23358042.286
  21491524.446   -16531604.68743 -12875895.57342  21491527.080    21491522.014
  21706227.535   -15122836.69943 -11772957.54942  21706229.223    21706224.738
  24934022.951    -5534076.56443  -4305884.15442  24934024.893    24934021.737
  20758487.430   -20582969.50943 -16032549.22242  20758489.568    20758483.077
 03  6  8 17 55  0.0000000  0 10G23G21G17G29G 6G16G26G15G 2G18
  22276622.976   -11003058.95343  -8529037.45742  22276625.180    22276621.119
  20500252.687    -6717531.13043  -5226887.42442  20500254.541    20500247.625
  20888332.852      565849.17543    444364.49842  20888334.247    20888329.450
  23273225.974    -5738098.71043  -4463753.91642  23273228.471    23273224.300
  21343103.970     6043998.53843   4715392.48742  21343106.133    21343101.286
  23362199.777   -11459860.11843  -8896970.11042  23362201.839    23362197.011
  21495147.190   -16512566.87243 -12861060.91642  21495149.859    21495144.778
  21694597.423   -15183953.05943 -11820580.65342  21694599.154    21694594.648
  24930698.777    -5551543.50643  -4319494.76342  24930700.847    24930697.658
  20750908.950   -20622794.65143 -16063581.78742  20750911.066    20750904.605
 03  6  8 17 55 30.0000000  0 10G23G21G17G29G 6G16G26G15G 2G18
  22264008.415   -11069348.71343  -8580691.76642  22264010.627    22264006.510
  20499413.214    -6721942.57643  -5230324.92042  20499415.064    20499408.162
  20891840.256      584280.74643    458726.74042  20891841.674    20891836.877
  23284013.331    -5681411.33543  -4419581.95642  23284015.732    23284011.529
  21356965.915     6116843.35043   4772154.63142  21356968.073    21356963.255
  23366449.171   -11437529.61943  -8879569.75042  23366451.216    23366446.381
  21498897.098   -16492860.79243 -12845705.53542  21498899.775    21498894.728
  21682994.243   -15244928.08043 -11868093.62242  21682995.947    21682991.466
  24927456.759    -5568579.13543  -4332769.31242  24927458.613    24927455.863
  20743409.869   -20662202.51943 -16094289.21942  20743411.988    20743405.541
 03  6  8 17 56  0.0000000  0 10G23G21G17G29G 6G16G26G15G 2G18
  22251455.891   -11135312.24343  -8632091.85642  22251458.110    22251454.041
  20498620.200    -6726109.86443  -5233572.15942  20498622.058    20498615.147
  20895389.573      602932.48043    473260.54242  20895390.993    20895386.218
  23294889.255    -5624258.03243  -4375046.93742  23294891.656    23294887.512
  21370905.899     6190098.31843   4829236.36642  21370908.035    21370903.284
  23370792.320   -11414706.61043  -8861785.60342  23370794.347    23370789.478
  21502773.559   -16472490.03943 -12829832.22842  21502776.191    21502771.182
  21671417.582   -15305763.87343 -11915498.09942  21671419.298    21671414.775
  24924296.348    -5585186.60943  -4345710.22142  24924298.036    24924295.614
  20735989.615   -20701196.20243 -16124673.90742  20735991.742    20735985.272
 03  6  8 17 56 30.0000000  0 10G23G21G17G29G 6G16G26G15G 2G18
  22238965.607   -11200948.87543  -8683237.21242  22238967.812    22238963.755
  20497873.914    -6730031.54743  -5236628.01742  20497875.803    20497868.886
  20898980.972      621805.30243    487966.61742  20898982.407    20898977.630
  23305853.524    -5566640.48243  -4330150.15542  23305855.926    23305851.784
  21384923.660     6263761.99143   4886636.57642  21384925.801    21384921.062
  23375229.165   -11391392.11043  -8843618.49942  23375231.049    23375226.174
  21506776.403   -16451455.00843 -12813441.29542  21506779.032    21506774.007
  21659867.548   -15366459.54943 -11962793.40342  21659869.287    21659864.709
  24921217.680    -5601365.54743  -4358317.17642  24921219.299    24921216.690
  20728648.249   -20739775.37743 -16154735.59542  20728650.361    20728643.868
 03  6  8 17 57  0.0000000  0 10G23G21G17G29G 6G16G26G15G 2G18
  22226537.296   -11266259.76543  -8734128.74842  22226539.540    22226535.418
  20497174.114    -6733708.89443  -5239493.48542  20497176.029    20497169.111
  20902614.113      640897.58343    502843.70242  20902615.592    20902610.802
  23316905.331    -5508562.06643  -4284894.26442  23316907.889    23316903.738
  21399018.632     6337831.12043   4944352.72642  21399020.751    21399015.957
  23379758.527   -11367589.43843  -8825070.98542  23379760.530    23379755.762
  21510905.242   -16429757.94643 -12796534.49242  21510907.860    21510902.835
  21648344.078   -15427016.01743 -12009980.22742  21648345.751    21648341.178
  24918220.323    -5617117.90143  -4370591.73542  24918221.896    24918219.059
  20721385.419   -20777941.70743 -16184475.59142  20721387.559    20721381.038
 03  6  8 17 57 30.0000000  0 10G23G21G17G29G 6G16G26G15G 2G18
  22214171.845   -11331240.57343  -8784763.10342  22214174.057    22214169.885
  20496521.636    -6737137.57743  -5242165.18942  20496523.575    20496516.679
  20906289.804      660213.48343    517895.03742  20906291.275    20906286.511
  23328045.452    -5450020.96743  -4239277.83042  23328047.884    23328043.818
  21413191.115     6412308.04343   5002386.63742  21413193.263    21413188.494
  23384381.217   -11343296.40643  -8806141.36142  23384383.311    23384378.611
  21515160.635   -16407395.68343 -12779109.35442  21515163.275    21515158.276
  21636847.847   -15487428.75143 -12057055.04542  21636849.584    21636844.988
  24915304.775    -5632439.95543  -4382530.99742  24915306.512    24915303.434
  20714201.927   -20815691.27343 -16213890.83542  20714204.061    20714197.523
 03  6  8 17 58  0.0000000  0 10G23G21G17G29G 6G16G26G15G 2G18
  22201868.799   -11395893.25143  -8835141.75842  22201871.025    22201866.847
  20495916.105    -6740319.78143  -5244644.82942  20495918.014    20495911.130
  20910007.702      679751.22743    533119.24042  20910009.179    20910004.425
  23339272.671    -5391021.53443  -4193304.24442  23339275.088    23339271.056
  21427440.436     6487188.66943   5060735.11642  21427442.602    21427437.853
  23389096.569   -11318517.20343  -8786832.92342  23389098.650    23389094.057
  21519542.007   -16384371.32343 -12761168.29942  21519544.654    21519539.630
  21625378.682   -15547699.52343 -12104019.24642  21625380.427    21625375.811
  24912470.251    -5647334.00843  -4394136.74942  24912472.148    24912469.631
  20707097.201   -20853026.74243 -16242983.40642  20707099.354    20707092.814
 03  6  8 17 58 30.0000000  0 10G23G21G17G29G 6G16G26G15G 2G18
  22189628.278   -11460217.28543  -8885264.33642  22189630.499    22189626.335
  20495357.660    -6743254.49343  -5246931.61942  20495359.569    20495352.691
  20913767.932      699511.31143    548516.69542  20913769.397    20913764.663
  23350586.781    -5331565.58343  -4146974.93842  23350589.200    23350585.061
  21441766.289     6562471.21843   5119396.78542  21441768.464    21441763.704
  23393904.055   -11293253.39943  -8767146.87342  23393906.197    23393901.665
  21524049.258   -16360685.55843 -12742711.86542  21524051.876    21524046.876
  21613936.584   -15607827.92443 -12150872.51142  21613938.347    21613933.701
  24909717.399    -5661800.20743  -4405409.14142  24909719.177    24909717.009
  20700071.261   -20889948.23843 -16271753.39142  20700073.410    20700066.890
 03  6  8 17 59  0.0000000  0 10G23G21G17G29G 6G16G26G15G 2G18
  22177450.389   -11524212.43843  -8935130.64242  22177452.581    22177448.422
  20494846.382    -6745941.40343  -5249025.31642  20494848.290    20494841.387
  20917570.527      719493.96943    564087.59142  20917571.950    20917567.275
  23361987.380    -5271655.02443  -4100291.39142  23361989.804    23361985.651
  21456168.332     6638153.86643   5178370.23242  21456170.508    21456165.686
  23398803.633   -11267506.98143  -8747084.74142  23398805.672    23398801.054
  21528682.202   -16336339.43743 -12723740.87742  21528684.806    21528679.792
  21602521.768   -15667813.21943 -12197614.26342  21602523.531    21602518.832
  24907046.076    -5675838.93143  -4416348.44042  24907047.850    24907045.333
  20693124.070   -20926455.93243 -16300200.93042  20693126.245    20693119.725
 03  6  8 17 59 30.0000000  0 10G23G21G17G29G 6G16G26G15G 2G18
  22165335.356   -11587877.39643  -8984739.65942  22165337.537    22165333.305
  20494382.476    -6748379.16843  -5250924.87142  20494384.401    20494377.504
  20921415.734      739700.58043    579832.98842  20921417.141    20921412.484
  23373474.318    -5211291.12643  -4053254.59042  23373476.710    23373472.535
  21470646.289     6714235.92943   5237654.90242  21470648.501    21470643.676
  23403794.741   -11241278.87143  -8726647.28642  23403796.782    23403792.144
  21533440.852   -16311332.87343 -12704255.25342  21533443.431    21533438.427
  21591134.430   -15727654.09943 -12244243.48842  21591136.203    21591131.489
  24904456.244    -5689449.39243  -4426954.02342  24904458.089    24904455.434
  20686255.821   -20962548.79643 -16328325.23542  20686258.005    20686251.454
 03  6  8 18  0  0.0000000  0 10G23G21G17G29G 6G16G26G15G 2G18
  22153283.394   -11651210.92143  -9034090.41142  22153285.547    22153281.304
  20493966.268    -6750566.32143  -5252629.14142  20493968.193    20493961.292
  20925303.811      760132.26243    595753.77342  20925305.186    20925300.527
  23385047.235    -5150474.87443  -4005865.32442  23385049.669    23385045.502
  21485200.104     6790716.56043   5297250.13742  21485202.287    21485197.515
  23408877.366   -11214569.76643  -8705835.00342  23408879.426    23408874.702
  21538325.074   -16285665.75743 -12684254.91342  21538327.726    21538322.746
  21579774.837   -15787349.07043 -12290759.02242  21579776.601    21579771.892
  24901947.765    -5702631.11143  -4437225.47242  24901949.709    24901946.931
  20679466.657   -20998226.19443 -16356125.79942  20679468.821    20679462.278
 03  6  8 18  0 30.0000000  0 10G23G21G17G29G 6G16G26G15G 2G18
  22141294.249   -11714214.00243  -9083183.67442  22141296.448    22141292.188
  20493597.578    -6752503.59043  -5254138.69542  20493599.520    20493592.649
  20929234.560      780788.54143    611849.56942  20929235.977    20929231.310
  23396705.624    -5089209.52243  -3958126.10442  23396708.060    23396703.943
  21499829.220     6867592.69743   5357153.55942  21499831.384    21499826.635
  23414051.000   -11187382.87543  -8684650.45942  23414052.963    23414048.217
  21543334.611   -16259340.21543 -12663741.50742  21543337.243    21543332.307
  21568442.910   -15846898.43143 -12337161.09642  21568444.689    21568439.990
  24899520.721    -5715385.63043  -4447164.06842  24899522.618    24899519.644
  20672756.233   -21033489.58443 -16383603.75942  20672758.403    20672751.856
 03  6  8 18  1  0.0000000  0 10G23G21G17G29G 6G16G26G15G 2G18
  22129367.938   -11776887.02743  -9132019.75842  22129370.098    22129365.855
  20493276.423    -6754191.26143  -5255453.75742  20493278.356    20493271.499
  20933207.933      801668.81143    628119.90642  20933209.335    20933204.702
  23408449.019    -5027497.59543  -3910038.91842  23408451.486    23408447.326
  21514533.145     6944861.96443   5417363.32042  21514535.300    21514530.571
  23419314.900   -11159720.56743  -8663095.43042  23419317.057    23419312.210
  21548469.242   -16232357.93043 -12642716.35142  21548471.810    21548466.867
  21557138.684   -15906302.29643 -12383449.77942  21557140.479    21557135.787
  24897174.705    -5727713.80443  -4456770.49342  24897176.686    24897173.552
  20666124.512   -21068339.57343 -16410759.58842  20666126.688    20666120.119
 03  6  8 18  1 30.0000000  0 10G23G21G17G29G 6G16G26G15G 2G18
  22117504.528   -11839229.24843  -9180598.06242  22117506.711    22117502.459
  20493003.003    -6755628.27843  -5256573.50542  20493004.899    20492998.041
  20937224.039      822773.66643    644565.24242  20937225.468    20937220.829
  23420277.129    -4965341.03343  -3861605.23442  23420279.557    23420275.355
  21529311.503     7022522.92443   5477878.28942  21529313.683    21529309.019
  23424669.253   -11131584.23943  -8641171.05442  23424671.303    23424666.387
  21553728.659   -16204719.47643 -12621179.88842  21553731.285    21553726.299
  21545862.349   -15965559.84043 -12429624.46642  21545864.115    21545859.436
  24894909.878    -5739615.77543  -4466044.76342  24894911.716    24894909.030
  20659571.407   -21102776.30243 -16437593.40042  20659573.592    20659567.028
 03  6  8 18  2  0.0000000  0 10G23G21G17G29G 6G16G26G15G 2G18
  22105705.107   -11901235.53643  -9228914.59242  22105707.294    22105703.025
  20492778.291    -6756809.15343  -5257493.66342  20492780.204    20492773.309
  20941283.895      844108.34643    661189.66142  20941285.313    20941280.681
  23432190.218    -4902736.79843  -3812822.73442  23432192.669    23432188.594
  21544165.119     7100578.78343   5538700.97642  21544167.258    21544162.604
  23430114.041   -11102971.08743  -8618875.11942  23430116.192    23430111.293
  21559113.741   -16176421.01643 -12599129.14242  21559116.336    21559111.313
  21534614.916   -16024665.38043 -12475680.70242  21534616.703    21534611.987
  24892726.920    -5751086.90943  -4474983.33442  24892728.620    24892726.234
  20653097.876   -21136794.95643 -16464101.44042  20653100.060    20653093.483
 03  6  8 18  2 30.0000000  0 10G23G21G17G29G 6G16G26G15G 2G18
  22093968.118   -11962913.47943  -9276975.27542  22093970.301    22093966.068
  20492600.809    -6757741.59843  -5258220.23942  20492602.741    20492595.878
  20945386.135      865665.67543    677987.57742  20945387.555    20945382.904
  23444186.718    -4839695.03343  -3763699.29642  23444189.108    23444185.135
  21559091.957     7179019.66943   5599823.68842  21559094.133    21559089.482
  23435647.805   -11073890.90543  -8596215.28442  23435649.925    23435645.101
  21564622.601   -16147471.60743 -12576571.15742  21564625.212    21564620.224
  21523395.004   -16083626.28943 -12521624.23642  21523396.795    21523392.091
  24890624.323    -5762135.32543  -4483592.52042  24890625.991    24890623.676
  20646702.288   -21170403.89343 -16490290.21842  20646704.474    20646697.935
 03  6  8 18  3  0.0000000  0 10G23G21G17G29G 6G16G26G15G 2G18
  22082294.602   -12024258.20743  -9324776.31342  22082296.757    22082292.479
  20492471.651    -6758420.23843  -5258749.04942  20492473.603    20492466.736
  20949531.657      887450.39143    694962.67442  20949533.044    20949528.410
  23456266.907    -4776213.06243  -3714232.87442  23456269.247    23456265.292
  21574092.646     7257848.51343   5661248.69642  21574094.812    21574090.182
  23441271.272   -11044340.72643  -8573189.18242  23441273.179    23441268.362
  21570256.030   -16117867.49243 -12553503.00542  21570258.669    21570253.696
  21512203.667   -16142437.09043 -12567450.80642  21512205.413    21512200.740
  24888603.219    -5772756.65343  -4491868.91342  24888604.832    24888602.510
  20640385.583   -21203598.41543 -16516156.07242  20640387.759    20640381.219
 03  6  8 18  3 30.0000000  0 10G23G21G17G29G 6G16G26G15G 2G18
  22070684.688   -12085268.60143  -9372316.83242  22070686.836    22070682.499
  20492391.098    -6758843.56643  -5259078.90742  20492393.033    20492386.192
  20953720.684      909463.82943    712115.99742  20953722.085    20953717.453
  23468430.712    -4712292.09943  -3664424.36642  23468433.103    23468429.103
  21589166.884     7337064.22443   5722975.16742  21589169.117    21589164.496
  23446983.513   -11014321.96843  -8549798.00342  23446985.570    23446980.758
  21576014.009   -16087609.07443 -12529925.01742  21576016.622    21576011.650
  21501041.148   -16201096.34943 -12613159.29342  21501042.942    21501038.199
  24886663.668    -5782950.61643  -4499812.28142  24886665.277    24886662.653
  20634147.826   -21236378.06843 -16541698.65142  20634149.985    20634143.460
 03  6  8 18  4  0.0000000  0 10G23G21G17G29G 6G16G26G15G 2G18
  22059138.097   -12145945.87043  -9419597.78142  22059140.294    22059135.908
  20492358.907    -6759012.71243  -5259210.70942  20492360.829    20492354.000
  20957953.091      931705.25943    729446.97442  20957954.490    20957949.880
  23480677.360    -4647935.68743  -3614276.55642  23480679.773    23480675.755
  21604314.136     7416663.56543   5785000.56642  21604316.358    21604311.777
  23452784.631   -10983837.82143  -8526044.12542  23452786.614    23452781.670
  21581896.005   -16056698.86743 -12505839.13942  21581898.630    21581893.682
  21489907.356   -16259604.96343 -12658750.39142  21489909.113    21489904.339
  24884805.028    -5792718.96443  -4507424.01142  24884806.679    24884803.805
  20627988.734   -21268744.47043 -16566919.21042  20627990.883    20627984.337
 03  6  8 18  4 30.0000000  0 10G23G21G17G29G 6G16G26G15G 2G18
  22047654.284   -12206293.22643  -9466621.64342  22047656.508    22047652.161
  20492374.483    -6758930.80443  -5259146.88142  20492376.396    20492369.561
  20962228.233      954171.25943    746952.93842  20962229.630    20962225.027
  23493005.879    -4583149.61243  -3563793.91642  23493008.175    23493004.119
  21619533.430     7496641.04043   5847320.60242  21619535.595    21619531.025
  23458672.808   -10952893.99043  -8501932.08642  23458675.071    23458670.062
  21587901.174   -16025141.48743 -12481248.97042  21587903.811    21587898.843
  21478801.639   -16317965.92443 -12704226.43042  21478803.338    21478798.586
  24883026.525    -5802065.77543  -4514707.24842  24883028.333    24883025.388
  20621907.501   -21300701.47943 -16591820.75742  20621909.630    20621903.122
 03  6  8 18  5  0.0000000  0 10G23G21G17G29G 6G16G26G15G 2G18
  22036234.793   -12266303.01743  -9513382.47542  22036237.003    22036232.662
  20492439.370    -6758589.80343  -5258881.16742  20492441.286    20492434.425
  20966547.638      976869.89443    764640.17842  20966549.056    20966544.452
  23505417.034    -4517928.38843  -3512972.23342  23505419.351    23505415.340
  21634825.663     7577002.19443   5909939.62042  21634827.825    21634823.278
  23464649.860   -10921484.84543  -8477457.43742  23464651.987    23464647.035
  21594030.674   -15992930.74343 -12456149.69742  21594033.315    21594028.326
  21467725.580   -16376170.71343 -12749580.78442  21467727.319    21467722.555
  24881329.240    -5810983.90543  -4521656.45942  24881331.217    24881328.547
  20615905.507   -21332242.09243 -16616397.84442  20615907.663    20615901.136
 03  6  8 18  5 30.0000000  0 10G23G21G17G29G 6G16G26G15G 2G18
  22024878.771   -12325978.93443  -9559883.14042  22024880.968    22024876.680
  20492552.946    -6757993.17043  -5258416.25942  20492554.844    20492547.979
  20970910.605      999797.34843    782505.71342  20970912.027    20970907.421
  23517909.851    -4452278.04643  -3461816.13242  23517912.290    23517908.169
  21650189.861     7657741.19943   5972853.06942  21650192.022    21650187.455
  23470714.148   -10889616.36843  -8452624.91642  23470716.299    23470711.498
  21600283.531   -15960071.83043 -12430545.34442  21600286.167    21600281.214
  21456678.575   -16434222.72143 -12794816.08642  21456680.327    21456675.599
  24879712.882    -5819477.66943  -4528275.04042  24879714.709    24879712.434
  20609981.975   -21363370.40343 -16640653.65942  20609984.109    20609977.607
 03  6  8 18  6  0.0000000  0 10G23G21G17G29G 6G16G26G15G 2G18
  22013586.229   -12385321.53743  -9606124.10142  22013588.428    22013584.096
  20492715.141    -6757140.80043  -5257752.08142  20492717.055    20492710.186
  20975317.036     1022953.25243    800549.25742  20975318.488    20975313.832
  23530483.793    -4386201.60443  -3410328.05842  23530486.246    23530482.098
  21665625.426     7738855.48043   6036058.93342  21665627.612    21665623.061
  23476865.445   -10857291.29343  -8427436.58242  23476867.646    23476862.794
  21606659.381   -15926566.68243 -12404437.43842  21606662.016    21606657.082
  21445660.693   -16492121.96643 -12839932.34942  21445662.431    21445657.720
  24878176.813    -5827548.47143  -4534564.00642  24878178.473    24878176.888
  20604136.665   -21394087.52143 -16664589.05842  20604138.829    20604132.311
 03  6  8 18  6 30.0000000  0 10G23G21G17G29G 6G16G26G15G 2G18
  22002357.339   -12444329.56243  -9652104.33242  22002359.553    22002355.233
  20492926.293    -6756031.18244  -5256887.44642  20492928.217    20492921.337
  20979767.309     1046339.34743    818772.17142  20979768.728    20979764.080
  23543138.598    -4319699.98543  -3358508.62042  23543141.132    23543136.925
  21681132.289     7820344.28943   6099556.64142  21681134.498    21681129.931
  23483103.408   -10824510.52543  -8401893.16042  23483105.629    23483100.834
  21613158.134   -15892415.37443 -12377826.03642  21613160.779    21613155.832
  21434672.263   -16549866.56843 -12884928.12442  21434673.962    21434669.294
  24876721.608    -5835195.44243  -4540522.74842  24876723.129    24876721.813
  20598369.832   -21424392.43843 -16688203.26842  20598371.978    20598365.485
 03  6  8 18  7  0.0000000  0 10G23G21G17G29G 6G16G26G15G 2G18
  21991191.958   -12503004.05743  -9697824.67042  21991194.148    21991189.829
  20493186.290    -6754664.94943  -5255822.85142  20493188.222    20493181.314
  20984261.208     1069954.86143    837173.85742  20984262.641    20984257.983
  23555873.902    -4252776.55843  -3306360.52842  23555876.260    23555872.088
  21696709.863     7902204.44543   6163343.71442  21696712.045    21696707.473
  23489427.510   -10791277.29043  -8375997.17242  23489429.675    23489424.865
  21619779.433   -15857620.32343 -12350713.01542  21619782.071    21619777.102
  21423713.142   -16607457.09143 -12929803.82442  21423714.833    21423710.162
  24875346.576    -5842420.55143  -4546152.77142  24875347.951    24875347.005
  20592681.137   -21454286.80843 -16711497.57142  20592683.288    20592676.761
 03  6  8 18  7 30.0000000  0 11G23G21G17G 3G29G 6G16G26G15G 2G18
  21980089.597   -12561347.35043  -9743286.93942  21980091.796    21980087.430
  20493494.680    -6753044.29343  -5254560.00442  20493496.611    20493489.714
  20988798.348     1093797.58943    855752.58842  20988799.791    20988795.132
  24616558.823    -1393244.94953  -1075813.85952  24616560.922    24616557.473
  23568688.355    -4185436.11643  -3253887.48242  23568690.753    23568686.572
  21712357.186     7984431.27843   6227416.50742  21712359.375    21712354.746
  23495836.751   -10757596.61043  -8349752.55442  23495838.817    23495834.169
  21626522.448   -15822185.78443 -12323101.68742  21626525.095    21626520.078
  21412782.904   -16664895.56943 -12974561.05442  21412784.626    21412779.946
  24874051.380    -5849226.96943  -4551456.49442  24874052.648    24874051.781
  20587069.960   -21483773.66243 -16734474.32742  20587072.129    20587065.576
 03  6  8 18  8  0.0000000  0 11G23G21G17G 3G29G 6G16G26G15G 2G18
  21969051.801   -12619351.32843  -9788484.79642  21969053.988    21969049.572
  20493853.118    -6751160.81043  -5253092.35342  20493855.021    20493848.136
  20993380.223     1117875.57943    874514.64442  20993381.692    20993377.031
  24597618.139    -1492779.18843  -1153373.02542  24597620.228    24597616.698
  23581583.276    -4117673.08643  -3201085.15442  23581585.642    23581581.560
  21728075.409     8067030.74043   6291779.66642  21728077.586    21728072.963
  23502332.318   -10723462.35743  -8323154.48442  23502334.381    23502329.773
  21633388.330   -15786105.05243 -12294986.83842  21633391.015    21633386.041
  21401883.297   -16722173.22543 -13019192.96542  21401885.006    21401880.358
  24872837.656    -5855607.14743  -4556428.08842  24872838.900    24872837.518
  20581537.771   -21512845.44843 -16757127.65842  20581539.945    20581533.378
 03  6  8 18  8 30.0000000  0 11G23G21G17G 3G29G 6G16G26G15G 2G18
  21958078.391   -12677016.52243  -9833418.66942  21958080.574    21958076.230
  20494261.597    -6749014.26143  -5251419.72442  20494263.497    20494256.598
  20998006.944     1142189.10643    893460.23042  20998008.406    20998003.763
  24578709.124    -1592146.34743  -1230801.95342  24578711.128    24578707.887
  23594558.059    -4049490.11543  -3147955.59742  23594560.503    23594556.282
  21743864.078     8150000.45643   6356431.32842  21743866.250    21743861.645
  23508913.690   -10688877.26943  -8296205.11542  23508915.766    23508911.026
  21640376.918   -15749379.89443 -12266369.83942  21640379.566    21640374.622
  21391014.376   -16779289.86443 -13063699.41842  21391016.079    21391011.387
  24871704.616    -5861562.31843  -4561068.56342  24871705.982    24871704.210
  20576084.436   -21541502.83143 -16779458.07642  20576086.615    20576080.060
 03  6  8 18  9  0.0000000  0 11G23G21G17G 3G29G 6G16G26G15G 2G18
  21947167.790   -12734351.97743  -9878095.61142  21947169.989    21947165.601
  20494718.464    -6746613.35943  -5249548.89342  20494720.356    20494713.471
  21002676.816     1166729.37343    912582.50042  21002678.277    21002673.611
  24559830.631    -1691353.26943  -1308106.03942  24559832.564    24559829.417
  23607610.598    -3980898.50943  -3094507.60242  23607613.002    23607608.905
  21759721.048     8233329.32243   6421362.83842  21759723.245    21759718.710
  23515578.864   -10653852.57643  -8268913.16642  23515580.907    23515576.049
  21647486.051   -15712021.02543 -12237259.03842  21647488.693    21647483.773
  21380174.509   -16836253.67743 -13108086.78142  21380176.232    21380171.506
  24870650.536    -5867102.17443  -4565385.36242  24870652.075    24870649.778
  20570708.132   -21569755.55343 -16801473.17442  20570710.297    20570703.746
 03  6  8 18  9 30.0000000  0 11G23G21G17G 3G29G 6G16G26G15G 2G18
  21936321.957   -12791347.07243  -9922507.32842  21936324.128    21936319.723
  20495225.881    -6743946.85844  -5247471.10442  20495227.756    20495220.896
  21007391.836     1191506.79343    931889.56142  21007393.271    21007388.588
  24540984.870    -1790387.43343  -1385275.51642  24540986.846    24540983.786
  23620742.460    -3911890.02743  -3040734.79442  23620744.901    23620740.733
  21775648.032     8317025.80643   6486580.80042  21775650.177    21775645.702
  23522329.101   -10618380.01943  -8241272.27242  23522331.163    23522326.400
  21654717.513   -15674019.31243 -12207647.32842  21654720.143    21654715.217
  21369365.747   -16893053.83043 -13152346.61242  21369367.516    21369362.798
  24869677.375    -5872216.93243  -4569370.98342  24869679.031    24869676.616
  20565410.678   -21597593.52843 -16823165.09242  20565412.889    20565406.352
 03  6  8 18 10  0.0000000  0 11G23G21G17G 3G29G 6G16G26G15G 2G18
  21925540.049   -12848006.24243  -9966657.28442  21925542.228    21925537.785
  20495783.055    -6741018.96244  -5245189.63242  20495784.950    20495778.058
  21012151.232     1216517.63943    951378.51042  21012152.673    21012148.020
  24522171.667    -1889250.90643  -1462311.98742  24522173.753    24522170.714
  23633952.470    -3842471.57343  -2986642.50042  23633954.890    23633950.722
  21791643.722     8401083.28443   6552080.06542  21791645.879    21791641.373
  23529163.207   -10582466.30843  -8213287.63442  23529165.327    23529160.429
  21662070.220   -15635380.89443 -12177539.47842  21662072.849    21662067.907
  21358587.419   -16949694.06043 -13196481.83142  21358589.226    21358584.476
  24868783.758    -5876911.78743  -4573029.31442  24868785.359    24868783.182
  20560191.286   -21625021.66143 -16844537.65542  20560193.505    20560186.927
 03  6  8 18 10 30.0000000  0 11G23G21G17G 3G29G 6G16G26G15G 2G18
  21914822.222   -12904328.67143 -10010544.85442  21914824.419    21914819.948
  20496390.148    -6737828.83043  -5242703.82142  20496392.044    20496385.129
  21016955.315     1241763.15143    971050.31842  21016956.723    21016952.102
  24503391.811    -1987940.70143  -1539213.12442  24503393.759    24503390.577
  23647240.108    -3772644.56343  -2932231.88242  23647242.572    23647238.323
  21807707.816     8485500.51143   6617859.65642  21807710.017    21807705.511
  23536081.080   -10546112.82743  -8184960.28942  23536083.278    23536078.372
  21669543.844   -15596106.56943 -12146936.11642  21669546.478    21669541.580
  21347839.835   -17006172.81843 -13240491.22242  21347841.635    21347836.877
  24867970.130    -5881186.47843  -4576360.29642  24867971.713    24867969.924
  20555049.846   -21652039.88343 -16865590.80342  20555052.076    20555045.535
 03  6  8 18 11  0.0000000  0 11G23G21G17G 3G29G 6G16G26G15G 2G18
  21904167.691   -12960318.35043 -10054173.13642  21904169.910    21904165.422
  20497046.472    -6734379.68943  -5240016.18642  20497048.408    20497041.489
  21021803.290     1267239.44743    990901.95842  21021804.709    21021800.094
  24484644.521    -2086458.24743  -1615979.98042  24484646.582    24484643.080
  23660604.279    -3702415.65743  -2877508.10442  23660606.799    23660602.460
  21823839.234     8570271.46743   6683914.86042  21823841.419    21823836.997
  23543081.430   -10509325.89143  -8156295.22642  23543083.474    23543078.828
  21677137.398   -15556201.90643 -12115841.58742  21677140.049    21677135.198
  21337122.361   -17062493.43043 -13284377.39242  21337124.157    21337119.401
  24867236.214    -5885045.82643  -4579367.65742  24867237.673    24867235.769
  20549985.601   -21678652.69243 -16886328.04842  20549987.819    20549981.270
 03  6  8 18 11 30.0000000  0 11G23G21G17G 3G29G 6G16G26G15G 2G18
  21893577.934   -13015967.71043 -10097536.23242  21893580.170    21893575.650
  20497753.678    -6730663.30643  -5237120.31242  20497755.602    20497748.695
  21026696.690     1292954.37643   1010939.54842  21026698.123    21026693.516
  24465931.921    -2184793.69043  -1692604.97042  24465934.071    24465930.540
  23674045.916    -3631779.27743  -2822466.80542  23674048.517    23674044.191
  21840038.985     8655401.55743   6750249.89642  21840041.150    21840036.848
  23550165.233   -10472100.32643  -8127288.35142  23550167.129    23550162.504
  21684852.102   -15515660.91743 -12084251.22042  21684854.730    21684849.894
  21326436.543   -17118647.78543 -13328134.01342  21326438.312    21326433.583
  24866582.127    -5888482.91443  -4582045.96842  24866583.538    24866581.826
  20544999.867   -21704852.79843 -16906743.70342  20545002.080    20544995.557
 03  6  8 18 12  0.0000000  0 11G23G21G17G 3G29G 6G16G26G15G 2G18
  21883052.222   -13071280.94343 -10140637.42742  21883054.430    21883049.851
  20498510.999    -6726683.52843  -5234019.19542  20498512.915    20498506.019
  21031634.777     1318904.18043   1031160.15842  21031636.220    21031631.614
  24447253.244    -2282949.24443  -1769089.76942  24447255.568    24447252.073
  23687563.811    -3560741.92143  -2767113.07542  23687566.297    23687562.296
  21856305.911     8740884.48243   6816859.88942  21856308.057    21856303.763
  23557331.400   -10434442.55043  -8097944.67942  23557333.163    23557328.601
  21692686.824   -15474489.34943 -12052169.50042  21692689.457    21692684.597
  21315781.652   -17174639.25943 -13371763.71142  21315783.439    21315778.750
  24866007.635    -5891502.68543  -4584399.07842  24866009.033    24866007.010
  20540091.805   -21730644.81843 -16926841.37842  20540094.009    20540087.486
 03  6  8 18 12 30.0000000  0 11G23G21G17G 3G29G 6G16G26G15G 2G18
  21872589.799   -13126261.32943 -10183479.25742  21872591.999    21872587.402
  20499317.931    -6722443.19744  -5230715.04542  20499319.841    20499312.920
  21036617.008     1345086.10443   1051561.64042  21036618.484    21036613.898
  24428609.044    -2380925.76643  -1845435.15742  24428611.252    24428607.590
  23701157.031    -3489309.43143  -2711451.44942  23701159.583    23701155.525
  21872638.909     8826714.79043   6883740.57342  21872641.088    21872636.758
  23564578.504   -10396358.07043  -8068268.53142  23564580.382    23564575.948
  21700640.619   -15432692.35743 -12019600.42442  21700643.232    21700638.336
  21305157.341   -17230470.45143 -13415268.51042  21305159.073    21305154.402
  24865511.804    -5894109.08543  -4586430.08242  24865513.324    24865510.981
  20535260.663   -21756032.61843 -16946624.07142  20535262.867    20535256.348
 03  6  8 18 13  0.0000000  0 11G23G21G17G 3G29G 6G16G26G15G 2G18
  21862191.962   -13180902.31343 -10226056.62342  21862194.118    21862189.520
  20500175.819    -6717934.89744  -5227202.09242  20500177.756    20500170.825
  21041644.800     1371507.16443   1072149.45242  21041646.257    21041641.668
  24410000.548    -2478714.35943  -1921634.06242  24410002.732    24409999.050
  23714826.361    -3417477.26043  -2655478.39342  23714828.833    23714824.795
  21889038.931     8912897.16643   6950895.58542  21889041.081    21889036.792
  23571907.762   -10357842.57543  -8038256.52442  23571909.810    23571905.171
  21708714.260   -15390264.71043 -11986539.93742  21708716.942    21708712.076
  21294564.915   -17286133.87043 -13458642.58842  21294566.644    21294561.973
  24865095.755    -5896296.32143  -4588134.47142  24865097.227    24865094.643
  20530507.595   -21781010.29243 -16966087.18642  20530509.784    20530503.249
 03  6  8 18 13 30.0000000  0 11G23G21G17G 3G29G 6G16G26G15G 2G18
  21851858.113   -13235206.81943 -10268371.79242  21851860.286    21851855.674
  20501084.248    -6713161.14143  -5223482.28542  20501086.165    20501079.279
  21046717.524     1398164.42843   1092921.33042  21046718.986    21046714.397
  24391427.609    -2576315.56843  -1997686.92142  24391429.858    24391426.340
  23728570.620    -3345250.83643  -2599198.13442  23728572.986    23728569.072
  21905505.045     8999426.55743   7018320.99442  21905507.145    21905502.892
  23579318.227   -10318901.39843  -8007912.81142  23579320.304    23579315.459
  21716907.116   -15347211.14943 -11952991.71842  21716909.759    21716904.911
  21284003.988   -17341631.85943 -13501887.75542  21284005.727    21284001.041
  24864758.533    -5898068.09843  -4589515.10042  24864760.166    24864757.575
  20525831.897   -21805581.18443 -16985233.32342  20525834.096    20525827.576
 03  6  8 18 14  0.0000000  0 11G23G21G17G 3G29G 6G16G26G15G 2G18
  21841588.775   -13289172.26243 -10310422.75642  21841590.922    21841586.382
  20502043.755    -6708118.96243  -5219553.32242  20502045.654    20502038.773
  21051835.830     1425061.16643   1113879.80442  21051837.254    21051832.687
  24372891.222    -2673724.51743  -2073589.91542  24372893.571    24372890.153
  23742389.963    -3272629.98343  -2542610.52542  23742392.351    23742388.458
  21922037.170     9086303.35043   7086017.10342  21922039.298    21922035.078
  23586809.547   -10279534.21943  -7977237.16842  23586811.594    23586806.864
  21725219.235   -15303530.81443 -11918955.10942  21725221.893    21725216.980
  21273475.209   -17396961.04743 -13545001.39342  21273476.945    21273472.241
  24864500.880    -5899422.56243  -4590570.58342  24864502.446    24864499.750
  20521234.040   -21829743.20943 -17004060.87042  20521236.223    20521229.685
 03  6  8 18 14 30.0000000  0 11G23G21G17G 3G29G 6G16G26G15G 2G18
  21831383.361   -13342801.97743 -10352212.12042  21831385.511    21831380.967
  20503053.837    -6702810.99043  -5215417.24542  20503055.734    20503048.831
  21056999.067     1452194.26843   1135022.46542  21057000.516    21056995.955
  24354391.000    -2770941.91443  -2149343.66042  24354393.569    24354390.224
  23756283.262    -3199620.17943  -2485719.85542  23756285.680    23756281.804
  21938634.425     9173522.24843   7153979.78142  21938636.553    21938632.379
  23594381.031   -10239746.86143  -7946234.11142  23594382.935    23594378.303
  21733649.636   -15259228.66543 -11884433.96942  21733652.348    21733647.394
  21262978.111   -17452123.72843 -13587985.28342  21262979.819    21262975.099
  24864321.747    -5900363.90843  -4591304.16842  24864323.367    24864320.453
  20516713.180   -21853500.36043 -17022572.93142  20516715.374    20516708.831
 03  6  8 18 15  0.0000000  0 11G23G21G17G 3G29G 6G16G26G15G 2G18
  21821241.380   -13396098.31243 -10393741.70042  21821243.519    21821238.997
  20504114.113    -6697239.16243  -5211075.56242  20504116.002    20504109.131
  21062207.001     1479562.06543   1156348.00542  21062208.425    21062203.909
  24335927.687    -2867967.79443  -2224948.17842  24335930.122    24335926.877
  23770249.857    -3126226.09543  -2428529.73942  23770252.161    23770248.426
  21955295.940     9261078.64943   7222205.46242  21955298.082    21955293.860
  23602031.601   -10199543.85543  -7914907.12542  23602033.482    23602028.690
  21742197.583   -15214308.91143 -11849431.57442  21742200.224    21742195.346
  21252512.345   -17507121.66943 -13630840.80042  21252514.063    21252509.320
  24864220.689    -5900895.35943  -4591718.32942  24864222.404    24864219.315
  20512268.853   -21876855.45543 -17040771.69842  20512271.047    20512264.482
 03  6  8 18 15 30.0000000  0 11G23G21G17G 3G29G 6G16G26G15G 2G18
  21811164.561   -13449052.34343 -10435004.55442  21811166.673    21811162.163
  20505226.468    -6691393.87543  -5206520.80242  20505228.317    20505221.447
  21067461.377     1507173.70743   1177863.55042  21067462.767    21067458.248
  24317502.906    -2964790.82743  -2300394.63642  24317505.328    24317502.088
  23784290.634    -3052441.34943  -2371035.20742  23784292.987    23784289.206
  21972022.965     9348979.36143   7290699.43242  21972025.110    21972020.847
  23609762.339   -10158918.59243  -7883251.16742  23609764.279    23609759.468
  21750864.383   -15168764.28143 -11813942.27642  21750867.079    21750862.211
  21242079.802   -17561944.93643 -13673560.21542  21242081.544    21242076.788
  24864199.172    -5901008.76343  -4591806.75242  24864200.867    24864197.637
  20507902.692   -21899799.87743 -17058650.46242  20507904.880    20507898.299
 03  6  8 18 16  0.0000000  0 11G23G21G17G 3G29G 6G16G26G15G 2G18
  21801151.494   -13501671.29643 -10476006.31142  21801153.600    21801149.063
  20506389.587    -6685281.73943  -5201758.10442  20506391.425    20506384.580
  21072760.909     1535022.91343   1199564.21242  21072762.318    21072757.810
  24299115.810    -3061415.93543  -2375686.94242  24299118.145    24299114.630
  23798404.104    -2978275.15743  -2313243.43542  23798406.348    23798402.586
  21988813.702     9437215.16843   7359454.51942  21988815.873    21988811.624
  23617571.614   -10117880.43243  -7851273.47242  23617573.489    23617568.937
  21759648.553   -15122603.72043 -11777973.01842  21759651.189    21759646.271
  21231679.297   -17616599.84343 -13716148.44042  21231681.051    21231676.285
  24864255.573    -5900712.24443  -4591575.74342  24864257.193    24864254.220
  20503613.173   -21922341.53243 -17076215.38242  20503615.359    20503608.755
 03  6  8 18 16 30.0000000  0 11G23G21G17G 3G29G 6G16G26G15G 2G18
  21791202.655   -13553952.63943 -10516744.98942  21791204.769    21791200.213
  20507604.067    -6678899.66844  -5196785.06642  20507605.904    20507599.066
  21078106.207     1563112.55543   1221452.23342  21078107.627    21078103.118
  24280767.370    -3157837.98443  -2450820.98942  24280769.732    24280766.332
  23812590.063    -2903727.61343  -2255154.51542  23812592.370    23812588.577
  22005668.402     9525786.50343   7428471.04842  22005670.519    22005666.279
  23625459.716   -10076429.53643  -7818974.12142  23625461.573    23625456.909
  21768549.978   -15075826.49643 -11741523.25042  21768552.585    21768547.714
  21221311.482   -17671083.30843 -13758603.07642  21221313.175    21221308.412
  24864390.410    -5900004.04943  -4591023.97842  24864392.159    24864388.918
  20499400.674   -21944478.29643 -17093464.79942  20499402.852    20499396.263
 03  6  8 18 17  0.0000000  0 11G23G21G17G 3G29G 6G16G26G15G 2G18
  21781317.836   -13605897.79543 -10557221.70842  21781319.917    21781315.349
  20508869.698    -6672248.57343  -5191602.40642  20508871.594    20508864.738
  21083497.016     1591441.29643   1243526.55442  21083498.429    21083493.898
  24262457.517    -3254056.33243  -2525796.26942  24262459.920    24262456.535
  23826848.000    -2828802.27043  -2196771.18442  23826850.241    23826846.497
  22022586.169     9614689.73643   7497746.19642  22022588.326    22022584.122
  23633425.462   -10034569.40843  -7786355.92042  23633427.330    23633422.686
  21777568.088   -15028435.89643 -11704595.53242  21777570.688    21777565.912
  21210976.169   -17725395.77843 -13800924.47342  21210977.878    21210973.083
  24864603.099    -5898886.34143  -4590153.09142  24864604.999    24864601.632
  20495264.752   -21966212.51843 -17110400.55142  20495266.969    20495260.378
 03  6  8 18 17 30.0000000  0 11G23G21G17G 3G29G 6G16G26G15G 2G18
  21771497.286   -13657504.95843 -10597435.05842  21771499.367    21771494.788
  20510187.073    -6665325.76843  -5186208.02342  20510188.966    20510182.119
  21088933.713     1620011.31843   1265788.88742  21088935.136    21088930.600
  24244187.336    -3350066.49743  -2600609.34342  24244189.753    24244186.266
  23841177.596    -2753499.76443  -2138093.96442  23841179.706    23841176.102
  22039567.149     9703924.69443   7567279.83042  22039569.291    22039565.092
  23641468.972    -9992300.51543  -7753419.20142  23641470.983    23641466.302
  21786703.044   -14980431.74643 -11667189.72242  21786705.604    21786700.794
  21200673.936   -17779534.45543 -13843110.45042  21200675.604    21200670.839
  24864893.952    -5897357.95543  -4588962.19642  24864895.782    24864892.730
  20491205.798   -21987542.47043 -17127021.29042  20491208.026    20491201.408
 03  6  8 18 18  0.0000000  0 11G23G21G17G 3G29G 6G16G26G15G 2G18
  21761741.252   -13708773.01043 -10637384.16542  21761743.364    21761738.787
  20511556.490    -6658129.44643  -5180600.51242  20511558.377    20511551.535
  21094416.743     1648824.80243   1288240.93542  21094418.179    21094413.659
  24225957.369    -3445864.90843  -2675257.41442  24225959.756    24225956.476
  23855578.719    -2677821.05243  -2079123.58142  23855580.889    23855577.220
  22056611.042     9793490.44943   7637071.23442  22056613.166    22056608.961
  23649589.954    -9949624.15543  -7720164.98342  23649592.008    23649587.336
  21795954.568   -14931814.66643 -11629306.31042  21795957.153    21795952.284
  21190405.136   -17833497.16743 -13885159.30842  21190406.841    21190402.055
  24865262.959    -5895418.72443  -4587451.16542  24865264.715    24865261.787
  20487223.856   -22008467.61743 -17143326.59442  20487226.086    20487219.491
 03  6  8 18 18 30.0000000  0 11G23G21G17G 3G29G 6G16G26G15G 2G18
  21752048.607   -13759708.17343 -10677073.87442  21752050.730    21752046.142
  20512976.855    -6650665.45043  -5174784.42142  20512978.761    20512971.883
  21099945.032     1677876.16843   1310878.34642  21099946.470    21099941.964
  24207767.268    -3541454.91043  -2749743.15342  24207769.551    24207766.189
  23870049.920    -2601774.68743  -2019866.71742  23870052.124    23870048.298
  22073716.250     9883378.59943   7707113.84942  22073718.356    22073714.191
  23657786.942    -9906548.93843  -7686599.98042  23657788.941    23657784.355
  21805321.218   -14882592.89743 -11590951.70642  21805323.779    21805318.914
  21180168.867   -17887289.22043 -13927075.18042  21180170.544    21180165.763
  24865708.830    -5893075.78843  -4585625.57842  24865710.511    24865707.723
  20483317.704   -22028994.56043 -17159321.60842  20483319.937    20483313.348
 03  6  8 18 19  0.0000000  0 11G23G21G17G 3G29G 6G16G26G15G 2G18
  21742420.752   -13810302.64743 -10716498.11442  21742422.922    21742418.348
  20514449.798    -6642925.27244  -5168753.13242  20514451.701    20514444.821
  21105520.143     1707173.19843   1333707.18242  21105521.539    21105517.025
  24189618.723    -3636826.58743  -2824058.69442  24189620.922    24189617.497
  23884591.986    -2525355.40243  -1960319.27542  23884594.267    23884590.573
  22090883.868     9973594.91043   7777412.16442  22090885.960    22090881.837
  23666061.010    -9863069.58143  -7652720.02942  23666062.883    23666058.332
  21814804.007   -14832760.58343 -11552121.36842  21814806.575    21814801.703
  21169966.686   -17940902.00043 -13968851.36742  21169968.352    21169963.557
  24866232.900    -5890322.03843  -4583479.87642  24866234.733    24866231.971
  20479488.677   -22049116.23543 -17175000.83442  20479490.920    20479484.296
 03  6  8 18 19 30.0000000  0 11G23G21G17G 3G29G 6G16G26G15G 2G18
  21732856.982   -13860560.44043 -10755660.01442  21732859.150    21732854.584
  20515974.704    -6634912.03743  -5162509.08042  20515976.583    20515969.718
  21111141.261     1736712.46943   1356724.77242  21111142.671    21111138.198
  24171511.390    -3731981.37543  -2898205.22142  24171513.573    24171510.173
  23899204.023    -2448569.51743  -1900486.15442  23899206.231    23899202.398
  22108112.862    10064133.28543   7847961.43342  22108114.926    22108110.848
  23674410.613    -9819192.34943  -7618530.08442  23674412.531    23674407.971
  21824401.905   -14782323.26243 -11512819.59042  21824404.482    21824399.665
  21159798.082   -17994338.44543 -14010490.15142  21159799.736    21159794.908
  24866834.271    -5887162.32143  -4581017.86342  24866835.932    24866833.236
  20475735.897   -22068837.07743 -17190367.72042  20475738.156    20475731.548
 03  6  8 18 20  0.0000000  0 11G23G21G17G 3G29G 6G16G26G15G 2G18
  21723356.599   -13910484.99543 -10794562.23642  21723358.788    21723354.206
  20517550.961    -6626628.72343  -5156054.56942  20517552.872    20517546.012
  21116807.957     1766491.18143   1379928.94242  21116809.415    21116804.937
  24153445.112    -3826920.05543  -2972183.36042  24153447.384    24153444.061
  23913884.676    -2371422.38943  -1840371.55242  23913886.903    23913883.183
  22125402.135    10154988.30543   7918757.44742  22125404.176    22125400.124
  23682834.924    -9774922.71943  -7584034.33842  23682836.802    23682832.326
  21834113.968   -14731286.27443 -11473050.55142  21834116.487    21834111.716
  21149662.497   -18047601.04143 -14051993.46542  21149664.175    21149659.398
  24867511.658    -5883600.98543  -4578242.88242  24867513.668    24867511.072
  20472058.668   -22088161.14143 -17205425.43142  20472060.900    20472054.296
 03  6  8 18 20 30.0000000  0 11G23G21G17G 3G29G 6G16G26G15G 2G18
  21713921.245   -13960068.31243 -10833198.56442  21713923.419    21713918.801
  20519180.350    -6618066.38144  -5149382.63442  20519182.260    20519175.369
  21122521.839     1796517.75643   1403326.25242  21122523.304    21122518.815
  24135422.036    -3921632.09843  -3045984.94442  24135424.274    24135420.950
  23928635.110    -2293908.48043  -1779971.16842  23928637.311    23928633.686
  22142752.775    10246166.04343   7989804.91542  22142754.796    22142750.846
  23691335.035    -9730255.21643  -7549228.58542  23691336.925    23691332.434
  21843941.267   -14679643.43343 -11432809.40642  21843943.799    21843939.033
  21139561.791   -18100680.71543 -14093354.24042  21139563.440    21139558.667
  24868267.192    -5879630.82743  -4575149.30742  24868269.146    24868266.648
  20468458.368   -22107080.90043 -17220168.09542  20468460.574    20468453.982
 03  6  8 18 21  0.0000000  0 11G23G21G17G 3G29G 6G16G26G15G 2G18
  21704549.357   -14009317.68243 -10871574.67142  21704551.539    21704546.934
  20520861.526    -6609231.74343  -5142498.53042  20520863.414    20520856.543
  21128281.659     1826785.60343   1426911.55742  21128283.091    21128278.625
  24117441.217    -4016122.15743  -3119613.50842  24117443.475    24117440.082
  23943453.542    -2216037.24743  -1719292.31542  23943455.820    23943452.225
  22160163.050    10337657.14243   8061096.56042  22160165.036    22160161.134
  23699908.882    -9685199.56943  -7514120.36042  23699910.763    23699906.322
  21853882.150   -14627403.96643 -11392103.37442  21853884.674    21853879.846
  21129494.633   -18153583.80943 -14134577.42642  21129496.269    21129491.547
  24869099.273    -5875259.81843  -4571743.43542  24869100.899    24869098.594
  20464933.527   -22125604.02443 -17234601.69642  20464935.734    20464929.151
 03  6  8 18 21 30.0000000  0 11G23G21G17G 3G29G 6G16G26G15G 2G18
  21695241.605   -14058230.34843 -10909688.42142  21695243.792    21695239.136
  20522595.236    -6600121.15343  -5135399.39442  20522597.093    20522590.238
  21134088.144     1857298.59443   1450687.87842  21134089.542    21134085.077
  24099503.462    -4110385.04143  -3193065.09442  24099505.693    24099502.368
  23958340.031    -2137808.43643  -1658334.87142  23958342.375    23958338.743
  22177633.020    10429462.12743   8132632.79442  22177635.056    22177631.152
  23708556.732    -9639755.21143  -7478709.28242  23708558.640    23708554.270
  21863936.769   -14574567.03643 -11350931.79542  21863939.311    21863934.421
  21119461.856   -18206306.54843 -14175660.07642  21119463.473    21119458.736
  24870007.715    -5870486.35843  -4568023.93342  24870009.344    24870007.159
  20461484.599   -22143728.33743 -17248724.54442  20461486.805    20461480.220
 03  6  8 18 22  0.0000000  0 11G23G21G17G 3G29G 6G16G26G15G 2G18
  21685998.075   -14106805.44343 -10947539.13142  21686000.243    21685995.606
  20524381.684    -6590733.46443  -5128084.33842  20524383.519    20524376.670
  21139941.388     1888057.37143   1474655.72242  21139942.769    21139938.294
  24081609.511    -4204417.38743  -3266337.00242  24081611.974    24081608.514
  23973294.312    -2059223.52443  -1597099.95242  23973296.571    23973293.020
  22195162.487    10521579.70443   8204412.60942  22195164.520    22195160.587
  23717278.192    -9593923.89243  -7442996.66042  23717280.108    23717275.812
  21874104.751   -14521133.63743 -11309295.41742  21874107.295    21874102.522
  21109463.773   -18258846.89643 -14216600.60642  21109465.398    21109460.644
  24870992.725    -5865310.36943  -4563990.77142  24870994.366    24870991.910
  20458111.570   -22161453.59643 -17262536.43542  20458113.772    20458107.228
 03  6  8 18 22 30.0000000  0 11G23G21G17G 3G29G 6G16G26G15G 2G18
  21676818.662   -14155043.56743 -10985127.25142  21676820.789    21676816.170
  20526220.940    -6581068.16944  -5120552.96142  20526222.780    20526215.926
  21145841.413     1919062.29643   1498815.37342  21145842.821    21145838.375
  24063760.047    -4298217.11543  -3339427.67442  24063762.292    24063758.955
  23988315.880    -1980285.11643  -1535589.59342  23988318.027    23988314.508
  22212750.921    10614007.28543   8276433.98442  22212752.999    22212749.078
  23726072.765    -9547708.22443  -7406984.55142  23726074.649    23726070.405
  21884385.881   -14467106.25243 -11267196.18742  21884388.404    21884383.620
  21099500.495   -18311204.33043 -14257398.60042  21099502.155    21099497.368
  24872054.088    -5859733.29643  -4559645.03842  24872055.845    24872053.298
  20454814.357   -22178780.74443 -17276038.10842  20454816.535    20454809.979
 03  6  8 18 23  0.0000000  0 11G23G21G17G 3G29G 6G16G26G15G 2G18
  21667703.361   -14202944.79543 -11022452.86642  21667705.502    21667700.830
  20528113.165    -6571124.62843  -5112804.76842  20528114.983    20528108.134
  21151788.453     1950313.88343   1523167.22442  21151789.813    21151785.362
  24045955.242    -4391781.68443  -3412335.09642  24045957.604    24045954.127
  24003404.256    -1900995.75943  -1473805.77742  24003406.422    24003402.852
  22230398.026    10706742.56943   8348695.13142  22230400.055    22230396.106
  23734940.040    -9501111.13143  -7370675.19642  23734941.896    23734937.588
  21894779.630   -14412487.06743 -11224635.81542  21894782.120    21894777.369
  21089572.120   -18363378.14743 -14298053.51842  21089573.830    21089569.005
  24873191.720    -5853756.08343  -4554987.52442  24873193.329    24873190.759
  20451592.765   -22195710.27843 -17289229.95442  20451594.961    20451588.393
